<?xml version="1.0" encoding="UTF-8" standalone="yes"?>
<gpx
 xmlns="http://www.topografix.com/GPX/1/1"
 creator="OziExplorer Version 3956f - http://www.oziexplorer.com"
 version="1.1"
 xmlns:xsi="http://www.w3.org/2001/XMLSchema-instance"
 xsi:schemaLocation="http://www.topografix.com/GPX/1/1 http://www.topografix.com/GPX/1/1/gpx.xsd">
<metadata>
 <time>2020-12-09T06:11:55Z</time>
 <bounds minlat="31.506510" minlon="35.320745" maxlat="31.600553" maxlon="35.392508"/>
</metadata>
<wpt lat="31.5901660" lon="35.3925080">
 <ele>12.000000</ele>
 <time>1992-01-02T00:00:00.000Z</time>
 <name>1-Start</name>
 <cmt>1</cmt>
 <desc>1</desc>
 <sym>Bike Trail</sym>
</wpt>
<wpt lat="31.5907240" lon="35.3895770">
 <ele>17.000000</ele>
 <time>1992-01-02T00:00:00.000Z</time>
 <name>2-Green</name>
 <cmt>2</cmt>
 <desc>2</desc>
 <sym>Flag, Blue</sym>
</wpt>
<wpt lat="31.5866920" lon="35.3528380">
 <ele>-10.999999</ele>
 <time>1992-01-02T00:00:00.000Z</time>
 <name>35-PodemSt</name>
 <cmt>35</cmt>
 <desc>35</desc>
 <sym>Flag, Blue</sym>
</wpt>
<wpt lat="31.5455010" lon="35.3355210">
 <ele>273.000000</ele>
 <time>1992-01-02T00:00:00.000Z</time>
 <name>68-Peshera</name>
 <cmt>68</cmt>
 <desc>68</desc>
 <sym>Flag, Blue</sym>
</wpt>
<wpt lat="31.5363597" lon="35.3238909">
 <ele>315.000000</ele>
 <time>1992-01-02T00:00:00.000Z</time>
 <name>77-BorMaim</name>
 <cmt>77</cmt>
 <desc>77</desc>
 <sym>Flag, Blue</sym>
</wpt>
<wpt lat="31.5287950" lon="35.3245180">
 <ele>341.000000</ele>
 <time>1992-01-02T00:00:00.000Z</time>
 <name>84-Vodoem</name>
 <cmt>84</cmt>
 <desc>84</desc>
 <sym>Flag, Blue</sym>
</wpt>
<wpt lat="31.5207191" lon="35.3237209">
 <ele>378.000000</ele>
 <time>1992-01-02T00:00:00.000Z</time>
 <name>87-Derevo</name>
 <cmt>87</cmt>
 <desc>87</desc>
 <sym>Flag, Blue</sym>
</wpt>
<wpt lat="31.5097900" lon="35.3283200">
 <ele>443.000000</ele>
 <time>1992-01-02T00:00:00.000Z</time>
 <name>100-Max447m</name>
 <cmt>100</cmt>
 <desc>100</desc>
 <sym>Flag, Blue</sym>
</wpt>
<wpt lat="31.5174190" lon="35.3456520">
 <ele>326.000000</ele>
 <time>1992-01-02T00:00:00.000Z</time>
 <name>112-Black</name>
 <cmt>112</cmt>
 <desc>112</desc>
 <sym>Flag, Blue</sym>
</wpt>
<wpt lat="31.5407600" lon="35.3730680">
 <ele>292.000000</ele>
 <time>1992-01-02T00:00:00.000Z</time>
 <name>143-Green</name>
 <cmt>143</cmt>
 <desc>143</desc>
 <sym>Flag, Blue</sym>
</wpt>
<wpt lat="31.5386530" lon="35.3833930">
 <ele>279.000000</ele>
 <time>1992-01-02T00:00:00.000Z</time>
 <name>147-TatpitPrival</name>
 <cmt>147</cmt>
 <desc>147</desc>
 <sym>Flag, Blue</sym>
</wpt>
<wpt lat="31.5480670" lon="35.3671380">
 <ele>272.000000</ele>
 <time>1992-01-02T00:00:00.000Z</time>
 <name>181-Black</name>
 <cmt>181</cmt>
 <desc>181</desc>
 <sym>Flag, Blue</sym>
</wpt>
<wpt lat="31.5615400" lon="35.3648330">
 <ele>200.000000</ele>
 <time>1992-01-02T00:00:00.000Z</time>
 <name>192-Derevo</name>
 <cmt>192</cmt>
 <desc>192</desc>
 <sym>Flag, Blue</sym>
</wpt>
<wpt lat="31.5618180" lon="35.3623960">
 <ele>197.000000</ele>
 <time>1992-01-02T00:00:00.000Z</time>
 <name>195-Green</name>
 <cmt>195</cmt>
 <desc>195</desc>
 <sym>Flag, Blue</sym>
</wpt>
<wpt lat="31.5901350" lon="35.3924850">
 <ele>8.000000</ele>
 <time>1992-01-02T00:00:00.000Z</time>
 <name>248-Finish</name>
 <cmt>248</cmt>
 <desc>248</desc>
 <sym>Flag, Green</sym>
</wpt>
<trk>
 <name>dragot-hazezon, 46km,1208m</name>
 <desc>dragot-hazezon, 46km,1208m</desc>
<trkseg>
<trkpt lat="31.5901655" lon="35.3925079">
<ele>12.630000</ele>
<time>2014-01-03T05:46:37.000Z</time>
</trkpt>
<trkpt lat="31.5901684" lon="35.3922482">
<ele>12.150002</ele>
<time>2014-01-03T05:50:27.000Z</time>
</trkpt>
<trkpt lat="31.5901920" lon="35.3921364">
<ele>13.120000</ele>
<time>2014-01-03T06:00:26.000Z</time>
</trkpt>
<trkpt lat="31.5902191" lon="35.3920147">
<ele>13.120000</ele>
<time>2014-01-03T06:00:32.000Z</time>
</trkpt>
<trkpt lat="31.5902583" lon="35.3916491">
<ele>14.559999</ele>
<time>2014-01-03T06:00:49.000Z</time>
</trkpt>
<trkpt lat="31.5902954" lon="35.3915343">
<ele>15.040001</ele>
<time>2014-01-03T06:00:54.000Z</time>
</trkpt>
<trkpt lat="31.5904053" lon="35.3913250">
<ele>14.080000</ele>
<time>2014-01-03T06:01:03.000Z</time>
</trkpt>
<trkpt lat="31.5904910" lon="35.3910973">
<ele>12.630000</ele>
<time>2014-01-03T06:01:08.000Z</time>
</trkpt>
<trkpt lat="31.5906415" lon="35.3905358">
<ele>12.630000</ele>
<time>2014-01-03T06:01:21.000Z</time>
</trkpt>
<trkpt lat="31.5906658" lon="35.3902968">
<ele>14.080000</ele>
<time>2014-01-03T06:01:30.000Z</time>
</trkpt>
<trkpt lat="31.5906742" lon="35.3897930">
<ele>16.000000</ele>
<time>2014-01-03T06:01:50.000Z</time>
</trkpt>
<trkpt lat="31.5907244" lon="35.3895765">
<ele>17.439999</ele>
<time>2014-01-03T06:02:00.000Z</time>
</trkpt>
<trkpt lat="31.5907830" lon="35.3894766">
<ele>17.439999</ele>
<time>2014-01-03T06:02:05.000Z</time>
</trkpt>
<trkpt lat="31.5909979" lon="35.3892222">
<ele>15.520000</ele>
<time>2014-01-03T06:02:14.000Z</time>
</trkpt>
<trkpt lat="31.5911104" lon="35.3890346">
<ele>13.120000</ele>
<time>2014-01-03T06:02:18.000Z</time>
</trkpt>
<trkpt lat="31.5913657" lon="35.3884792">
<ele>9.750000</ele>
<time>2014-01-03T06:02:30.000Z</time>
</trkpt>
<trkpt lat="31.5914853" lon="35.3880304">
<ele>9.750000</ele>
<time>2014-01-03T06:02:45.000Z</time>
</trkpt>
<trkpt lat="31.5914793" lon="35.3877974">
<ele>11.670000</ele>
<time>2014-01-03T06:02:55.000Z</time>
</trkpt>
<trkpt lat="31.5914244" lon="35.3875623">
<ele>14.559999</ele>
<time>2014-01-03T06:03:07.000Z</time>
</trkpt>
<trkpt lat="31.5913357" lon="35.3873611">
<ele>16.959999</ele>
<time>2014-01-03T06:03:19.000Z</time>
</trkpt>
<trkpt lat="31.5913293" lon="35.3872573">
<ele>17.920000</ele>
<time>2014-01-03T06:03:25.000Z</time>
</trkpt>
<trkpt lat="31.5913915" lon="35.3870640">
<ele>18.879999</ele>
<time>2014-01-03T06:03:36.000Z</time>
</trkpt>
<trkpt lat="31.5914979" lon="35.3868668">
<ele>18.879999</ele>
<time>2014-01-03T06:03:44.000Z</time>
</trkpt>
<trkpt lat="31.5915328" lon="35.3867633">
<ele>18.879999</ele>
<time>2014-01-03T06:03:47.000Z</time>
</trkpt>
<trkpt lat="31.5915583" lon="35.3866559">
<ele>18.879999</ele>
<time>2014-01-03T06:03:50.000Z</time>
</trkpt>
<trkpt lat="31.5915611" lon="35.3865227">
<ele>18.400000</ele>
<time>2014-01-03T06:03:54.000Z</time>
</trkpt>
<trkpt lat="31.5914900" lon="35.3863012">
<ele>18.879999</ele>
<time>2014-01-03T06:04:01.000Z</time>
</trkpt>
<trkpt lat="31.5912610" lon="35.3853006">
<ele>23.209999</ele>
<time>2014-01-03T06:04:39.000Z</time>
</trkpt>
<trkpt lat="31.5912313" lon="35.3850696">
<ele>24.169998</ele>
<time>2014-01-03T06:04:48.000Z</time>
</trkpt>
<trkpt lat="31.5909793" lon="35.3837196">
<ele>29.940001</ele>
<time>2014-01-03T06:05:42.000Z</time>
</trkpt>
<trkpt lat="31.5908399" lon="35.3831942">
<ele>35.230000</ele>
<time>2014-01-03T06:06:15.000Z</time>
</trkpt>
<trkpt lat="31.5907254" lon="35.3828879">
<ele>38.110001</ele>
<time>2014-01-03T06:06:37.000Z</time>
</trkpt>
<trkpt lat="31.5905518" lon="35.3824840">
<ele>42.919998</ele>
<time>2014-01-03T06:07:08.000Z</time>
</trkpt>
<trkpt lat="31.5904917" lon="35.3822763">
<ele>45.320000</ele>
<time>2014-01-03T06:07:22.000Z</time>
</trkpt>
<trkpt lat="31.5904121" lon="35.3819454">
<ele>45.320000</ele>
<time>2014-01-03T06:07:40.000Z</time>
</trkpt>
<trkpt lat="31.5902350" lon="35.3805008">
<ele>43.880001</ele>
<time>2014-01-03T06:08:21.000Z</time>
</trkpt>
<trkpt lat="31.5902533" lon="35.3802422">
<ele>44.839996</ele>
<time>2014-01-03T06:08:31.000Z</time>
</trkpt>
<trkpt lat="31.5904652" lon="35.3792786">
<ele>44.360001</ele>
<time>2014-01-03T06:08:58.000Z</time>
</trkpt>
<trkpt lat="31.5905296" lon="35.3790620">
<ele>44.839996</ele>
<time>2014-01-03T06:09:06.000Z</time>
</trkpt>
<trkpt lat="31.5906901" lon="35.3786599">
<ele>47.719997</ele>
<time>2014-01-03T06:09:25.000Z</time>
</trkpt>
<trkpt lat="31.5908129" lon="35.3782371">
<ele>50.610001</ele>
<time>2014-01-03T06:09:46.000Z</time>
</trkpt>
<trkpt lat="31.5908209" lon="35.3781153">
<ele>51.089996</ele>
<time>2014-01-03T06:09:52.000Z</time>
</trkpt>
<trkpt lat="31.5908939" lon="35.3777786">
<ele>49.650002</ele>
<time>2014-01-03T06:10:25.000Z</time>
</trkpt>
<trkpt lat="31.5909411" lon="35.3776928">
<ele>49.160000</ele>
<time>2014-01-03T06:10:28.000Z</time>
</trkpt>
<trkpt lat="31.5910975" lon="35.3772219">
<ele>44.839996</ele>
<time>2014-01-03T06:10:37.000Z</time>
</trkpt>
<trkpt lat="31.5912998" lon="35.3766920">
<ele>39.549999</ele>
<time>2014-01-03T06:10:45.000Z</time>
</trkpt>
<trkpt lat="31.5913943" lon="35.3761351">
<ele>42.439999</ele>
<time>2014-01-03T06:11:05.000Z</time>
</trkpt>
<trkpt lat="31.5914658" lon="35.3755903">
<ele>47.719997</ele>
<time>2014-01-03T06:11:32.000Z</time>
</trkpt>
<trkpt lat="31.5914781" lon="35.3752491">
<ele>50.130001</ele>
<time>2014-01-03T06:40:59.000Z</time>
</trkpt>
<trkpt lat="31.5915728" lon="35.3749056">
<ele>48.200001</ele>
<time>2014-01-03T06:41:09.000Z</time>
</trkpt>
<trkpt lat="31.5919306" lon="35.3739301">
<ele>39.549999</ele>
<time>2014-01-03T06:41:32.000Z</time>
</trkpt>
<trkpt lat="31.5921763" lon="35.3734192">
<ele>33.780003</ele>
<time>2014-01-03T06:41:40.000Z</time>
</trkpt>
<trkpt lat="31.5923074" lon="35.3731883">
<ele>31.380001</ele>
<time>2014-01-03T06:41:44.000Z</time>
</trkpt>
<trkpt lat="31.5924661" lon="35.3728555">
<ele>29.459999</ele>
<time>2014-01-03T06:41:50.000Z</time>
</trkpt>
<trkpt lat="31.5925367" lon="35.3727380">
<ele>28.980001</ele>
<time>2014-01-03T06:41:52.000Z</time>
</trkpt>
<trkpt lat="31.5926224" lon="35.3726467">
<ele>28.500000</ele>
<time>2014-01-03T06:41:54.000Z</time>
</trkpt>
<trkpt lat="31.5927162" lon="35.3725747">
<ele>28.019999</ele>
<time>2014-01-03T06:41:56.000Z</time>
</trkpt>
<trkpt lat="31.5927932" lon="35.3724974">
<ele>27.530001</ele>
<time>2014-01-03T06:41:58.000Z</time>
</trkpt>
<trkpt lat="31.5928681" lon="35.3723918">
<ele>28.019999</ele>
<time>2014-01-03T06:42:01.000Z</time>
</trkpt>
<trkpt lat="31.5931702" lon="35.3720719">
<ele>30.419998</ele>
<time>2014-01-03T06:42:17.000Z</time>
</trkpt>
<trkpt lat="31.5932647" lon="35.3719760">
<ele>29.940001</ele>
<time>2014-01-03T06:42:21.000Z</time>
</trkpt>
<trkpt lat="31.5933457" lon="35.3719002">
<ele>28.980001</ele>
<time>2014-01-03T06:42:24.000Z</time>
</trkpt>
<trkpt lat="31.5934365" lon="35.3718045">
<ele>29.459999</ele>
<time>2014-01-03T06:42:27.000Z</time>
</trkpt>
<trkpt lat="31.5936710" lon="35.3715275">
<ele>30.900000</ele>
<time>2014-01-03T06:42:36.000Z</time>
</trkpt>
<trkpt lat="31.5938688" lon="35.3712517">
<ele>31.859999</ele>
<time>2014-01-03T06:42:51.000Z</time>
</trkpt>
<trkpt lat="31.5940851" lon="35.3709994">
<ele>33.299999</ele>
<time>2014-01-03T06:43:03.000Z</time>
</trkpt>
<trkpt lat="31.5942286" lon="35.3708430">
<ele>33.780003</ele>
<time>2014-01-03T06:43:12.000Z</time>
</trkpt>
<trkpt lat="31.5943607" lon="35.3706830">
<ele>36.669998</ele>
<time>2014-01-03T06:43:25.000Z</time>
</trkpt>
<trkpt lat="31.5946132" lon="35.3704876">
<ele>39.070000</ele>
<time>2014-01-03T06:43:47.000Z</time>
</trkpt>
<trkpt lat="31.5947103" lon="35.3704230">
<ele>38.110001</ele>
<time>2014-01-03T06:43:51.000Z</time>
</trkpt>
<trkpt lat="31.5948157" lon="35.3703364">
<ele>35.709999</ele>
<time>2014-01-03T06:43:54.000Z</time>
</trkpt>
<trkpt lat="31.5950077" lon="35.3701841">
<ele>30.900000</ele>
<time>2014-01-03T06:43:58.000Z</time>
</trkpt>
<trkpt lat="31.5951040" lon="35.3701211">
<ele>29.459999</ele>
<time>2014-01-03T06:44:00.000Z</time>
</trkpt>
<trkpt lat="31.5954818" lon="35.3699075">
<ele>28.019999</ele>
<time>2014-01-03T06:44:08.000Z</time>
</trkpt>
<trkpt lat="31.5955692" lon="35.3698230">
<ele>28.500000</ele>
<time>2014-01-03T06:44:11.000Z</time>
</trkpt>
<trkpt lat="31.5957880" lon="35.3695381">
<ele>27.530001</ele>
<time>2014-01-03T06:44:20.000Z</time>
</trkpt>
<trkpt lat="31.5958481" lon="35.3694255">
<ele>27.530001</ele>
<time>2014-01-03T06:44:23.000Z</time>
</trkpt>
<trkpt lat="31.5959282" lon="35.3692084">
<ele>28.500000</ele>
<time>2014-01-03T06:44:30.000Z</time>
</trkpt>
<trkpt lat="31.5959917" lon="35.3691083">
<ele>28.500000</ele>
<time>2014-01-03T06:44:34.000Z</time>
</trkpt>
<trkpt lat="31.5961660" lon="35.3687862">
<ele>24.650000</ele>
<time>2014-01-03T06:44:42.000Z</time>
</trkpt>
<trkpt lat="31.5965045" lon="35.3681100">
<ele>19.360001</ele>
<time>2014-01-03T06:44:52.000Z</time>
</trkpt>
<trkpt lat="31.5965708" lon="35.3679890">
<ele>19.840000</ele>
<time>2014-01-03T06:44:54.000Z</time>
</trkpt>
<trkpt lat="31.5966507" lon="35.3678843">
<ele>19.840000</ele>
<time>2014-01-03T06:44:56.000Z</time>
</trkpt>
<trkpt lat="31.5967233" lon="35.3677972">
<ele>19.840000</ele>
<time>2014-01-03T06:44:58.000Z</time>
</trkpt>
<trkpt lat="31.5967834" lon="35.3677058">
<ele>19.840000</ele>
<time>2014-01-03T06:45:00.000Z</time>
</trkpt>
<trkpt lat="31.5968981" lon="35.3675032">
<ele>22.250000</ele>
<time>2014-01-03T06:45:05.000Z</time>
</trkpt>
<trkpt lat="31.5970313" lon="35.3673133">
<ele>22.730001</ele>
<time>2014-01-03T06:45:13.000Z</time>
</trkpt>
<trkpt lat="31.5971085" lon="35.3672404">
<ele>22.250000</ele>
<time>2014-01-03T06:45:16.000Z</time>
</trkpt>
<trkpt lat="31.5973094" lon="35.3671235">
<ele>18.879999</ele>
<time>2014-01-03T06:45:21.000Z</time>
</trkpt>
<trkpt lat="31.5978100" lon="35.3669378">
<ele>11.670000</ele>
<time>2014-01-03T06:45:31.000Z</time>
</trkpt>
<trkpt lat="31.5979343" lon="35.3668797">
<ele>11.670000</ele>
<time>2014-01-03T06:45:33.000Z</time>
</trkpt>
<trkpt lat="31.5980384" lon="35.3668071">
<ele>11.190000</ele>
<time>2014-01-03T06:45:35.000Z</time>
</trkpt>
<trkpt lat="31.5981210" lon="35.3667041">
<ele>10.710000</ele>
<time>2014-01-03T06:45:37.000Z</time>
</trkpt>
<trkpt lat="31.5982181" lon="35.3664836">
<ele>10.230000</ele>
<time>2014-01-03T06:45:41.000Z</time>
</trkpt>
<trkpt lat="31.5982895" lon="35.3663710">
<ele>10.710000</ele>
<time>2014-01-03T06:45:44.000Z</time>
</trkpt>
<trkpt lat="31.5983753" lon="35.3662540">
<ele>10.230000</ele>
<time>2014-01-03T06:45:47.000Z</time>
</trkpt>
<trkpt lat="31.5986462" lon="35.3659376">
<ele>12.630000</ele>
<time>2014-01-03T06:46:36.000Z</time>
</trkpt>
<trkpt lat="31.5990774" lon="35.3657693">
<ele>4.460000</ele>
<time>2014-01-03T06:46:49.000Z</time>
</trkpt>
<trkpt lat="31.5992748" lon="35.3656669">
<ele>3.020000</ele>
<time>2014-01-03T06:46:53.000Z</time>
</trkpt>
<trkpt lat="31.5993710" lon="35.3656260">
<ele>2.060000</ele>
<time>2014-01-03T06:46:55.000Z</time>
</trkpt>
<trkpt lat="31.5994777" lon="35.3656147">
<ele>1.100000</ele>
<time>2014-01-03T06:46:57.000Z</time>
</trkpt>
<trkpt lat="31.5995676" lon="35.3656408">
<ele>0.620000</ele>
<time>2014-01-03T06:46:59.000Z</time>
</trkpt>
<trkpt lat="31.5996579" lon="35.3657033">
<ele>0.140000</ele>
<time>2014-01-03T06:47:02.000Z</time>
</trkpt>
<trkpt lat="31.5997434" lon="35.3657825">
<ele>-1.300000</ele>
<time>2014-01-03T06:47:06.000Z</time>
</trkpt>
<trkpt lat="31.5998003" lon="35.3658965">
<ele>-2.270000</ele>
<time>2014-01-03T06:47:10.000Z</time>
</trkpt>
<trkpt lat="31.5999214" lon="35.3659563">
<ele>-3.710000</ele>
<time>2014-01-03T06:47:13.000Z</time>
</trkpt>
<trkpt lat="31.6000330" lon="35.3659403">
<ele>-4.670000</ele>
<time>2014-01-03T06:47:15.000Z</time>
</trkpt>
<trkpt lat="31.6002144" lon="35.3658194">
<ele>-4.670000</ele>
<time>2014-01-03T06:47:19.000Z</time>
</trkpt>
<trkpt lat="31.6003033" lon="35.3657239">
<ele>-4.190000</ele>
<time>2014-01-03T06:47:22.000Z</time>
</trkpt>
<trkpt lat="31.6004733" lon="35.3654108">
<ele>-3.710000</ele>
<time>2014-01-03T06:47:31.000Z</time>
</trkpt>
<trkpt lat="31.6005530" lon="35.3652163">
<ele>-4.190000</ele>
<time>2014-01-03T06:47:40.000Z</time>
</trkpt>
<trkpt lat="31.6005309" lon="35.3649892">
<ele>-5.150000</ele>
<time>2014-01-03T06:47:51.000Z</time>
</trkpt>
<trkpt lat="31.6004257" lon="35.3647973">
<ele>-7.550000</ele>
<time>2014-01-03T06:47:57.000Z</time>
</trkpt>
<trkpt lat="31.6003860" lon="35.3646837">
<ele>-5.630000</ele>
<time>2014-01-03T06:48:04.000Z</time>
</trkpt>
<trkpt lat="31.6003651" lon="35.3644805">
<ele>-2.270000</ele>
<time>2014-01-03T06:48:18.000Z</time>
</trkpt>
<trkpt lat="31.6003619" lon="35.3641681">
<ele>1.580000</ele>
<time>2014-01-03T06:48:42.000Z</time>
</trkpt>
<trkpt lat="31.6002666" lon="35.3639682">
<ele>4.460000</ele>
<time>2014-01-03T06:48:57.000Z</time>
</trkpt>
<trkpt lat="31.6001989" lon="35.3639109">
<ele>5.910000</ele>
<time>2014-01-03T06:49:05.000Z</time>
</trkpt>
<trkpt lat="31.6000946" lon="35.3638888">
<ele>6.390000</ele>
<time>2014-01-03T06:49:13.000Z</time>
</trkpt>
<trkpt lat="31.5999967" lon="35.3638965">
<ele>6.390000</ele>
<time>2014-01-03T06:49:18.000Z</time>
</trkpt>
<trkpt lat="31.5995646" lon="35.3641054">
<ele>3.980000</ele>
<time>2014-01-03T06:49:28.000Z</time>
</trkpt>
<trkpt lat="31.5990112" lon="35.3644192">
<ele>2.060000</ele>
<time>2014-01-03T06:49:38.000Z</time>
</trkpt>
<trkpt lat="31.5989096" lon="35.3644464">
<ele>3.020000</ele>
<time>2014-01-03T06:49:41.000Z</time>
</trkpt>
<trkpt lat="31.5986853" lon="35.3644272">
<ele>1.100000</ele>
<time>2014-01-03T06:49:47.000Z</time>
</trkpt>
<trkpt lat="31.5984992" lon="35.3643599">
<ele>-0.820000</ele>
<time>2014-01-03T06:49:51.000Z</time>
</trkpt>
<trkpt lat="31.5983060" lon="35.3643468">
<ele>1.100000</ele>
<time>2014-01-03T06:49:59.000Z</time>
</trkpt>
<trkpt lat="31.5981469" lon="35.3642686">
<ele>4.940000</ele>
<time>2014-01-03T06:50:10.000Z</time>
</trkpt>
<trkpt lat="31.5980564" lon="35.3641929">
<ele>6.390000</ele>
<time>2014-01-03T06:50:17.000Z</time>
</trkpt>
<trkpt lat="31.5977871" lon="35.3638323">
<ele>5.910000</ele>
<time>2014-01-03T06:50:31.000Z</time>
</trkpt>
<trkpt lat="31.5977008" lon="35.3637633">
<ele>6.390000</ele>
<time>2014-01-03T06:50:34.000Z</time>
</trkpt>
<trkpt lat="31.5974502" lon="35.3635974">
<ele>6.870000</ele>
<time>2014-01-03T06:50:45.000Z</time>
</trkpt>
<trkpt lat="31.5972288" lon="35.3633167">
<ele>7.350000</ele>
<time>2014-01-03T06:50:57.000Z</time>
</trkpt>
<trkpt lat="31.5971704" lon="35.3632228">
<ele>7.830000</ele>
<time>2014-01-03T06:51:01.000Z</time>
</trkpt>
<trkpt lat="31.5970837" lon="35.3630028">
<ele>8.790000</ele>
<time>2014-01-03T06:51:10.000Z</time>
</trkpt>
<trkpt lat="31.5970045" lon="35.3629440">
<ele>9.750000</ele>
<time>2014-01-03T06:51:15.000Z</time>
</trkpt>
<trkpt lat="31.5968963" lon="35.3629212">
<ele>9.750000</ele>
<time>2014-01-03T06:51:20.000Z</time>
</trkpt>
<trkpt lat="31.5965045" lon="35.3629658">
<ele>11.190000</ele>
<time>2014-01-03T06:51:37.000Z</time>
</trkpt>
<trkpt lat="31.5960201" lon="35.3629404">
<ele>15.520000</ele>
<time>2014-01-03T06:52:03.000Z</time>
</trkpt>
<trkpt lat="31.5958369" lon="35.3628769">
<ele>16.959999</ele>
<time>2014-01-03T06:52:15.000Z</time>
</trkpt>
<trkpt lat="31.5954683" lon="35.3626998">
<ele>23.209999</ele>
<time>2014-01-03T06:52:45.000Z</time>
</trkpt>
<trkpt lat="31.5953265" lon="35.3625586">
<ele>25.130001</ele>
<time>2014-01-03T06:52:57.000Z</time>
</trkpt>
<trkpt lat="31.5952564" lon="35.3624558">
<ele>24.169998</ele>
<time>2014-01-03T06:53:01.000Z</time>
</trkpt>
<trkpt lat="31.5951326" lon="35.3622229">
<ele>24.169998</ele>
<time>2014-01-03T06:53:09.000Z</time>
</trkpt>
<trkpt lat="31.5950699" lon="35.3621375">
<ele>24.169998</ele>
<time>2014-01-03T06:53:12.000Z</time>
</trkpt>
<trkpt lat="31.5949772" lon="35.3620643">
<ele>23.209999</ele>
<time>2014-01-03T06:53:15.000Z</time>
</trkpt>
<trkpt lat="31.5945904" lon="35.3618832">
<ele>21.290001</ele>
<time>2014-01-03T06:53:25.000Z</time>
</trkpt>
<trkpt lat="31.5945236" lon="35.3618018">
<ele>21.769999</ele>
<time>2014-01-03T06:53:28.000Z</time>
</trkpt>
<trkpt lat="31.5944872" lon="35.3616801">
<ele>20.809999</ele>
<time>2014-01-03T06:53:31.000Z</time>
</trkpt>
<trkpt lat="31.5944731" lon="35.3614245">
<ele>20.320000</ele>
<time>2014-01-03T06:53:37.000Z</time>
</trkpt>
<trkpt lat="31.5944032" lon="35.3610754">
<ele>20.809999</ele>
<time>2014-01-03T06:53:51.000Z</time>
</trkpt>
<trkpt lat="31.5943713" lon="35.3609638">
<ele>21.769999</ele>
<time>2014-01-03T06:53:56.000Z</time>
</trkpt>
<trkpt lat="31.5943310" lon="35.3608585">
<ele>23.209999</ele>
<time>2014-01-03T06:54:02.000Z</time>
</trkpt>
<trkpt lat="31.5942709" lon="35.3607722">
<ele>23.690001</ele>
<time>2014-01-03T06:54:07.000Z</time>
</trkpt>
<trkpt lat="31.5942058" lon="35.3606949">
<ele>24.650000</ele>
<time>2014-01-03T06:54:12.000Z</time>
</trkpt>
<trkpt lat="31.5940683" lon="35.3605563">
<ele>26.090000</ele>
<time>2014-01-03T06:54:22.000Z</time>
</trkpt>
<trkpt lat="31.5939920" lon="35.3604881">
<ele>26.570000</ele>
<time>2014-01-03T06:54:27.000Z</time>
</trkpt>
<trkpt lat="31.5939340" lon="35.3604110">
<ele>27.530001</ele>
<time>2014-01-03T06:54:32.000Z</time>
</trkpt>
<trkpt lat="31.5937969" lon="35.3602317">
<ele>28.500000</ele>
<time>2014-01-03T06:54:42.000Z</time>
</trkpt>
<trkpt lat="31.5936506" lon="35.3600691">
<ele>28.500000</ele>
<time>2014-01-03T06:54:51.000Z</time>
</trkpt>
<trkpt lat="31.5935835" lon="35.3600077">
<ele>28.500000</ele>
<time>2014-01-03T06:54:55.000Z</time>
</trkpt>
<trkpt lat="31.5933636" lon="35.3597906">
<ele>30.419998</ele>
<time>2014-01-03T06:55:11.000Z</time>
</trkpt>
<trkpt lat="31.5930512" lon="35.3595335">
<ele>32.340000</ele>
<time>2014-01-03T06:55:33.000Z</time>
</trkpt>
<trkpt lat="31.5929624" lon="35.3594624">
<ele>32.340000</ele>
<time>2014-01-03T06:55:38.000Z</time>
</trkpt>
<trkpt lat="31.5924912" lon="35.3590382">
<ele>35.709999</ele>
<time>2014-01-03T06:56:10.000Z</time>
</trkpt>
<trkpt lat="31.5923481" lon="35.3588666">
<ele>38.590000</ele>
<time>2014-01-03T06:56:24.000Z</time>
</trkpt>
<trkpt lat="31.5921348" lon="35.3586532">
<ele>43.400002</ele>
<time>2014-01-03T06:56:46.000Z</time>
</trkpt>
<trkpt lat="31.5920764" lon="35.3585607">
<ele>44.360001</ele>
<time>2014-01-03T06:56:54.000Z</time>
</trkpt>
<trkpt lat="31.5919479" lon="35.3583896">
<ele>46.279999</ele>
<time>2014-01-03T06:57:11.000Z</time>
</trkpt>
<trkpt lat="31.5917566" lon="35.3581635">
<ele>50.610001</ele>
<time>2014-01-03T06:57:35.000Z</time>
</trkpt>
<trkpt lat="31.5917004" lon="35.3580853">
<ele>52.529999</ele>
<time>2014-01-03T06:57:44.000Z</time>
</trkpt>
<trkpt lat="31.5915428" lon="35.3579732">
<ele>54.930000</ele>
<time>2014-01-03T06:58:04.000Z</time>
</trkpt>
<trkpt lat="31.5913754" lon="35.3578397">
<ele>56.370003</ele>
<time>2014-01-03T06:58:21.000Z</time>
</trkpt>
<trkpt lat="31.5911722" lon="35.3577361">
<ele>54.930000</ele>
<time>2014-01-03T06:58:27.000Z</time>
</trkpt>
<trkpt lat="31.5907886" lon="35.3576208">
<ele>51.089996</ele>
<time>2014-01-03T06:58:35.000Z</time>
</trkpt>
<trkpt lat="31.5906205" lon="35.3575091">
<ele>49.650002</ele>
<time>2014-01-03T06:58:39.000Z</time>
</trkpt>
<trkpt lat="31.5905352" lon="35.3574388">
<ele>48.680000</ele>
<time>2014-01-03T06:58:41.000Z</time>
</trkpt>
<trkpt lat="31.5903912" lon="35.3572973">
<ele>47.719997</ele>
<time>2014-01-03T06:58:45.000Z</time>
</trkpt>
<trkpt lat="31.5901887" lon="35.3571335">
<ele>46.760002</ele>
<time>2014-01-03T06:58:51.000Z</time>
</trkpt>
<trkpt lat="31.5900915" lon="35.3570392">
<ele>44.839996</ele>
<time>2014-01-03T06:58:54.000Z</time>
</trkpt>
<trkpt lat="31.5898944" lon="35.3567750">
<ele>43.880001</ele>
<time>2014-01-03T06:59:00.000Z</time>
</trkpt>
<trkpt lat="31.5897818" lon="35.3564100">
<ele>40.990002</ele>
<time>2014-01-03T06:59:07.000Z</time>
</trkpt>
<trkpt lat="31.5896489" lon="35.3560905">
<ele>40.510002</ele>
<time>2014-01-03T06:59:13.000Z</time>
</trkpt>
<trkpt lat="31.5895194" lon="35.3558898">
<ele>40.990002</ele>
<time>2014-01-03T06:59:21.000Z</time>
</trkpt>
<trkpt lat="31.5894448" lon="35.3558661">
<ele>40.990002</ele>
<time>2014-01-03T07:00:53.000Z</time>
</trkpt>
<trkpt lat="31.5893657" lon="35.3557963">
<ele>40.510002</ele>
<time>2014-01-03T07:00:58.000Z</time>
</trkpt>
<trkpt lat="31.5892670" lon="35.3557252">
<ele>40.029999</ele>
<time>2014-01-03T07:01:02.000Z</time>
</trkpt>
<trkpt lat="31.5889591" lon="35.3555497">
<ele>39.070000</ele>
<time>2014-01-03T07:01:11.000Z</time>
</trkpt>
<trkpt lat="31.5887973" lon="35.3554502">
<ele>39.070000</ele>
<time>2014-01-03T07:02:15.000Z</time>
</trkpt>
<trkpt lat="31.5885502" lon="35.3553993">
<ele>38.110001</ele>
<time>2014-01-03T07:02:21.000Z</time>
</trkpt>
<trkpt lat="31.5883400" lon="35.3554047">
<ele>37.150002</ele>
<time>2014-01-03T07:02:25.000Z</time>
</trkpt>
<trkpt lat="31.5882268" lon="35.3554312">
<ele>36.189999</ele>
<time>2014-01-03T07:02:27.000Z</time>
</trkpt>
<trkpt lat="31.5880059" lon="35.3555256">
<ele>35.709999</ele>
<time>2014-01-03T07:02:31.000Z</time>
</trkpt>
<trkpt lat="31.5876632" lon="35.3556965">
<ele>34.259998</ele>
<time>2014-01-03T07:02:37.000Z</time>
</trkpt>
<trkpt lat="31.5874101" lon="35.3557978">
<ele>32.340000</ele>
<time>2014-01-03T07:02:41.000Z</time>
</trkpt>
<trkpt lat="31.5872796" lon="35.3558249">
<ele>32.340000</ele>
<time>2014-01-03T07:02:43.000Z</time>
</trkpt>
<trkpt lat="31.5870384" lon="35.3558097">
<ele>30.419998</ele>
<time>2014-01-03T07:02:47.000Z</time>
</trkpt>
<trkpt lat="31.5869094" lon="35.3557910">
<ele>29.459999</ele>
<time>2014-01-03T07:02:49.000Z</time>
</trkpt>
<trkpt lat="31.5866709" lon="35.3557158">
<ele>28.500000</ele>
<time>2014-01-03T07:02:53.000Z</time>
</trkpt>
<trkpt lat="31.5865903" lon="35.3556391">
<ele>28.500000</ele>
<time>2014-01-03T07:02:55.000Z</time>
</trkpt>
<trkpt lat="31.5865389" lon="35.3555317">
<ele>28.019999</ele>
<time>2014-01-03T07:02:57.000Z</time>
</trkpt>
<trkpt lat="31.5864760" lon="35.3553135">
<ele>26.570000</ele>
<time>2014-01-03T07:03:01.000Z</time>
</trkpt>
<trkpt lat="31.5864715" lon="35.3551672">
<ele>25.609999</ele>
<time>2014-01-03T07:03:04.000Z</time>
</trkpt>
<trkpt lat="31.5865781" lon="35.3547424">
<ele>20.809999</ele>
<time>2014-01-03T07:04:08.000Z</time>
</trkpt>
<trkpt lat="31.5866343" lon="35.3546235">
<ele>19.360001</ele>
<time>2014-01-03T07:04:12.000Z</time>
</trkpt>
<trkpt lat="31.5866698" lon="35.3545050">
<ele>17.920000</ele>
<time>2014-01-03T07:04:15.000Z</time>
</trkpt>
<trkpt lat="31.5867148" lon="35.3542469">
<ele>15.520000</ele>
<time>2014-01-03T07:04:21.000Z</time>
</trkpt>
<trkpt lat="31.5868024" lon="35.3538915">
<ele>10.230000</ele>
<time>2014-01-03T07:04:28.000Z</time>
</trkpt>
<trkpt lat="31.5868143" lon="35.3537825">
<ele>8.790000</ele>
<time>2014-01-03T07:04:31.000Z</time>
</trkpt>
<trkpt lat="31.5867818" lon="35.3536670">
<ele>7.350000</ele>
<time>2014-01-03T07:04:34.000Z</time>
</trkpt>
<trkpt lat="31.5866725" lon="35.3537341">
<ele>6.390000</ele>
<time>2014-01-03T07:04:37.000Z</time>
</trkpt>
<trkpt lat="31.5865860" lon="35.3538479">
<ele>4.940000</ele>
<time>2014-01-03T07:04:40.000Z</time>
</trkpt>
<trkpt lat="31.5865051" lon="35.3540442">
<ele>4.460000</ele>
<time>2014-01-03T07:05:13.000Z</time>
</trkpt>
<trkpt lat="31.5863699" lon="35.3542570">
<ele>3.020000</ele>
<time>2014-01-03T07:05:18.000Z</time>
</trkpt>
<trkpt lat="31.5861606" lon="35.3545430">
<ele>1.100000</ele>
<time>2014-01-03T07:05:25.000Z</time>
</trkpt>
<trkpt lat="31.5860670" lon="35.3546173">
<ele>0.620000</ele>
<time>2014-01-03T07:05:28.000Z</time>
</trkpt>
<trkpt lat="31.5859555" lon="35.3545647">
<ele>-0.340000</ele>
<time>2014-01-03T07:05:31.000Z</time>
</trkpt>
<trkpt lat="31.5859238" lon="35.3544085">
<ele>-2.750000</ele>
<time>2014-01-03T07:05:34.000Z</time>
</trkpt>
<trkpt lat="31.5859472" lon="35.3542841">
<ele>-3.230000</ele>
<time>2014-01-03T07:05:36.000Z</time>
</trkpt>
<trkpt lat="31.5861387" lon="35.3539431">
<ele>-5.150000</ele>
<time>2014-01-03T07:05:42.000Z</time>
</trkpt>
<trkpt lat="31.5863309" lon="35.3535326">
<ele>-8.030000</ele>
<time>2014-01-03T07:05:50.000Z</time>
</trkpt>
<trkpt lat="31.5864013" lon="35.3534336">
<ele>-9.000000</ele>
<time>2014-01-03T07:05:53.000Z</time>
</trkpt>
<trkpt lat="31.5864871" lon="35.3533743">
<ele>-9.960000</ele>
<time>2014-01-03T07:05:57.000Z</time>
</trkpt>
<trkpt lat="31.5865472" lon="35.3532731">
<ele>-11.400000</ele>
<time>2014-01-03T07:06:03.000Z</time>
</trkpt>
<trkpt lat="31.5866127" lon="35.3531934">
<ele>-13.320000</ele>
<time>2014-01-03T07:06:12.000Z</time>
</trkpt>
<trkpt lat="31.5866721" lon="35.3531314">
<ele>-14.280001</ele>
<time>2014-01-03T07:06:42.000Z</time>
</trkpt>
<trkpt lat="31.5867339" lon="35.3530397">
<ele>-14.280001</ele>
<time>2014-01-03T07:06:52.000Z</time>
</trkpt>
<trkpt lat="31.5867681" lon="35.3529294">
<ele>-12.360002</ele>
<time>2014-01-03T07:07:04.000Z</time>
</trkpt>
<trkpt lat="31.5866923" lon="35.3528384">
<ele>-10.920000</ele>
<time>2014-01-03T07:07:16.000Z</time>
</trkpt>
<trkpt lat="31.5865034" lon="35.3528771">
<ele>-9.000000</ele>
<time>2014-01-03T07:07:42.000Z</time>
</trkpt>
<trkpt lat="31.5864124" lon="35.3529211">
<ele>-8.030000</ele>
<time>2014-01-03T07:07:53.000Z</time>
</trkpt>
<trkpt lat="31.5863290" lon="35.3529806">
<ele>-7.070000</ele>
<time>2014-01-03T07:08:04.000Z</time>
</trkpt>
<trkpt lat="31.5862708" lon="35.3530778">
<ele>-6.110000</ele>
<time>2014-01-03T07:08:24.000Z</time>
</trkpt>
<trkpt lat="31.5862032" lon="35.3531421">
<ele>-5.150000</ele>
<time>2014-01-03T07:08:31.000Z</time>
</trkpt>
<trkpt lat="31.5859816" lon="35.3533687">
<ele>-3.230000</ele>
<time>2014-01-03T07:08:51.000Z</time>
</trkpt>
<trkpt lat="31.5859081" lon="35.3534346">
<ele>-1.790000</ele>
<time>2014-01-03T07:08:57.000Z</time>
</trkpt>
<trkpt lat="31.5858164" lon="35.3534785">
<ele>-0.820000</ele>
<time>2014-01-03T07:09:03.000Z</time>
</trkpt>
<trkpt lat="31.5857380" lon="35.3535639">
<ele>0.140000</ele>
<time>2014-01-03T07:09:10.000Z</time>
</trkpt>
<trkpt lat="31.5856669" lon="35.3536352">
<ele>0.620000</ele>
<time>2014-01-03T07:09:17.000Z</time>
</trkpt>
<trkpt lat="31.5855828" lon="35.3537068">
<ele>1.100000</ele>
<time>2014-01-03T07:09:24.000Z</time>
</trkpt>
<trkpt lat="31.5855069" lon="35.3538017">
<ele>2.060000</ele>
<time>2014-01-03T07:09:31.000Z</time>
</trkpt>
<trkpt lat="31.5854356" lon="35.3538654">
<ele>3.500000</ele>
<time>2014-01-03T07:09:38.000Z</time>
</trkpt>
<trkpt lat="31.5853696" lon="35.3539519">
<ele>4.460000</ele>
<time>2014-01-03T07:09:46.000Z</time>
</trkpt>
<trkpt lat="31.5852867" lon="35.3540193">
<ele>5.420000</ele>
<time>2014-01-03T07:09:53.000Z</time>
</trkpt>
<trkpt lat="31.5852312" lon="35.3541052">
<ele>6.390000</ele>
<time>2014-01-03T07:10:00.000Z</time>
</trkpt>
<trkpt lat="31.5851985" lon="35.3543290">
<ele>8.790000</ele>
<time>2014-01-03T07:10:16.000Z</time>
</trkpt>
<trkpt lat="31.5852345" lon="35.3546644">
<ele>11.670000</ele>
<time>2014-01-03T07:10:40.000Z</time>
</trkpt>
<trkpt lat="31.5852749" lon="35.3547657">
<ele>12.150002</ele>
<time>2014-01-03T07:10:47.000Z</time>
</trkpt>
<trkpt lat="31.5852773" lon="35.3549862">
<ele>13.600000</ele>
<time>2014-01-03T07:11:03.000Z</time>
</trkpt>
<trkpt lat="31.5851970" lon="35.3553044">
<ele>16.480000</ele>
<time>2014-01-03T07:11:27.000Z</time>
</trkpt>
<trkpt lat="31.5851566" lon="35.3554046">
<ele>18.400000</ele>
<time>2014-01-03T07:11:35.000Z</time>
</trkpt>
<trkpt lat="31.5850231" lon="35.3555549">
<ele>20.809999</ele>
<time>2014-01-03T07:11:51.000Z</time>
</trkpt>
<trkpt lat="31.5849365" lon="35.3555748">
<ele>22.250000</ele>
<time>2014-01-03T07:12:00.000Z</time>
</trkpt>
<trkpt lat="31.5848425" lon="35.3555470">
<ele>23.209999</ele>
<time>2014-01-03T07:12:08.000Z</time>
</trkpt>
<trkpt lat="31.5847180" lon="35.3553842">
<ele>24.650000</ele>
<time>2014-01-03T07:12:25.000Z</time>
</trkpt>
<trkpt lat="31.5845850" lon="35.3550957">
<ele>27.049999</ele>
<time>2014-01-03T07:12:49.000Z</time>
</trkpt>
<trkpt lat="31.5845736" lon="35.3548771">
<ele>28.500000</ele>
<time>2014-01-03T07:13:05.000Z</time>
</trkpt>
<trkpt lat="31.5846307" lon="35.3547817">
<ele>28.980001</ele>
<time>2014-01-03T07:13:11.000Z</time>
</trkpt>
<trkpt lat="31.5846727" lon="35.3546823">
<ele>29.940001</ele>
<time>2014-01-03T07:13:19.000Z</time>
</trkpt>
<trkpt lat="31.5847760" lon="35.3544941">
<ele>30.900000</ele>
<time>2014-01-03T07:13:34.000Z</time>
</trkpt>
<trkpt lat="31.5848190" lon="35.3544030">
<ele>31.859999</ele>
<time>2014-01-03T07:13:41.000Z</time>
</trkpt>
<trkpt lat="31.5847757" lon="35.3542788">
<ele>32.820000</ele>
<time>2014-01-03T07:13:49.000Z</time>
</trkpt>
<trkpt lat="31.5846743" lon="35.3542376">
<ele>33.299999</ele>
<time>2014-01-03T07:13:57.000Z</time>
</trkpt>
<trkpt lat="31.5845857" lon="35.3543248">
<ele>34.259998</ele>
<time>2014-01-03T07:14:05.000Z</time>
</trkpt>
<trkpt lat="31.5844648" lon="35.3546221">
<ele>37.150002</ele>
<time>2014-01-03T07:14:29.000Z</time>
</trkpt>
<trkpt lat="31.5843304" lon="35.3547669">
<ele>38.590000</ele>
<time>2014-01-03T07:14:45.000Z</time>
</trkpt>
<trkpt lat="31.5842756" lon="35.3548503">
<ele>40.029999</ele>
<time>2014-01-03T07:14:53.000Z</time>
</trkpt>
<trkpt lat="31.5842458" lon="35.3550779">
<ele>41.950001</ele>
<time>2014-01-03T07:15:09.000Z</time>
</trkpt>
<trkpt lat="31.5841202" lon="35.3552458">
<ele>44.360001</ele>
<time>2014-01-03T07:15:26.000Z</time>
</trkpt>
<trkpt lat="31.5840285" lon="35.3553054">
<ele>45.799999</ele>
<time>2014-01-03T07:15:35.000Z</time>
</trkpt>
<trkpt lat="31.5839635" lon="35.3553851">
<ele>46.760002</ele>
<time>2014-01-03T07:15:44.000Z</time>
</trkpt>
<trkpt lat="31.5838565" lon="35.3555747">
<ele>49.650002</ele>
<time>2014-01-03T07:16:02.000Z</time>
</trkpt>
<trkpt lat="31.5837159" lon="35.3557245">
<ele>52.529999</ele>
<time>2014-01-03T07:16:20.000Z</time>
</trkpt>
<trkpt lat="31.5836069" lon="35.3558960">
<ele>54.450001</ele>
<time>2014-01-03T07:16:39.000Z</time>
</trkpt>
<trkpt lat="31.5835530" lon="35.3559964">
<ele>55.889999</ele>
<time>2014-01-03T07:16:49.000Z</time>
</trkpt>
<trkpt lat="31.5835162" lon="35.3560959">
<ele>56.860001</ele>
<time>2014-01-03T07:16:57.000Z</time>
</trkpt>
<trkpt lat="31.5834413" lon="35.3561612">
<ele>58.299999</ele>
<time>2014-01-03T07:17:05.000Z</time>
</trkpt>
<trkpt lat="31.5833468" lon="35.3561714">
<ele>59.260002</ele>
<time>2014-01-03T07:17:13.000Z</time>
</trkpt>
<trkpt lat="31.5832505" lon="35.3561402">
<ele>60.219997</ele>
<time>2014-01-03T07:17:22.000Z</time>
</trkpt>
<trkpt lat="31.5831764" lon="35.3560738">
<ele>60.700001</ele>
<time>2014-01-03T07:17:31.000Z</time>
</trkpt>
<trkpt lat="31.5831191" lon="35.3559876">
<ele>61.660000</ele>
<time>2014-01-03T07:17:40.000Z</time>
</trkpt>
<trkpt lat="31.5827635" lon="35.3551992">
<ele>72.239998</ele>
<time>2014-01-03T07:18:55.000Z</time>
</trkpt>
<trkpt lat="31.5827045" lon="35.3551207">
<ele>73.680000</ele>
<time>2014-01-03T07:19:04.000Z</time>
</trkpt>
<trkpt lat="31.5825325" lon="35.3548437">
<ele>76.559998</ele>
<time>2014-01-03T07:19:30.000Z</time>
</trkpt>
<trkpt lat="31.5824162" lon="35.3546828">
<ele>78.000000</ele>
<time>2014-01-03T07:19:46.000Z</time>
</trkpt>
<trkpt lat="31.5822466" lon="35.3544309">
<ele>80.889999</ele>
<time>2014-01-03T07:20:11.000Z</time>
</trkpt>
<trkpt lat="31.5821836" lon="35.3543572">
<ele>81.849998</ele>
<time>2014-01-03T07:20:19.000Z</time>
</trkpt>
<trkpt lat="31.5821264" lon="35.3542746">
<ele>82.809998</ele>
<time>2014-01-03T07:20:27.000Z</time>
</trkpt>
<trkpt lat="31.5818837" lon="35.3539421">
<ele>85.689995</ele>
<time>2014-01-03T07:20:59.000Z</time>
</trkpt>
<trkpt lat="31.5817645" lon="35.3537675">
<ele>87.139999</ele>
<time>2014-01-03T07:21:13.000Z</time>
</trkpt>
<trkpt lat="31.5815912" lon="35.3536731">
<ele>88.579994</ele>
<time>2014-01-03T07:21:27.000Z</time>
</trkpt>
<trkpt lat="31.5810225" lon="35.3535268">
<ele>94.349998</ele>
<time>2014-01-03T07:22:15.000Z</time>
</trkpt>
<trkpt lat="31.5806527" lon="35.3534717">
<ele>97.709999</ele>
<time>2014-01-03T07:22:49.000Z</time>
</trkpt>
<trkpt lat="31.5804589" lon="35.3534930">
<ele>99.630005</ele>
<time>2014-01-03T07:23:06.000Z</time>
</trkpt>
<trkpt lat="31.5799000" lon="35.3536716">
<ele>105.880005</ele>
<time>2014-01-03T07:23:58.000Z</time>
</trkpt>
<trkpt lat="31.5796966" lon="35.3536822">
<ele>106.839996</ele>
<time>2014-01-03T07:24:14.000Z</time>
</trkpt>
<trkpt lat="31.5795315" lon="35.3536101">
<ele>107.320000</ele>
<time>2014-01-03T07:24:26.000Z</time>
</trkpt>
<trkpt lat="31.5794355" lon="35.3534427">
<ele>106.839996</ele>
<time>2014-01-03T07:24:36.000Z</time>
</trkpt>
<trkpt lat="31.5791447" lon="35.3530209">
<ele>105.400002</ele>
<time>2014-01-03T07:24:48.000Z</time>
</trkpt>
<trkpt lat="31.5790928" lon="35.3529138">
<ele>105.880005</ele>
<time>2014-01-03T07:24:51.000Z</time>
</trkpt>
<trkpt lat="31.5787156" lon="35.3528037">
<ele>106.839996</ele>
<time>2014-01-03T07:25:06.000Z</time>
</trkpt>
<trkpt lat="31.5785095" lon="35.3528640">
<ele>106.360001</ele>
<time>2014-01-03T07:25:14.000Z</time>
</trkpt>
<trkpt lat="31.5783218" lon="35.3529552">
<ele>106.360001</ele>
<time>2014-01-03T07:25:20.000Z</time>
</trkpt>
<trkpt lat="31.5782233" lon="35.3530224">
<ele>105.880005</ele>
<time>2014-01-03T07:25:23.000Z</time>
</trkpt>
<trkpt lat="31.5776492" lon="35.3532863">
<ele>105.880005</ele>
<time>2014-01-03T07:25:45.000Z</time>
</trkpt>
<trkpt lat="31.5775502" lon="35.3533292">
<ele>106.360001</ele>
<time>2014-01-03T07:25:49.000Z</time>
</trkpt>
<trkpt lat="31.5773546" lon="35.3533759">
<ele>107.809998</ele>
<time>2014-01-03T07:25:57.000Z</time>
</trkpt>
<trkpt lat="31.5764890" lon="35.3537353">
<ele>113.570000</ele>
<time>2014-01-03T07:26:48.000Z</time>
</trkpt>
<trkpt lat="31.5763378" lon="35.3538124">
<ele>114.049995</ele>
<time>2014-01-03T07:26:58.000Z</time>
</trkpt>
<trkpt lat="31.5761587" lon="35.3539282">
<ele>115.500000</ele>
<time>2014-01-03T07:27:10.000Z</time>
</trkpt>
<trkpt lat="31.5756920" lon="35.3541534">
<ele>119.339996</ele>
<time>2014-01-03T07:27:42.000Z</time>
</trkpt>
<trkpt lat="31.5755069" lon="35.3542048">
<ele>120.299995</ele>
<time>2014-01-03T07:28:36.000Z</time>
</trkpt>
<trkpt lat="31.5753165" lon="35.3543294">
<ele>120.299995</ele>
<time>2014-01-03T07:28:46.000Z</time>
</trkpt>
<trkpt lat="31.5751488" lon="35.3544787">
<ele>120.299995</ele>
<time>2014-01-03T07:28:54.000Z</time>
</trkpt>
<trkpt lat="31.5749826" lon="35.3545992">
<ele>120.780006</ele>
<time>2014-01-03T07:29:00.000Z</time>
</trkpt>
<trkpt lat="31.5747707" lon="35.3548210">
<ele>120.780006</ele>
<time>2014-01-03T07:29:09.000Z</time>
</trkpt>
<trkpt lat="31.5746938" lon="35.3549307">
<ele>121.260002</ele>
<time>2014-01-03T07:29:13.000Z</time>
</trkpt>
<trkpt lat="31.5745820" lon="35.3551385">
<ele>121.260002</ele>
<time>2014-01-03T07:29:20.000Z</time>
</trkpt>
<trkpt lat="31.5744437" lon="35.3553382">
<ele>119.820000</ele>
<time>2014-01-03T07:29:26.000Z</time>
</trkpt>
<trkpt lat="31.5743959" lon="35.3554298">
<ele>119.820000</ele>
<time>2014-01-03T07:29:28.000Z</time>
</trkpt>
<trkpt lat="31.5743011" lon="35.3557547">
<ele>121.260002</ele>
<time>2014-01-03T07:29:41.000Z</time>
</trkpt>
<trkpt lat="31.5741577" lon="35.3560506">
<ele>122.709999</ele>
<time>2014-01-03T07:29:56.000Z</time>
</trkpt>
<trkpt lat="31.5740940" lon="35.3561336">
<ele>123.189995</ele>
<time>2014-01-03T07:30:00.000Z</time>
</trkpt>
<trkpt lat="31.5740180" lon="35.3561871">
<ele>123.189995</ele>
<time>2014-01-03T07:30:04.000Z</time>
</trkpt>
<trkpt lat="31.5739789" lon="35.3562876">
<ele>123.669998</ele>
<time>2014-01-03T07:30:08.000Z</time>
</trkpt>
<trkpt lat="31.5739729" lon="35.3563972">
<ele>123.669998</ele>
<time>2014-01-03T07:30:12.000Z</time>
</trkpt>
<trkpt lat="31.5739172" lon="35.3566214">
<ele>125.110001</ele>
<time>2014-01-03T07:30:21.000Z</time>
</trkpt>
<trkpt lat="31.5738434" lon="35.3568349">
<ele>125.589996</ele>
<time>2014-01-03T07:30:31.000Z</time>
</trkpt>
<trkpt lat="31.5736896" lon="35.3571259">
<ele>127.030006</ele>
<time>2014-01-03T07:30:47.000Z</time>
</trkpt>
<trkpt lat="31.5736455" lon="35.3572195">
<ele>127.510002</ele>
<time>2014-01-03T07:30:52.000Z</time>
</trkpt>
<trkpt lat="31.5736098" lon="35.3573252">
<ele>127.989998</ele>
<time>2014-01-03T07:30:57.000Z</time>
</trkpt>
<trkpt lat="31.5735637" lon="35.3574298">
<ele>128.949997</ele>
<time>2014-01-03T07:31:02.000Z</time>
</trkpt>
<trkpt lat="31.5733625" lon="35.3578055">
<ele>130.880005</ele>
<time>2014-01-03T07:31:22.000Z</time>
</trkpt>
<trkpt lat="31.5733224" lon="35.3578993">
<ele>131.360001</ele>
<time>2014-01-03T07:31:27.000Z</time>
</trkpt>
<trkpt lat="31.5732646" lon="35.3579832">
<ele>131.839996</ele>
<time>2014-01-03T07:31:32.000Z</time>
</trkpt>
<trkpt lat="31.5731102" lon="35.3582899">
<ele>133.279999</ele>
<time>2014-01-03T07:31:48.000Z</time>
</trkpt>
<trkpt lat="31.5728264" lon="35.3587597">
<ele>136.159988</ele>
<time>2014-01-03T07:32:17.000Z</time>
</trkpt>
<trkpt lat="31.5727209" lon="35.3589628">
<ele>137.610001</ele>
<time>2014-01-03T07:32:31.000Z</time>
</trkpt>
<trkpt lat="31.5725377" lon="35.3592440">
<ele>140.010010</ele>
<time>2014-01-03T07:32:52.000Z</time>
</trkpt>
<trkpt lat="31.5723839" lon="35.3593956">
<ele>140.010010</ele>
<time>2014-01-03T07:33:06.000Z</time>
</trkpt>
<trkpt lat="31.5722978" lon="35.3594610">
<ele>141.449997</ele>
<time>2014-01-03T07:33:13.000Z</time>
</trkpt>
<trkpt lat="31.5722192" lon="35.3594985">
<ele>142.409988</ele>
<time>2014-01-03T07:33:19.000Z</time>
</trkpt>
<trkpt lat="31.5719869" lon="35.3596996">
<ele>144.339996</ele>
<time>2014-01-03T07:33:40.000Z</time>
</trkpt>
<trkpt lat="31.5718568" lon="35.3598710">
<ele>145.300003</ele>
<time>2014-01-03T07:33:53.000Z</time>
</trkpt>
<trkpt lat="31.5717566" lon="35.3600643">
<ele>147.220001</ele>
<time>2014-01-03T07:34:08.000Z</time>
</trkpt>
<trkpt lat="31.5717235" lon="35.3601699">
<ele>148.659988</ele>
<time>2014-01-03T07:34:16.000Z</time>
</trkpt>
<trkpt lat="31.5716295" lon="35.3603788">
<ele>150.100006</ele>
<time>2014-01-03T07:34:31.000Z</time>
</trkpt>
<trkpt lat="31.5715257" lon="35.3605700">
<ele>151.059998</ele>
<time>2014-01-03T07:34:44.000Z</time>
</trkpt>
<trkpt lat="31.5713979" lon="35.3607548">
<ele>151.059998</ele>
<time>2014-01-03T07:34:54.000Z</time>
</trkpt>
<trkpt lat="31.5713150" lon="35.3608516">
<ele>150.580002</ele>
<time>2014-01-03T07:34:58.000Z</time>
</trkpt>
<trkpt lat="31.5708214" lon="35.3613009">
<ele>151.059998</ele>
<time>2014-01-03T07:35:20.000Z</time>
</trkpt>
<trkpt lat="31.5707434" lon="35.3613723">
<ele>151.059998</ele>
<time>2014-01-03T07:35:25.000Z</time>
</trkpt>
<trkpt lat="31.5706758" lon="35.3614351">
<ele>152.510010</ele>
<time>2014-01-03T07:35:31.000Z</time>
</trkpt>
<trkpt lat="31.5706305" lon="35.3615040">
<ele>153.470001</ele>
<time>2014-01-03T07:35:37.000Z</time>
</trkpt>
<trkpt lat="31.5702602" lon="35.3619070">
<ele>158.750000</ele>
<time>2014-01-03T07:36:14.000Z</time>
</trkpt>
<trkpt lat="31.5700219" lon="35.3621143">
<ele>160.200012</ele>
<time>2014-01-03T07:36:32.000Z</time>
</trkpt>
<trkpt lat="31.5697316" lon="35.3623140">
<ele>161.639999</ele>
<time>2014-01-03T07:36:47.000Z</time>
</trkpt>
<trkpt lat="31.5694149" lon="35.3626041">
<ele>164.039993</ele>
<time>2014-01-03T07:37:05.000Z</time>
</trkpt>
<trkpt lat="31.5690093" lon="35.3629255">
<ele>167.410004</ele>
<time>2014-01-03T07:37:37.000Z</time>
</trkpt>
<trkpt lat="31.5689427" lon="35.3629856">
<ele>167.889999</ele>
<time>2014-01-03T07:37:43.000Z</time>
</trkpt>
<trkpt lat="31.5683254" lon="35.3635071">
<ele>176.539993</ele>
<time>2014-01-03T07:38:45.000Z</time>
</trkpt>
<trkpt lat="31.5682506" lon="35.3635627">
<ele>177.500000</ele>
<time>2014-01-03T07:38:54.000Z</time>
</trkpt>
<trkpt lat="31.5678907" lon="35.3636408">
<ele>181.830002</ele>
<time>2014-01-03T07:39:32.000Z</time>
</trkpt>
<trkpt lat="31.5676216" lon="35.3637154">
<ele>185.190002</ele>
<time>2014-01-03T07:40:01.000Z</time>
</trkpt>
<trkpt lat="31.5674408" lon="35.3637982">
<ele>188.560013</ele>
<time>2014-01-03T07:40:19.000Z</time>
</trkpt>
<trkpt lat="31.5671026" lon="35.3639847">
<ele>192.880005</ele>
<time>2014-01-03T07:40:53.000Z</time>
</trkpt>
<trkpt lat="31.5667470" lon="35.3640925">
<ele>193.359985</ele>
<time>2014-01-03T07:41:18.000Z</time>
</trkpt>
<trkpt lat="31.5666596" lon="35.3641322">
<ele>193.359985</ele>
<time>2014-01-03T07:41:24.000Z</time>
</trkpt>
<trkpt lat="31.5665006" lon="35.3642471">
<ele>194.320007</ele>
<time>2014-01-03T07:46:12.000Z</time>
</trkpt>
<trkpt lat="31.5655246" lon="35.3640750">
<ele>191.920013</ele>
<time>2014-01-03T07:46:40.000Z</time>
</trkpt>
<trkpt lat="31.5649695" lon="35.3640289">
<ele>190.000000</ele>
<time>2014-01-03T07:46:52.000Z</time>
</trkpt>
<trkpt lat="31.5645247" lon="35.3640732">
<ele>189.039993</ele>
<time>2014-01-03T07:47:01.000Z</time>
</trkpt>
<trkpt lat="31.5643275" lon="35.3639957">
<ele>188.080002</ele>
<time>2014-01-03T07:47:05.000Z</time>
</trkpt>
<trkpt lat="31.5642287" lon="35.3639875">
<ele>187.589996</ele>
<time>2014-01-03T07:47:07.000Z</time>
</trkpt>
<trkpt lat="31.5640032" lon="35.3640889">
<ele>189.039993</ele>
<time>2014-01-03T07:47:13.000Z</time>
</trkpt>
<trkpt lat="31.5638957" lon="35.3640822">
<ele>190.000000</ele>
<time>2014-01-03T07:47:16.000Z</time>
</trkpt>
<trkpt lat="31.5637925" lon="35.3640457">
<ele>189.520004</ele>
<time>2014-01-03T07:47:19.000Z</time>
</trkpt>
<trkpt lat="31.5637000" lon="35.3639626">
<ele>190.000000</ele>
<time>2014-01-03T07:47:22.000Z</time>
</trkpt>
<trkpt lat="31.5636178" lon="35.3638554">
<ele>190.000000</ele>
<time>2014-01-03T07:47:25.000Z</time>
</trkpt>
<trkpt lat="31.5635221" lon="35.3637876">
<ele>189.520004</ele>
<time>2014-01-03T07:47:28.000Z</time>
</trkpt>
<trkpt lat="31.5634085" lon="35.3637629">
<ele>190.000000</ele>
<time>2014-01-03T07:47:31.000Z</time>
</trkpt>
<trkpt lat="31.5633035" lon="35.3637113">
<ele>190.000000</ele>
<time>2014-01-03T07:47:34.000Z</time>
</trkpt>
<trkpt lat="31.5630406" lon="35.3635154">
<ele>190.960007</ele>
<time>2014-01-03T07:47:43.000Z</time>
</trkpt>
<trkpt lat="31.5627161" lon="35.3632248">
<ele>191.920013</ele>
<time>2014-01-03T07:47:57.000Z</time>
</trkpt>
<trkpt lat="31.5625446" lon="35.3630851">
<ele>191.920013</ele>
<time>2014-01-03T07:48:05.000Z</time>
</trkpt>
<trkpt lat="31.5623263" lon="35.3628486">
<ele>191.920013</ele>
<time>2014-01-03T07:48:15.000Z</time>
</trkpt>
<trkpt lat="31.5622527" lon="35.3627544">
<ele>191.440002</ele>
<time>2014-01-03T07:48:18.000Z</time>
</trkpt>
<trkpt lat="31.5620996" lon="35.3626091">
<ele>190.479996</ele>
<time>2014-01-03T07:48:24.000Z</time>
</trkpt>
<trkpt lat="31.5620168" lon="35.3625445">
<ele>190.479996</ele>
<time>2014-01-03T07:48:27.000Z</time>
</trkpt>
<trkpt lat="31.5618372" lon="35.3624529">
<ele>191.920013</ele>
<time>2014-01-03T07:48:37.000Z</time>
</trkpt>
<trkpt lat="31.5616401" lon="35.3624127">
<ele>193.359985</ele>
<time>2014-01-03T07:48:48.000Z</time>
</trkpt>
<trkpt lat="31.5615456" lon="35.3623635">
<ele>194.320007</ele>
<time>2014-01-03T07:48:55.000Z</time>
</trkpt>
<trkpt lat="31.5614782" lon="35.3622754">
<ele>194.320007</ele>
<time>2014-01-03T07:49:00.000Z</time>
</trkpt>
<trkpt lat="31.5613843" lon="35.3620344">
<ele>194.800003</ele>
<time>2014-01-03T07:49:10.000Z</time>
</trkpt>
<trkpt lat="31.5612493" lon="35.3618577">
<ele>195.770004</ele>
<time>2014-01-03T07:49:20.000Z</time>
</trkpt>
<trkpt lat="31.5611956" lon="35.3617624">
<ele>196.250000</ele>
<time>2014-01-03T07:49:25.000Z</time>
</trkpt>
<trkpt lat="31.5611725" lon="35.3616642">
<ele>196.250000</ele>
<time>2014-01-03T07:49:29.000Z</time>
</trkpt>
<trkpt lat="31.5609644" lon="35.3611451">
<ele>198.649994</ele>
<time>2014-01-03T07:49:54.000Z</time>
</trkpt>
<trkpt lat="31.5608984" lon="35.3609251">
<ele>199.130005</ele>
<time>2014-01-03T07:50:05.000Z</time>
</trkpt>
<trkpt lat="31.5607735" lon="35.3604750">
<ele>200.089996</ele>
<time>2014-01-03T07:50:25.000Z</time>
</trkpt>
<trkpt lat="31.5606039" lon="35.3596077">
<ele>203.460007</ele>
<time>2014-01-03T07:51:06.000Z</time>
</trkpt>
<trkpt lat="31.5605565" lon="35.3591188">
<ele>205.380005</ele>
<time>2014-01-03T07:51:29.000Z</time>
</trkpt>
<trkpt lat="31.5605935" lon="35.3585435">
<ele>204.420013</ele>
<time>2014-01-03T07:51:49.000Z</time>
</trkpt>
<trkpt lat="31.5605962" lon="35.3582832">
<ele>202.490005</ele>
<time>2014-01-03T07:51:55.000Z</time>
</trkpt>
<trkpt lat="31.5605136" lon="35.3580305">
<ele>202.009995</ele>
<time>2014-01-03T07:52:01.000Z</time>
</trkpt>
<trkpt lat="31.5605301" lon="35.3577877">
<ele>201.529999</ele>
<time>2014-01-03T07:52:09.000Z</time>
</trkpt>
<trkpt lat="31.5604954" lon="35.3573402">
<ele>203.460007</ele>
<time>2014-01-03T07:52:32.000Z</time>
</trkpt>
<trkpt lat="31.5604627" lon="35.3572333">
<ele>205.380005</ele>
<time>2014-01-03T07:52:40.000Z</time>
</trkpt>
<trkpt lat="31.5604154" lon="35.3571351">
<ele>206.820007</ele>
<time>2014-01-03T07:52:48.000Z</time>
</trkpt>
<trkpt lat="31.5603653" lon="35.3570496">
<ele>207.779999</ele>
<time>2014-01-03T07:52:56.000Z</time>
</trkpt>
<trkpt lat="31.5602985" lon="35.3569543">
<ele>209.219986</ele>
<time>2014-01-03T07:53:04.000Z</time>
</trkpt>
<trkpt lat="31.5600778" lon="35.3565977">
<ele>211.630005</ele>
<time>2014-01-03T07:53:32.000Z</time>
</trkpt>
<trkpt lat="31.5600195" lon="35.3565190">
<ele>212.589996</ele>
<time>2014-01-03T07:53:38.000Z</time>
</trkpt>
<trkpt lat="31.5599514" lon="35.3564410">
<ele>212.589996</ele>
<time>2014-01-03T07:53:44.000Z</time>
</trkpt>
<trkpt lat="31.5598933" lon="35.3563446">
<ele>213.070007</ele>
<time>2014-01-03T07:53:50.000Z</time>
</trkpt>
<trkpt lat="31.5598224" lon="35.3561197">
<ele>213.550003</ele>
<time>2014-01-03T07:53:58.000Z</time>
</trkpt>
<trkpt lat="31.5598023" lon="35.3555076">
<ele>214.990005</ele>
<time>2014-01-03T07:54:19.000Z</time>
</trkpt>
<trkpt lat="31.5598023" lon="35.3553885">
<ele>215.949997</ele>
<time>2014-01-03T07:54:25.000Z</time>
</trkpt>
<trkpt lat="31.5597784" lon="35.3552851">
<ele>216.910004</ele>
<time>2014-01-03T07:54:32.000Z</time>
</trkpt>
<trkpt lat="31.5598077" lon="35.3545782">
<ele>219.320007</ele>
<time>2014-01-03T07:55:04.000Z</time>
</trkpt>
<trkpt lat="31.5597803" lon="35.3542056">
<ele>220.279999</ele>
<time>2014-01-03T07:55:16.000Z</time>
</trkpt>
<trkpt lat="31.5596839" lon="35.3536291">
<ele>221.240005</ele>
<time>2014-01-03T07:55:36.000Z</time>
</trkpt>
<trkpt lat="31.5596644" lon="35.3534969">
<ele>220.279999</ele>
<time>2014-01-03T07:55:39.000Z</time>
</trkpt>
<trkpt lat="31.5596958" lon="35.3532618">
<ele>219.320007</ele>
<time>2014-01-03T07:55:43.000Z</time>
</trkpt>
<trkpt lat="31.5598848" lon="35.3527667">
<ele>217.399994</ele>
<time>2014-01-03T07:55:51.000Z</time>
</trkpt>
<trkpt lat="31.5599270" lon="35.3526578">
<ele>217.399994</ele>
<time>2014-01-03T07:55:53.000Z</time>
</trkpt>
<trkpt lat="31.5599811" lon="35.3525582">
<ele>217.399994</ele>
<time>2014-01-03T07:55:55.000Z</time>
</trkpt>
<trkpt lat="31.5600492" lon="35.3524650">
<ele>216.430008</ele>
<time>2014-01-03T07:55:57.000Z</time>
</trkpt>
<trkpt lat="31.5600955" lon="35.3523595">
<ele>216.430008</ele>
<time>2014-01-03T07:55:59.000Z</time>
</trkpt>
<trkpt lat="31.5602335" lon="35.3518122">
<ele>218.359985</ele>
<time>2014-01-03T07:56:22.000Z</time>
</trkpt>
<trkpt lat="31.5602793" lon="35.3517024">
<ele>218.839996</ele>
<time>2014-01-03T07:56:29.000Z</time>
</trkpt>
<trkpt lat="31.5604657" lon="35.3514330">
<ele>220.279999</ele>
<time>2014-01-03T07:56:47.000Z</time>
</trkpt>
<trkpt lat="31.5605634" lon="35.3512370">
<ele>220.759995</ele>
<time>2014-01-03T07:56:57.000Z</time>
</trkpt>
<trkpt lat="31.5606216" lon="35.3511503">
<ele>220.759995</ele>
<time>2014-01-03T07:57:02.000Z</time>
</trkpt>
<trkpt lat="31.5606964" lon="35.3510837">
<ele>221.240005</ele>
<time>2014-01-03T07:57:07.000Z</time>
</trkpt>
<trkpt lat="31.5608292" lon="35.3509278">
<ele>221.719986</ele>
<time>2014-01-03T07:57:17.000Z</time>
</trkpt>
<trkpt lat="31.5609390" lon="35.3507526">
<ele>222.680008</ele>
<time>2014-01-03T07:57:27.000Z</time>
</trkpt>
<trkpt lat="31.5610766" lon="35.3503057">
<ele>224.609985</ele>
<time>2014-01-03T07:57:50.000Z</time>
</trkpt>
<trkpt lat="31.5611032" lon="35.3499202">
<ele>225.089996</ele>
<time>2014-01-03T07:58:05.000Z</time>
</trkpt>
<trkpt lat="31.5611004" lon="35.3496772">
<ele>225.570007</ele>
<time>2014-01-03T07:58:15.000Z</time>
</trkpt>
<trkpt lat="31.5610019" lon="35.3491031">
<ele>227.009995</ele>
<time>2014-01-03T07:58:40.000Z</time>
</trkpt>
<trkpt lat="31.5609683" lon="35.3485377">
<ele>225.570007</ele>
<time>2014-01-03T07:59:01.000Z</time>
</trkpt>
<trkpt lat="31.5609994" lon="35.3482783">
<ele>224.119995</ele>
<time>2014-01-03T07:59:08.000Z</time>
</trkpt>
<trkpt lat="31.5609689" lon="35.3481564">
<ele>223.639999</ele>
<time>2014-01-03T07:59:12.000Z</time>
</trkpt>
<trkpt lat="31.5609997" lon="35.3479290">
<ele>225.570007</ele>
<time>2014-01-03T07:59:26.000Z</time>
</trkpt>
<trkpt lat="31.5609971" lon="35.3475866">
<ele>227.969986</ele>
<time>2014-01-03T07:59:47.000Z</time>
</trkpt>
<trkpt lat="31.5610222" lon="35.3473537">
<ele>228.449997</ele>
<time>2014-01-03T08:00:00.000Z</time>
</trkpt>
<trkpt lat="31.5610605" lon="35.3471247">
<ele>228.930008</ele>
<time>2014-01-03T08:00:11.000Z</time>
</trkpt>
<trkpt lat="31.5610939" lon="35.3470079">
<ele>229.410004</ele>
<time>2014-01-03T08:00:17.000Z</time>
</trkpt>
<trkpt lat="31.5610817" lon="35.3468989">
<ele>229.410004</ele>
<time>2014-01-03T08:00:22.000Z</time>
</trkpt>
<trkpt lat="31.5609551" lon="35.3467323">
<ele>229.889999</ele>
<time>2014-01-03T08:00:30.000Z</time>
</trkpt>
<trkpt lat="31.5607274" lon="35.3465055">
<ele>230.369995</ele>
<time>2014-01-03T08:00:42.000Z</time>
</trkpt>
<trkpt lat="31.5605306" lon="35.3461965">
<ele>230.369995</ele>
<time>2014-01-03T08:00:54.000Z</time>
</trkpt>
<trkpt lat="31.5604585" lon="35.3459476">
<ele>230.850006</ele>
<time>2014-01-03T08:01:02.000Z</time>
</trkpt>
<trkpt lat="31.5603339" lon="35.3451965">
<ele>231.809998</ele>
<time>2014-01-03T08:01:26.000Z</time>
</trkpt>
<trkpt lat="31.5602058" lon="35.3447174">
<ele>232.779999</ele>
<time>2014-01-03T08:01:42.000Z</time>
</trkpt>
<trkpt lat="31.5601060" lon="35.3442453">
<ele>234.219986</ele>
<time>2014-01-03T08:01:58.000Z</time>
</trkpt>
<trkpt lat="31.5598575" lon="35.3434337">
<ele>235.180008</ele>
<time>2014-01-03T08:02:26.000Z</time>
</trkpt>
<trkpt lat="31.5596543" lon="35.3431142">
<ele>234.219986</ele>
<time>2014-01-03T08:02:36.000Z</time>
</trkpt>
<trkpt lat="31.5594170" lon="35.3428022">
<ele>233.259995</ele>
<time>2014-01-03T08:02:45.000Z</time>
</trkpt>
<trkpt lat="31.5591256" lon="35.3424295">
<ele>234.699997</ele>
<time>2014-01-03T08:03:12.000Z</time>
</trkpt>
<trkpt lat="31.5590120" lon="35.3421206">
<ele>237.100006</ele>
<time>2014-01-03T08:03:32.000Z</time>
</trkpt>
<trkpt lat="31.5587817" lon="35.3416367">
<ele>240.469986</ele>
<time>2014-01-03T08:04:07.000Z</time>
</trkpt>
<trkpt lat="31.5586673" lon="35.3414443">
<ele>241.430008</ele>
<time>2014-01-03T08:04:21.000Z</time>
</trkpt>
<trkpt lat="31.5585912" lon="35.3413637">
<ele>241.910004</ele>
<time>2014-01-03T08:04:28.000Z</time>
</trkpt>
<trkpt lat="31.5585065" lon="35.3413024">
<ele>241.910004</ele>
<time>2014-01-03T08:04:35.000Z</time>
</trkpt>
<trkpt lat="31.5583953" lon="35.3411195">
<ele>242.869995</ele>
<time>2014-01-03T08:04:49.000Z</time>
</trkpt>
<trkpt lat="31.5583217" lon="35.3410428">
<ele>243.829987</ele>
<time>2014-01-03T08:04:56.000Z</time>
</trkpt>
<trkpt lat="31.5582393" lon="35.3409985">
<ele>244.309998</ele>
<time>2014-01-03T08:05:02.000Z</time>
</trkpt>
<trkpt lat="31.5581844" lon="35.3409336">
<ele>245.269989</ele>
<time>2014-01-03T08:05:10.000Z</time>
</trkpt>
<trkpt lat="31.5580659" lon="35.3407473">
<ele>245.269989</ele>
<time>2014-01-03T08:05:22.000Z</time>
</trkpt>
<trkpt lat="31.5579996" lon="35.3406665">
<ele>246.229996</ele>
<time>2014-01-03T08:05:28.000Z</time>
</trkpt>
<trkpt lat="31.5579594" lon="35.3405342">
<ele>247.680008</ele>
<time>2014-01-03T08:06:10.000Z</time>
</trkpt>
<trkpt lat="31.5577665" lon="35.3401966">
<ele>248.160004</ele>
<time>2014-01-03T08:06:30.000Z</time>
</trkpt>
<trkpt lat="31.5576450" lon="35.3400218">
<ele>248.160004</ele>
<time>2014-01-03T08:06:38.000Z</time>
</trkpt>
<trkpt lat="31.5575748" lon="35.3399222">
<ele>248.639999</ele>
<time>2014-01-03T08:06:43.000Z</time>
</trkpt>
<trkpt lat="31.5573613" lon="35.3397001">
<ele>249.119995</ele>
<time>2014-01-03T08:06:55.000Z</time>
</trkpt>
<trkpt lat="31.5571040" lon="35.3392388">
<ele>249.600006</ele>
<time>2014-01-03T08:07:41.000Z</time>
</trkpt>
<trkpt lat="31.5570454" lon="35.3391510">
<ele>248.639999</ele>
<time>2014-01-03T08:07:45.000Z</time>
</trkpt>
<trkpt lat="31.5568617" lon="35.3390386">
<ele>246.229996</ele>
<time>2014-01-03T08:07:55.000Z</time>
</trkpt>
<trkpt lat="31.5566802" lon="35.3389902">
<ele>243.829987</ele>
<time>2014-01-03T08:08:19.000Z</time>
</trkpt>
<trkpt lat="31.5565306" lon="35.3389106">
<ele>245.269989</ele>
<time>2014-01-03T08:09:19.000Z</time>
</trkpt>
<trkpt lat="31.5563873" lon="35.3387763">
<ele>247.680008</ele>
<time>2014-01-03T08:09:41.000Z</time>
</trkpt>
<trkpt lat="31.5563236" lon="35.3387220">
<ele>248.160004</ele>
<time>2014-01-03T08:10:01.000Z</time>
</trkpt>
<trkpt lat="31.5561764" lon="35.3385641">
<ele>248.639999</ele>
<time>2014-01-03T08:10:11.000Z</time>
</trkpt>
<trkpt lat="31.5560249" lon="35.3384133">
<ele>248.639999</ele>
<time>2014-01-03T08:10:19.000Z</time>
</trkpt>
<trkpt lat="31.5559558" lon="35.3383220">
<ele>248.639999</ele>
<time>2014-01-03T08:10:23.000Z</time>
</trkpt>
<trkpt lat="31.5558739" lon="35.3382495">
<ele>249.119995</ele>
<time>2014-01-03T08:10:27.000Z</time>
</trkpt>
<trkpt lat="31.5557910" lon="35.3382121">
<ele>249.600006</ele>
<time>2014-01-03T08:10:31.000Z</time>
</trkpt>
<trkpt lat="31.5555141" lon="35.3381217">
<ele>250.079987</ele>
<time>2014-01-03T08:10:43.000Z</time>
</trkpt>
<trkpt lat="31.5553705" lon="35.3379715">
<ele>250.559998</ele>
<time>2014-01-03T08:10:52.000Z</time>
</trkpt>
<trkpt lat="31.5551145" lon="35.3378153">
<ele>252.960007</ele>
<time>2014-01-03T08:11:12.000Z</time>
</trkpt>
<trkpt lat="31.5548360" lon="35.3377349">
<ele>253.930008</ele>
<time>2014-01-03T08:11:30.000Z</time>
</trkpt>
<trkpt lat="31.5547470" lon="35.3377357">
<ele>253.930008</ele>
<time>2014-01-03T08:11:35.000Z</time>
</trkpt>
<trkpt lat="31.5539271" lon="35.3374178">
<ele>257.769989</ele>
<time>2014-01-03T08:12:28.000Z</time>
</trkpt>
<trkpt lat="31.5536312" lon="35.3373622">
<ele>260.649994</ele>
<time>2014-01-03T08:12:50.000Z</time>
</trkpt>
<trkpt lat="31.5533546" lon="35.3373961">
<ele>264.019989</ele>
<time>2014-01-03T08:13:15.000Z</time>
</trkpt>
<trkpt lat="31.5529817" lon="35.3374753">
<ele>268.829987</ele>
<time>2014-01-03T08:13:52.000Z</time>
</trkpt>
<trkpt lat="31.5528883" lon="35.3374635">
<ele>270.269989</ele>
<time>2014-01-03T08:14:01.000Z</time>
</trkpt>
<trkpt lat="31.5527963" lon="35.3374121">
<ele>271.229980</ele>
<time>2014-01-03T08:14:10.000Z</time>
</trkpt>
<trkpt lat="31.5527264" lon="35.3373396">
<ele>271.709991</ele>
<time>2014-01-03T08:14:18.000Z</time>
</trkpt>
<trkpt lat="31.5526872" lon="35.3371415">
<ele>272.190002</ele>
<time>2014-01-03T08:14:34.000Z</time>
</trkpt>
<trkpt lat="31.5527274" lon="35.3367742">
<ele>271.709991</ele>
<time>2014-01-03T08:14:48.000Z</time>
</trkpt>
<trkpt lat="31.5527695" lon="35.3365316">
<ele>271.709991</ele>
<time>2014-01-03T08:14:56.000Z</time>
</trkpt>
<trkpt lat="31.5528200" lon="35.3357500">
<ele>268.350006</ele>
<time>2014-01-03T08:15:12.000Z</time>
</trkpt>
<trkpt lat="31.5528004" lon="35.3356364">
<ele>267.380005</ele>
<time>2014-01-03T08:15:14.000Z</time>
</trkpt>
<trkpt lat="31.5527117" lon="35.3355592">
<ele>267.380005</ele>
<time>2014-01-03T08:15:17.000Z</time>
</trkpt>
<trkpt lat="31.5526489" lon="35.3355919">
<ele>267.860016</ele>
<time>2014-01-03T08:18:55.000Z</time>
</trkpt>
<trkpt lat="31.5524461" lon="35.3355592">
<ele>268.350006</ele>
<time>2014-01-03T08:19:08.000Z</time>
</trkpt>
<trkpt lat="31.5522136" lon="35.3355775">
<ele>268.350006</ele>
<time>2014-01-03T08:19:18.000Z</time>
</trkpt>
<trkpt lat="31.5519189" lon="35.3357728">
<ele>267.860016</ele>
<time>2014-01-03T08:19:30.000Z</time>
</trkpt>
<trkpt lat="31.5517262" lon="35.3358444">
<ele>266.420013</ele>
<time>2014-01-03T08:19:35.000Z</time>
</trkpt>
<trkpt lat="31.5514748" lon="35.3358518">
<ele>264.979980</ele>
<time>2014-01-03T08:19:39.000Z</time>
</trkpt>
<trkpt lat="31.5510148" lon="35.3357850">
<ele>264.019989</ele>
<time>2014-01-03T08:19:47.000Z</time>
</trkpt>
<trkpt lat="31.5507124" lon="35.3356853">
<ele>264.500000</ele>
<time>2014-01-03T08:19:56.000Z</time>
</trkpt>
<trkpt lat="31.5505270" lon="35.3357447">
<ele>264.500000</ele>
<time>2014-01-03T08:20:01.000Z</time>
</trkpt>
<trkpt lat="31.5503808" lon="35.3357072">
<ele>264.979980</ele>
<time>2014-01-03T08:20:06.000Z</time>
</trkpt>
<trkpt lat="31.5501430" lon="35.3356052">
<ele>265.459991</ele>
<time>2014-01-03T08:20:16.000Z</time>
</trkpt>
<trkpt lat="31.5499008" lon="35.3354550">
<ele>265.940002</ele>
<time>2014-01-03T08:20:38.000Z</time>
</trkpt>
<trkpt lat="31.5496310" lon="35.3352565">
<ele>264.500000</ele>
<time>2014-01-03T08:22:10.000Z</time>
</trkpt>
<trkpt lat="31.5495213" lon="35.3351761">
<ele>264.019989</ele>
<time>2014-01-03T08:22:21.000Z</time>
</trkpt>
<trkpt lat="31.5494060" lon="35.3350927">
<ele>264.979980</ele>
<time>2014-01-03T08:22:46.000Z</time>
</trkpt>
<trkpt lat="31.5491341" lon="35.3349583">
<ele>265.940002</ele>
<time>2014-01-03T08:23:11.000Z</time>
</trkpt>
<trkpt lat="31.5489431" lon="35.3349378">
<ele>266.420013</ele>
<time>2014-01-03T08:23:25.000Z</time>
</trkpt>
<trkpt lat="31.5488487" lon="35.3348882">
<ele>266.420013</ele>
<time>2014-01-03T08:23:32.000Z</time>
</trkpt>
<trkpt lat="31.5487585" lon="35.3348042">
<ele>265.940002</ele>
<time>2014-01-03T08:23:37.000Z</time>
</trkpt>
<trkpt lat="31.5486759" lon="35.3347412">
<ele>265.940002</ele>
<time>2014-01-03T08:23:42.000Z</time>
</trkpt>
<trkpt lat="31.5485864" lon="35.3347087">
<ele>265.940002</ele>
<time>2014-01-03T08:23:48.000Z</time>
</trkpt>
<trkpt lat="31.5484177" lon="35.3346151">
<ele>266.420013</ele>
<time>2014-01-03T08:24:00.000Z</time>
</trkpt>
<trkpt lat="31.5483331" lon="35.3345573">
<ele>266.420013</ele>
<time>2014-01-03T08:24:07.000Z</time>
</trkpt>
<trkpt lat="31.5482593" lon="35.3344704">
<ele>266.899994</ele>
<time>2014-01-03T08:24:15.000Z</time>
</trkpt>
<trkpt lat="31.5481043" lon="35.3343453">
<ele>266.899994</ele>
<time>2014-01-03T08:24:27.000Z</time>
</trkpt>
<trkpt lat="31.5480092" lon="35.3342990">
<ele>267.380005</ele>
<time>2014-01-03T08:24:33.000Z</time>
</trkpt>
<trkpt lat="31.5479121" lon="35.3342929">
<ele>267.380005</ele>
<time>2014-01-03T08:24:39.000Z</time>
</trkpt>
<trkpt lat="31.5477641" lon="35.3343746">
<ele>267.860016</ele>
<time>2014-01-03T08:25:05.000Z</time>
</trkpt>
<trkpt lat="31.5475740" lon="35.3344213">
<ele>268.350006</ele>
<time>2014-01-03T08:25:50.000Z</time>
</trkpt>
<trkpt lat="31.5473086" lon="35.3345043">
<ele>268.829987</ele>
<time>2014-01-03T08:26:06.000Z</time>
</trkpt>
<trkpt lat="31.5470457" lon="35.3346571">
<ele>268.829987</ele>
<time>2014-01-03T08:26:23.000Z</time>
</trkpt>
<trkpt lat="31.5467941" lon="35.3348286">
<ele>269.309998</ele>
<time>2014-01-03T08:26:40.000Z</time>
</trkpt>
<trkpt lat="31.5466069" lon="35.3348437">
<ele>269.790009</ele>
<time>2014-01-03T08:26:52.000Z</time>
</trkpt>
<trkpt lat="31.5460427" lon="35.3350516">
<ele>271.709991</ele>
<time>2014-01-03T08:27:47.000Z</time>
</trkpt>
<trkpt lat="31.5459955" lon="35.3351636">
<ele>272.190002</ele>
<time>2014-01-03T08:27:58.000Z</time>
</trkpt>
<trkpt lat="31.5459363" lon="35.3352547">
<ele>272.190002</ele>
<time>2014-01-03T08:28:04.000Z</time>
</trkpt>
<trkpt lat="31.5457870" lon="35.3354237">
<ele>272.190002</ele>
<time>2014-01-03T08:28:16.000Z</time>
</trkpt>
<trkpt lat="31.5456911" lon="35.3354744">
<ele>272.670013</ele>
<time>2014-01-03T08:28:22.000Z</time>
</trkpt>
<trkpt lat="31.5455007" lon="35.3355208">
<ele>272.670013</ele>
<time>2014-01-03T08:28:34.000Z</time>
</trkpt>
<trkpt lat="31.5454694" lon="35.3354621">
<ele>274.589996</ele>
<time>2014-01-03T08:34:27.000Z</time>
</trkpt>
<trkpt lat="31.5455750" lon="35.3349440">
<ele>280.360016</ele>
<time>2014-01-03T08:35:35.000Z</time>
</trkpt>
<trkpt lat="31.5455166" lon="35.3348614">
<ele>281.800018</ele>
<time>2014-01-03T08:35:42.000Z</time>
</trkpt>
<trkpt lat="31.5453850" lon="35.3347077">
<ele>282.279999</ele>
<time>2014-01-03T08:35:54.000Z</time>
</trkpt>
<trkpt lat="31.5453033" lon="35.3346249">
<ele>283.250000</ele>
<time>2014-01-03T08:36:00.000Z</time>
</trkpt>
<trkpt lat="31.5452218" lon="35.3345724">
<ele>283.250000</ele>
<time>2014-01-03T08:36:05.000Z</time>
</trkpt>
<trkpt lat="31.5450433" lon="35.3344376">
<ele>283.729980</ele>
<time>2014-01-03T08:36:15.000Z</time>
</trkpt>
<trkpt lat="31.5448807" lon="35.3342706">
<ele>284.209991</ele>
<time>2014-01-03T08:36:25.000Z</time>
</trkpt>
<trkpt lat="31.5447999" lon="35.3341823">
<ele>284.690002</ele>
<time>2014-01-03T08:36:30.000Z</time>
</trkpt>
<trkpt lat="31.5447255" lon="35.3340879">
<ele>284.690002</ele>
<time>2014-01-03T08:36:35.000Z</time>
</trkpt>
<trkpt lat="31.5445455" lon="35.3338038">
<ele>285.649994</ele>
<time>2014-01-03T08:36:49.000Z</time>
</trkpt>
<trkpt lat="31.5444044" lon="35.3336559">
<ele>286.130005</ele>
<time>2014-01-03T08:36:59.000Z</time>
</trkpt>
<trkpt lat="31.5443437" lon="35.3335709">
<ele>286.610016</ele>
<time>2014-01-03T08:37:05.000Z</time>
</trkpt>
<trkpt lat="31.5441689" lon="35.3332857">
<ele>289.010010</ele>
<time>2014-01-03T08:40:34.000Z</time>
</trkpt>
<trkpt lat="31.5440575" lon="35.3331354">
<ele>289.010010</ele>
<time>2014-01-03T08:40:42.000Z</time>
</trkpt>
<trkpt lat="31.5440086" lon="35.3330327">
<ele>289.489990</ele>
<time>2014-01-03T08:40:48.000Z</time>
</trkpt>
<trkpt lat="31.5437288" lon="35.3324363">
<ele>289.010010</ele>
<time>2014-01-03T08:41:13.000Z</time>
</trkpt>
<trkpt lat="31.5435067" lon="35.3318241">
<ele>287.570007</ele>
<time>2014-01-03T08:41:31.000Z</time>
</trkpt>
<trkpt lat="31.5434687" lon="35.3315634">
<ele>285.649994</ele>
<time>2014-01-03T08:41:37.000Z</time>
</trkpt>
<trkpt lat="31.5434650" lon="35.3314226">
<ele>285.649994</ele>
<time>2014-01-03T08:41:40.000Z</time>
</trkpt>
<trkpt lat="31.5436801" lon="35.3300741">
<ele>289.970001</ele>
<time>2014-01-03T08:42:33.000Z</time>
</trkpt>
<trkpt lat="31.5437340" lon="35.3295035">
<ele>290.459991</ele>
<time>2014-01-03T08:42:53.000Z</time>
</trkpt>
<trkpt lat="31.5436845" lon="35.3285433">
<ele>291.419983</ele>
<time>2014-01-03T08:43:27.000Z</time>
</trkpt>
<trkpt lat="31.5437233" lon="35.3283151">
<ele>293.820007</ele>
<time>2014-01-03T08:43:39.000Z</time>
</trkpt>
<trkpt lat="31.5439211" lon="35.3278999">
<ele>292.860016</ele>
<time>2014-01-03T08:43:58.000Z</time>
</trkpt>
<trkpt lat="31.5439766" lon="35.3276691">
<ele>293.820007</ele>
<time>2014-01-03T08:44:08.000Z</time>
</trkpt>
<trkpt lat="31.5439801" lon="35.3275490">
<ele>294.779999</ele>
<time>2014-01-03T08:44:15.000Z</time>
</trkpt>
<trkpt lat="31.5439552" lon="35.3271134">
<ele>297.179993</ele>
<time>2014-01-03T08:44:42.000Z</time>
</trkpt>
<trkpt lat="31.5439663" lon="35.3268990">
<ele>298.149994</ele>
<time>2014-01-03T08:44:54.000Z</time>
</trkpt>
<trkpt lat="31.5439624" lon="35.3265055">
<ele>299.110016</ele>
<time>2014-01-03T08:45:12.000Z</time>
</trkpt>
<trkpt lat="31.5440091" lon="35.3261912">
<ele>300.550018</ele>
<time>2014-01-03T08:46:15.000Z</time>
</trkpt>
<trkpt lat="31.5439543" lon="35.3256904">
<ele>300.070007</ele>
<time>2014-01-03T08:46:31.000Z</time>
</trkpt>
<trkpt lat="31.5439213" lon="35.3255699">
<ele>299.589996</ele>
<time>2014-01-03T08:46:35.000Z</time>
</trkpt>
<trkpt lat="31.5438379" lon="35.3253717">
<ele>297.179993</ele>
<time>2014-01-03T08:46:43.000Z</time>
</trkpt>
<trkpt lat="31.5435561" lon="35.3251959">
<ele>298.149994</ele>
<time>2014-01-03T08:46:59.000Z</time>
</trkpt>
<trkpt lat="31.5434509" lon="35.3251488">
<ele>298.630005</ele>
<time>2014-01-03T08:47:04.000Z</time>
</trkpt>
<trkpt lat="31.5432686" lon="35.3250272">
<ele>298.630005</ele>
<time>2014-01-03T08:47:14.000Z</time>
</trkpt>
<trkpt lat="31.5430906" lon="35.3248932">
<ele>298.630005</ele>
<time>2014-01-03T08:47:24.000Z</time>
</trkpt>
<trkpt lat="31.5430221" lon="35.3248108">
<ele>299.110016</ele>
<time>2014-01-03T08:47:29.000Z</time>
</trkpt>
<trkpt lat="31.5429691" lon="35.3247048">
<ele>299.110016</ele>
<time>2014-01-03T08:47:34.000Z</time>
</trkpt>
<trkpt lat="31.5428358" lon="35.3245057">
<ele>300.070007</ele>
<time>2014-01-03T08:47:45.000Z</time>
</trkpt>
<trkpt lat="31.5427581" lon="35.3244469">
<ele>300.070007</ele>
<time>2014-01-03T08:47:50.000Z</time>
</trkpt>
<trkpt lat="31.5425204" lon="35.3242077">
<ele>300.550018</ele>
<time>2014-01-03T08:48:06.000Z</time>
</trkpt>
<trkpt lat="31.5422864" lon="35.3239997">
<ele>300.550018</ele>
<time>2014-01-03T08:48:24.000Z</time>
</trkpt>
<trkpt lat="31.5421193" lon="35.3238826">
<ele>301.989990</ele>
<time>2014-01-03T08:48:36.000Z</time>
</trkpt>
<trkpt lat="31.5416736" lon="35.3237249">
<ele>302.949982</ele>
<time>2014-01-03T08:49:06.000Z</time>
</trkpt>
<trkpt lat="31.5415306" lon="35.3235934">
<ele>303.429993</ele>
<time>2014-01-03T08:49:19.000Z</time>
</trkpt>
<trkpt lat="31.5414605" lon="35.3235589">
<ele>303.910004</ele>
<time>2014-01-03T08:49:32.000Z</time>
</trkpt>
<trkpt lat="31.5412790" lon="35.3235861">
<ele>305.839996</ele>
<time>2014-01-03T08:50:02.000Z</time>
</trkpt>
<trkpt lat="31.5411226" lon="35.3236509">
<ele>306.320007</ele>
<time>2014-01-03T08:51:54.000Z</time>
</trkpt>
<trkpt lat="31.5410274" lon="35.3236721">
<ele>308.239990</ele>
<time>2014-01-03T08:52:00.000Z</time>
</trkpt>
<trkpt lat="31.5408307" lon="35.3236583">
<ele>309.199982</ele>
<time>2014-01-03T08:52:13.000Z</time>
</trkpt>
<trkpt lat="31.5407337" lon="35.3235949">
<ele>310.160004</ele>
<time>2014-01-03T08:52:19.000Z</time>
</trkpt>
<trkpt lat="31.5406609" lon="35.3235322">
<ele>310.160004</ele>
<time>2014-01-03T08:52:24.000Z</time>
</trkpt>
<trkpt lat="31.5405043" lon="35.3233692">
<ele>309.199982</ele>
<time>2014-01-03T08:52:33.000Z</time>
</trkpt>
<trkpt lat="31.5402832" lon="35.3230915">
<ele>309.199982</ele>
<time>2014-01-03T08:52:46.000Z</time>
</trkpt>
<trkpt lat="31.5402152" lon="35.3230046">
<ele>309.199982</ele>
<time>2014-01-03T08:52:51.000Z</time>
</trkpt>
<trkpt lat="31.5400609" lon="35.3228694">
<ele>309.199982</ele>
<time>2014-01-03T08:53:01.000Z</time>
</trkpt>
<trkpt lat="31.5400030" lon="35.3227757">
<ele>309.199982</ele>
<time>2014-01-03T08:53:06.000Z</time>
</trkpt>
<trkpt lat="31.5399185" lon="35.3225694">
<ele>309.679993</ele>
<time>2014-01-03T08:53:17.000Z</time>
</trkpt>
<trkpt lat="31.5398393" lon="35.3224900">
<ele>309.679993</ele>
<time>2014-01-03T08:53:23.000Z</time>
</trkpt>
<trkpt lat="31.5396594" lon="35.3224124">
<ele>310.160004</ele>
<time>2014-01-03T08:53:34.000Z</time>
</trkpt>
<trkpt lat="31.5394808" lon="35.3224201">
<ele>310.639984</ele>
<time>2014-01-03T08:53:44.000Z</time>
</trkpt>
<trkpt lat="31.5390718" lon="35.3225071">
<ele>311.119995</ele>
<time>2014-01-03T08:54:08.000Z</time>
</trkpt>
<trkpt lat="31.5386866" lon="35.3226729">
<ele>312.089996</ele>
<time>2014-01-03T08:54:32.000Z</time>
</trkpt>
<trkpt lat="31.5385061" lon="35.3227780">
<ele>312.089996</ele>
<time>2014-01-03T08:54:44.000Z</time>
</trkpt>
<trkpt lat="31.5384278" lon="35.3228479">
<ele>312.569977</ele>
<time>2014-01-03T08:54:50.000Z</time>
</trkpt>
<trkpt lat="31.5382395" lon="35.3229542">
<ele>313.049988</ele>
<time>2014-01-03T08:55:02.000Z</time>
</trkpt>
<trkpt lat="31.5380606" lon="35.3230279">
<ele>313.049988</ele>
<time>2014-01-03T08:55:13.000Z</time>
</trkpt>
<trkpt lat="31.5379661" lon="35.3230399">
<ele>313.529999</ele>
<time>2014-01-03T08:55:19.000Z</time>
</trkpt>
<trkpt lat="31.5377930" lon="35.3231406">
<ele>314.010010</ele>
<time>2014-01-03T08:55:29.000Z</time>
</trkpt>
<trkpt lat="31.5375248" lon="35.3232506">
<ele>314.490021</ele>
<time>2014-01-03T08:55:44.000Z</time>
</trkpt>
<trkpt lat="31.5374426" lon="35.3232981">
<ele>314.490021</ele>
<time>2014-01-03T08:55:49.000Z</time>
</trkpt>
<trkpt lat="31.5368855" lon="35.3235841">
<ele>315.449982</ele>
<time>2014-01-03T08:56:20.000Z</time>
</trkpt>
<trkpt lat="31.5363421" lon="35.3238885">
<ele>315.929993</ele>
<time>2014-01-03T08:56:56.000Z</time>
</trkpt>
<trkpt lat="31.5362585" lon="35.3239981">
<ele>316.890015</ele>
<time>2014-01-03T09:04:39.000Z</time>
</trkpt>
<trkpt lat="31.5361261" lon="35.3241150">
<ele>316.890015</ele>
<time>2014-01-03T09:05:32.000Z</time>
</trkpt>
<trkpt lat="31.5359018" lon="35.3243699">
<ele>317.850006</ele>
<time>2014-01-03T09:05:49.000Z</time>
</trkpt>
<trkpt lat="31.5356443" lon="35.3245137">
<ele>319.779999</ele>
<time>2014-01-03T09:06:06.000Z</time>
</trkpt>
<trkpt lat="31.5355476" lon="35.3245514">
<ele>319.779999</ele>
<time>2014-01-03T09:06:12.000Z</time>
</trkpt>
<trkpt lat="31.5354552" lon="35.3245482">
<ele>320.260010</ele>
<time>2014-01-03T09:06:18.000Z</time>
</trkpt>
<trkpt lat="31.5349115" lon="35.3242988">
<ele>320.740021</ele>
<time>2014-01-03T09:06:50.000Z</time>
</trkpt>
<trkpt lat="31.5348456" lon="35.3242248">
<ele>320.260010</ele>
<time>2014-01-03T09:06:55.000Z</time>
</trkpt>
<trkpt lat="31.5346869" lon="35.3240657">
<ele>320.740021</ele>
<time>2014-01-03T09:07:07.000Z</time>
</trkpt>
<trkpt lat="31.5346083" lon="35.3240151">
<ele>321.219971</ele>
<time>2014-01-03T09:07:12.000Z</time>
</trkpt>
<trkpt lat="31.5344065" lon="35.3239467">
<ele>321.219971</ele>
<time>2014-01-03T09:07:22.000Z</time>
</trkpt>
<trkpt lat="31.5341933" lon="35.3239368">
<ele>322.179993</ele>
<time>2014-01-03T09:07:32.000Z</time>
</trkpt>
<trkpt lat="31.5339913" lon="35.3238985">
<ele>322.179993</ele>
<time>2014-01-03T09:07:42.000Z</time>
</trkpt>
<trkpt lat="31.5338946" lon="35.3238999">
<ele>322.660004</ele>
<time>2014-01-03T09:07:47.000Z</time>
</trkpt>
<trkpt lat="31.5337250" lon="35.3239993">
<ele>323.619995</ele>
<time>2014-01-03T09:07:58.000Z</time>
</trkpt>
<trkpt lat="31.5336758" lon="35.3240911">
<ele>324.100006</ele>
<time>2014-01-03T09:08:04.000Z</time>
</trkpt>
<trkpt lat="31.5336054" lon="35.3241725">
<ele>325.059998</ele>
<time>2014-01-03T09:08:11.000Z</time>
</trkpt>
<trkpt lat="31.5335247" lon="35.3242282">
<ele>327.469971</ele>
<time>2014-01-03T09:08:19.000Z</time>
</trkpt>
<trkpt lat="31.5334608" lon="35.3243028">
<ele>328.429993</ele>
<time>2014-01-03T09:08:27.000Z</time>
</trkpt>
<trkpt lat="31.5333001" lon="35.3244077">
<ele>329.869995</ele>
<time>2014-01-03T09:08:42.000Z</time>
</trkpt>
<trkpt lat="31.5332190" lon="35.3244292">
<ele>330.350006</ele>
<time>2014-01-03T09:08:49.000Z</time>
</trkpt>
<trkpt lat="31.5331307" lon="35.3244814">
<ele>331.790009</ele>
<time>2014-01-03T09:08:57.000Z</time>
</trkpt>
<trkpt lat="31.5330278" lon="35.3244785">
<ele>331.790009</ele>
<time>2014-01-03T09:09:04.000Z</time>
</trkpt>
<trkpt lat="31.5328547" lon="35.3245240">
<ele>334.199982</ele>
<time>2014-01-03T09:09:19.000Z</time>
</trkpt>
<trkpt lat="31.5325628" lon="35.3244987">
<ele>335.160004</ele>
<time>2014-01-03T09:09:40.000Z</time>
</trkpt>
<trkpt lat="31.5321671" lon="35.3243895">
<ele>336.119995</ele>
<time>2014-01-03T09:09:57.000Z</time>
</trkpt>
<trkpt lat="31.5317586" lon="35.3242326">
<ele>334.679993</ele>
<time>2014-01-03T09:10:12.000Z</time>
</trkpt>
<trkpt lat="31.5316777" lon="35.3241725">
<ele>334.199982</ele>
<time>2014-01-03T09:10:14.000Z</time>
</trkpt>
<trkpt lat="31.5315886" lon="35.3239763">
<ele>335.160004</ele>
<time>2014-01-03T09:10:20.000Z</time>
</trkpt>
<trkpt lat="31.5315216" lon="35.3238468">
<ele>335.160004</ele>
<time>2014-01-03T09:10:24.000Z</time>
</trkpt>
<trkpt lat="31.5314393" lon="35.3237400">
<ele>333.230011</ele>
<time>2014-01-03T09:10:26.000Z</time>
</trkpt>
<trkpt lat="31.5313365" lon="35.3236529">
<ele>334.679993</ele>
<time>2014-01-03T09:10:29.000Z</time>
</trkpt>
<trkpt lat="31.5312523" lon="35.3236067">
<ele>334.679993</ele>
<time>2014-01-03T09:10:32.000Z</time>
</trkpt>
<trkpt lat="31.5309657" lon="35.3234927">
<ele>335.160004</ele>
<time>2014-01-03T09:10:44.000Z</time>
</trkpt>
<trkpt lat="31.5303286" lon="35.3233326">
<ele>333.710022</ele>
<time>2014-01-03T09:11:03.000Z</time>
</trkpt>
<trkpt lat="31.5298659" lon="35.3234871">
<ele>337.559998</ele>
<time>2014-01-03T09:11:31.000Z</time>
</trkpt>
<trkpt lat="31.5295738" lon="35.3236118">
<ele>338.519989</ele>
<time>2014-01-03T09:11:48.000Z</time>
</trkpt>
<trkpt lat="31.5294037" lon="35.3237359">
<ele>339.000000</ele>
<time>2014-01-03T09:11:57.000Z</time>
</trkpt>
<trkpt lat="31.5293223" lon="35.3237948">
<ele>339.000000</ele>
<time>2014-01-03T09:12:01.000Z</time>
</trkpt>
<trkpt lat="31.5291117" lon="35.3240589">
<ele>339.960022</ele>
<time>2014-01-03T09:12:14.000Z</time>
</trkpt>
<trkpt lat="31.5289646" lon="35.3242140">
<ele>340.439972</ele>
<time>2014-01-03T09:12:22.000Z</time>
</trkpt>
<trkpt lat="31.5287954" lon="35.3245181">
<ele>340.919983</ele>
<time>2014-01-03T09:12:36.000Z</time>
</trkpt>
<trkpt lat="31.5283000" lon="35.3245252">
<ele>341.890015</ele>
<time>2014-01-03T09:17:04.000Z</time>
</trkpt>
<trkpt lat="31.5282007" lon="35.3244951">
<ele>341.410004</ele>
<time>2014-01-03T09:17:07.000Z</time>
</trkpt>
<trkpt lat="31.5280349" lon="35.3244110">
<ele>343.329987</ele>
<time>2014-01-03T09:17:18.000Z</time>
</trkpt>
<trkpt lat="31.5275416" lon="35.3242648">
<ele>344.769989</ele>
<time>2014-01-03T09:18:21.000Z</time>
</trkpt>
<trkpt lat="31.5269083" lon="35.3241698">
<ele>346.689972</ele>
<time>2014-01-03T09:18:44.000Z</time>
</trkpt>
<trkpt lat="31.5263776" lon="35.3241473">
<ele>348.130005</ele>
<time>2014-01-03T09:19:03.000Z</time>
</trkpt>
<trkpt lat="31.5262851" lon="35.3241351">
<ele>347.649994</ele>
<time>2014-01-03T09:19:06.000Z</time>
</trkpt>
<trkpt lat="31.5261912" lon="35.3240843">
<ele>346.689972</ele>
<time>2014-01-03T09:19:11.000Z</time>
</trkpt>
<trkpt lat="31.5261313" lon="35.3241557">
<ele>347.649994</ele>
<time>2014-01-03T09:19:17.000Z</time>
</trkpt>
<trkpt lat="31.5260324" lon="35.3241690">
<ele>350.059998</ele>
<time>2014-01-03T09:19:26.000Z</time>
</trkpt>
<trkpt lat="31.5258240" lon="35.3241614">
<ele>351.500000</ele>
<time>2014-01-03T09:19:40.000Z</time>
</trkpt>
<trkpt lat="31.5255383" lon="35.3241012">
<ele>351.500000</ele>
<time>2014-01-03T09:19:53.000Z</time>
</trkpt>
<trkpt lat="31.5253239" lon="35.3241007">
<ele>352.460022</ele>
<time>2014-01-03T09:20:03.000Z</time>
</trkpt>
<trkpt lat="31.5245580" lon="35.3238298">
<ele>354.380005</ele>
<time>2014-01-03T09:20:44.000Z</time>
</trkpt>
<trkpt lat="31.5241466" lon="35.3237672">
<ele>355.339996</ele>
<time>2014-01-03T09:20:58.000Z</time>
</trkpt>
<trkpt lat="31.5239525" lon="35.3237892">
<ele>356.309998</ele>
<time>2014-01-03T09:21:08.000Z</time>
</trkpt>
<trkpt lat="31.5237703" lon="35.3238614">
<ele>355.829987</ele>
<time>2014-01-03T09:21:15.000Z</time>
</trkpt>
<trkpt lat="31.5235819" lon="35.3239533">
<ele>356.309998</ele>
<time>2014-01-03T09:21:22.000Z</time>
</trkpt>
<trkpt lat="31.5232889" lon="35.3241260">
<ele>356.790009</ele>
<time>2014-01-03T09:21:34.000Z</time>
</trkpt>
<trkpt lat="31.5229903" lon="35.3242216">
<ele>355.829987</ele>
<time>2014-01-03T09:21:42.000Z</time>
</trkpt>
<trkpt lat="31.5227035" lon="35.3242895">
<ele>359.669983</ele>
<time>2014-01-03T09:21:59.000Z</time>
</trkpt>
<trkpt lat="31.5225942" lon="35.3243099">
<ele>360.630005</ele>
<time>2014-01-03T09:22:05.000Z</time>
</trkpt>
<trkpt lat="31.5222982" lon="35.3243112">
<ele>363.040009</ele>
<time>2014-01-03T09:22:23.000Z</time>
</trkpt>
<trkpt lat="31.5220104" lon="35.3242428">
<ele>364.960022</ele>
<time>2014-01-03T09:22:42.000Z</time>
</trkpt>
<trkpt lat="31.5218367" lon="35.3241625">
<ele>365.439972</ele>
<time>2014-01-03T09:22:52.000Z</time>
</trkpt>
<trkpt lat="31.5213750" lon="35.3238892">
<ele>364.960022</ele>
<time>2014-01-03T09:23:05.000Z</time>
</trkpt>
<trkpt lat="31.5210919" lon="35.3238561">
<ele>366.399994</ele>
<time>2014-01-03T09:23:22.000Z</time>
</trkpt>
<trkpt lat="31.5209971" lon="35.3238108">
<ele>366.880005</ele>
<time>2014-01-03T09:23:27.000Z</time>
</trkpt>
<trkpt lat="31.5208965" lon="35.3237936">
<ele>367.360016</ele>
<time>2014-01-03T09:23:33.000Z</time>
</trkpt>
<trkpt lat="31.5207130" lon="35.3237176">
<ele>367.839996</ele>
<time>2014-01-03T09:23:43.000Z</time>
</trkpt>
<trkpt lat="31.5204545" lon="35.3235423">
<ele>368.320007</ele>
<time>2014-01-03T09:23:57.000Z</time>
</trkpt>
<trkpt lat="31.5203455" lon="35.3235072">
<ele>367.360016</ele>
<time>2014-01-03T09:24:00.000Z</time>
</trkpt>
<trkpt lat="31.5199092" lon="35.3235215">
<ele>370.239990</ele>
<time>2014-01-03T09:27:15.000Z</time>
</trkpt>
<trkpt lat="31.5196280" lon="35.3234410">
<ele>371.210022</ele>
<time>2014-01-03T09:27:28.000Z</time>
</trkpt>
<trkpt lat="31.5194347" lon="35.3233662">
<ele>372.169983</ele>
<time>2014-01-03T09:27:36.000Z</time>
</trkpt>
<trkpt lat="31.5192779" lon="35.3233126">
<ele>372.649994</ele>
<time>2014-01-03T09:28:31.000Z</time>
</trkpt>
<trkpt lat="31.5190595" lon="35.3232739">
<ele>372.649994</ele>
<time>2014-01-03T09:28:41.000Z</time>
</trkpt>
<trkpt lat="31.5189653" lon="35.3231984">
<ele>372.649994</ele>
<time>2014-01-03T09:29:10.000Z</time>
</trkpt>
<trkpt lat="31.5185687" lon="35.3229721">
<ele>371.689972</ele>
<time>2014-01-03T09:29:22.000Z</time>
</trkpt>
<trkpt lat="31.5184812" lon="35.3229067">
<ele>371.689972</ele>
<time>2014-01-03T09:29:25.000Z</time>
</trkpt>
<trkpt lat="31.5183934" lon="35.3228588">
<ele>371.689972</ele>
<time>2014-01-03T09:29:28.000Z</time>
</trkpt>
<trkpt lat="31.5182884" lon="35.3228552">
<ele>372.649994</ele>
<time>2014-01-03T09:29:32.000Z</time>
</trkpt>
<trkpt lat="31.5182022" lon="35.3228339">
<ele>374.570007</ele>
<time>2014-01-03T09:29:38.000Z</time>
</trkpt>
<trkpt lat="31.5181253" lon="35.3227833">
<ele>376.010010</ele>
<time>2014-01-03T09:29:45.000Z</time>
</trkpt>
<trkpt lat="31.5180527" lon="35.3227122">
<ele>376.970001</ele>
<time>2014-01-03T09:29:52.000Z</time>
</trkpt>
<trkpt lat="31.5178657" lon="35.3226548">
<ele>377.939972</ele>
<time>2014-01-03T09:30:04.000Z</time>
</trkpt>
<trkpt lat="31.5176755" lon="35.3226565">
<ele>378.899994</ele>
<time>2014-01-03T09:30:16.000Z</time>
</trkpt>
<trkpt lat="31.5175808" lon="35.3226444">
<ele>380.339996</ele>
<time>2014-01-03T09:30:24.000Z</time>
</trkpt>
<trkpt lat="31.5174679" lon="35.3226711">
<ele>380.339996</ele>
<time>2014-01-03T09:30:30.000Z</time>
</trkpt>
<trkpt lat="31.5172581" lon="35.3227760">
<ele>380.339996</ele>
<time>2014-01-03T09:30:38.000Z</time>
</trkpt>
<trkpt lat="31.5171073" lon="35.3229342">
<ele>380.339996</ele>
<time>2014-01-03T09:30:46.000Z</time>
</trkpt>
<trkpt lat="31.5170126" lon="35.3231418">
<ele>378.899994</ele>
<time>2014-01-03T09:30:51.000Z</time>
</trkpt>
<trkpt lat="31.5169934" lon="35.3232463">
<ele>380.339996</ele>
<time>2014-01-03T09:30:56.000Z</time>
</trkpt>
<trkpt lat="31.5170018" lon="35.3235989">
<ele>382.739990</ele>
<time>2014-01-03T09:31:17.000Z</time>
</trkpt>
<trkpt lat="31.5169087" lon="35.3238001">
<ele>382.739990</ele>
<time>2014-01-03T09:31:29.000Z</time>
</trkpt>
<trkpt lat="31.5168206" lon="35.3238624">
<ele>383.220001</ele>
<time>2014-01-03T09:31:35.000Z</time>
</trkpt>
<trkpt lat="31.5167348" lon="35.3239035">
<ele>383.700012</ele>
<time>2014-01-03T09:31:40.000Z</time>
</trkpt>
<trkpt lat="31.5164190" lon="35.3239733">
<ele>383.220001</ele>
<time>2014-01-03T09:31:53.000Z</time>
</trkpt>
<trkpt lat="31.5163148" lon="35.3239709">
<ele>382.739990</ele>
<time>2014-01-03T09:31:56.000Z</time>
</trkpt>
<trkpt lat="31.5162200" lon="35.3239123">
<ele>383.700012</ele>
<time>2014-01-03T09:32:01.000Z</time>
</trkpt>
<trkpt lat="31.5160334" lon="35.3238578">
<ele>385.149994</ele>
<time>2014-01-03T09:32:12.000Z</time>
</trkpt>
<trkpt lat="31.5157803" lon="35.3236134">
<ele>385.630005</ele>
<time>2014-01-03T09:32:25.000Z</time>
</trkpt>
<trkpt lat="31.5155781" lon="35.3234779">
<ele>385.630005</ele>
<time>2014-01-03T09:32:33.000Z</time>
</trkpt>
<trkpt lat="31.5153583" lon="35.3234088">
<ele>386.110016</ele>
<time>2014-01-03T09:32:41.000Z</time>
</trkpt>
<trkpt lat="31.5151651" lon="35.3233213">
<ele>386.589996</ele>
<time>2014-01-03T09:32:48.000Z</time>
</trkpt>
<trkpt lat="31.5149755" lon="35.3232969">
<ele>388.029999</ele>
<time>2014-01-03T09:32:57.000Z</time>
</trkpt>
<trkpt lat="31.5146758" lon="35.3232266">
<ele>388.510010</ele>
<time>2014-01-03T09:33:09.000Z</time>
</trkpt>
<trkpt lat="31.5143871" lon="35.3231265">
<ele>388.989990</ele>
<time>2014-01-03T09:33:20.000Z</time>
</trkpt>
<trkpt lat="31.5140685" lon="35.3229631">
<ele>389.950012</ele>
<time>2014-01-03T09:33:30.000Z</time>
</trkpt>
<trkpt lat="31.5137359" lon="35.3226775">
<ele>391.389984</ele>
<time>2014-01-03T09:33:52.000Z</time>
</trkpt>
<trkpt lat="31.5136578" lon="35.3226207">
<ele>391.869995</ele>
<time>2014-01-03T09:33:57.000Z</time>
</trkpt>
<trkpt lat="31.5134678" lon="35.3225353">
<ele>393.320007</ele>
<time>2014-01-03T09:34:09.000Z</time>
</trkpt>
<trkpt lat="31.5133897" lon="35.3224674">
<ele>393.799988</ele>
<time>2014-01-03T09:34:15.000Z</time>
</trkpt>
<trkpt lat="31.5133015" lon="35.3223856">
<ele>393.320007</ele>
<time>2014-01-03T09:34:20.000Z</time>
</trkpt>
<trkpt lat="31.5132399" lon="35.3222857">
<ele>392.360016</ele>
<time>2014-01-03T09:34:23.000Z</time>
</trkpt>
<trkpt lat="31.5130634" lon="35.3220984">
<ele>392.839996</ele>
<time>2014-01-03T09:34:29.000Z</time>
</trkpt>
<trkpt lat="31.5129815" lon="35.3220323">
<ele>392.360016</ele>
<time>2014-01-03T09:34:32.000Z</time>
</trkpt>
<trkpt lat="31.5128365" lon="35.3218175">
<ele>393.320007</ele>
<time>2014-01-03T09:34:42.000Z</time>
</trkpt>
<trkpt lat="31.5127314" lon="35.3217695">
<ele>393.799988</ele>
<time>2014-01-03T09:34:48.000Z</time>
</trkpt>
<trkpt lat="31.5125629" lon="35.3216539">
<ele>394.279999</ele>
<time>2014-01-03T09:34:59.000Z</time>
</trkpt>
<trkpt lat="31.5123945" lon="35.3214890">
<ele>395.239990</ele>
<time>2014-01-03T09:35:10.000Z</time>
</trkpt>
<trkpt lat="31.5118036" lon="35.3209514">
<ele>399.570007</ele>
<time>2014-01-03T09:35:54.000Z</time>
</trkpt>
<trkpt lat="31.5116265" lon="35.3208264">
<ele>400.529999</ele>
<time>2014-01-03T09:36:06.000Z</time>
</trkpt>
<trkpt lat="31.5114456" lon="35.3207446">
<ele>401.970001</ele>
<time>2014-01-03T09:36:17.000Z</time>
</trkpt>
<trkpt lat="31.5112807" lon="35.3207609">
<ele>401.970001</ele>
<time>2014-01-03T09:36:26.000Z</time>
</trkpt>
<trkpt lat="31.5110704" lon="35.3208443">
<ele>401.489990</ele>
<time>2014-01-03T09:36:33.000Z</time>
</trkpt>
<trkpt lat="31.5107871" lon="35.3210027">
<ele>400.049988</ele>
<time>2014-01-03T09:36:42.000Z</time>
</trkpt>
<trkpt lat="31.5105219" lon="35.3211878">
<ele>400.049988</ele>
<time>2014-01-03T09:36:50.000Z</time>
</trkpt>
<trkpt lat="31.5104253" lon="35.3212441">
<ele>401.010010</ele>
<time>2014-01-03T09:36:55.000Z</time>
</trkpt>
<trkpt lat="31.5103934" lon="35.3213489">
<ele>402.450012</ele>
<time>2014-01-03T09:37:01.000Z</time>
</trkpt>
<trkpt lat="31.5103323" lon="35.3214314">
<ele>402.450012</ele>
<time>2014-01-03T09:37:07.000Z</time>
</trkpt>
<trkpt lat="31.5102380" lon="35.3214991">
<ele>401.970001</ele>
<time>2014-01-03T09:37:12.000Z</time>
</trkpt>
<trkpt lat="31.5101668" lon="35.3215892">
<ele>401.970001</ele>
<time>2014-01-03T09:37:16.000Z</time>
</trkpt>
<trkpt lat="31.5100840" lon="35.3216459">
<ele>403.410004</ele>
<time>2014-01-03T09:37:23.000Z</time>
</trkpt>
<trkpt lat="31.5099686" lon="35.3216586">
<ele>403.410004</ele>
<time>2014-01-03T09:37:29.000Z</time>
</trkpt>
<trkpt lat="31.5098620" lon="35.3216327">
<ele>403.410004</ele>
<time>2014-01-03T09:37:34.000Z</time>
</trkpt>
<trkpt lat="31.5097600" lon="35.3215742">
<ele>402.930023</ele>
<time>2014-01-03T09:37:37.000Z</time>
</trkpt>
<trkpt lat="31.5095537" lon="35.3215435">
<ele>403.889984</ele>
<time>2014-01-03T09:37:47.000Z</time>
</trkpt>
<trkpt lat="31.5094854" lon="35.3215907">
<ele>403.889984</ele>
<time>2014-01-03T09:37:51.000Z</time>
</trkpt>
<trkpt lat="31.5094612" lon="35.3217115">
<ele>405.330017</ele>
<time>2014-01-03T09:37:57.000Z</time>
</trkpt>
<trkpt lat="31.5094179" lon="35.3217998">
<ele>405.809998</ele>
<time>2014-01-03T09:38:03.000Z</time>
</trkpt>
<trkpt lat="31.5090828" lon="35.3220197">
<ele>407.260010</ele>
<time>2014-01-03T09:38:24.000Z</time>
</trkpt>
<trkpt lat="31.5089877" lon="35.3220693">
<ele>407.739990</ele>
<time>2014-01-03T09:38:29.000Z</time>
</trkpt>
<trkpt lat="31.5089000" lon="35.3221489">
<ele>408.700012</ele>
<time>2014-01-03T09:38:35.000Z</time>
</trkpt>
<trkpt lat="31.5086866" lon="35.3221896">
<ele>409.180023</ele>
<time>2014-01-03T09:38:44.000Z</time>
</trkpt>
<trkpt lat="31.5085783" lon="35.3221742">
<ele>409.180023</ele>
<time>2014-01-03T09:38:48.000Z</time>
</trkpt>
<trkpt lat="31.5081717" lon="35.3222087">
<ele>410.619995</ele>
<time>2014-01-03T09:39:06.000Z</time>
</trkpt>
<trkpt lat="31.5080616" lon="35.3222022">
<ele>411.100006</ele>
<time>2014-01-03T09:39:11.000Z</time>
</trkpt>
<trkpt lat="31.5079727" lon="35.3221816">
<ele>411.580017</ele>
<time>2014-01-03T09:39:15.000Z</time>
</trkpt>
<trkpt lat="31.5077860" lon="35.3220911">
<ele>411.580017</ele>
<time>2014-01-03T09:39:24.000Z</time>
</trkpt>
<trkpt lat="31.5075409" lon="35.3219428">
<ele>412.539978</ele>
<time>2014-01-03T09:39:36.000Z</time>
</trkpt>
<trkpt lat="31.5074527" lon="35.3219188">
<ele>412.539978</ele>
<time>2014-01-03T09:39:40.000Z</time>
</trkpt>
<trkpt lat="31.5072654" lon="35.3219338">
<ele>413.500000</ele>
<time>2014-01-03T09:39:50.000Z</time>
</trkpt>
<trkpt lat="31.5071854" lon="35.3220135">
<ele>413.500000</ele>
<time>2014-01-03T09:39:55.000Z</time>
</trkpt>
<trkpt lat="31.5069907" lon="35.3220844">
<ele>415.430023</ele>
<time>2014-01-03T09:40:08.000Z</time>
</trkpt>
<trkpt lat="31.5068877" lon="35.3220865">
<ele>416.869995</ele>
<time>2014-01-03T09:40:15.000Z</time>
</trkpt>
<trkpt lat="31.5068229" lon="35.3222315">
<ele>418.309998</ele>
<time>2014-01-03T09:41:58.000Z</time>
</trkpt>
<trkpt lat="31.5068357" lon="35.3223476">
<ele>418.309998</ele>
<time>2014-01-03T09:42:05.000Z</time>
</trkpt>
<trkpt lat="31.5068366" lon="35.3224951">
<ele>417.350006</ele>
<time>2014-01-03T09:42:09.000Z</time>
</trkpt>
<trkpt lat="31.5067957" lon="35.3227780">
<ele>416.389984</ele>
<time>2014-01-03T09:42:15.000Z</time>
</trkpt>
<trkpt lat="31.5067378" lon="35.3230157">
<ele>415.910004</ele>
<time>2014-01-03T09:42:22.000Z</time>
</trkpt>
<trkpt lat="31.5065104" lon="35.3236722">
<ele>418.789978</ele>
<time>2014-01-03T09:42:48.000Z</time>
</trkpt>
<trkpt lat="31.5065114" lon="35.3237992">
<ele>419.269989</ele>
<time>2014-01-03T09:42:53.000Z</time>
</trkpt>
<trkpt lat="31.5065463" lon="35.3239182">
<ele>419.269989</ele>
<time>2014-01-03T09:42:57.000Z</time>
</trkpt>
<trkpt lat="31.5065995" lon="35.3240154">
<ele>420.230011</ele>
<time>2014-01-03T09:43:02.000Z</time>
</trkpt>
<trkpt lat="31.5067368" lon="35.3241825">
<ele>422.639984</ele>
<time>2014-01-03T09:43:16.000Z</time>
</trkpt>
<trkpt lat="31.5068359" lon="35.3243641">
<ele>424.080017</ele>
<time>2014-01-03T09:43:28.000Z</time>
</trkpt>
<trkpt lat="31.5068766" lon="35.3244665">
<ele>425.519989</ele>
<time>2014-01-03T09:43:36.000Z</time>
</trkpt>
<trkpt lat="31.5069813" lon="35.3246345">
<ele>427.440002</ele>
<time>2014-01-03T09:43:52.000Z</time>
</trkpt>
<trkpt lat="31.5070577" lon="35.3247136">
<ele>428.889984</ele>
<time>2014-01-03T09:44:00.000Z</time>
</trkpt>
<trkpt lat="31.5075462" lon="35.3250697">
<ele>432.730011</ele>
<time>2014-01-03T09:44:44.000Z</time>
</trkpt>
<trkpt lat="31.5076197" lon="35.3251397">
<ele>432.730011</ele>
<time>2014-01-03T09:44:49.000Z</time>
</trkpt>
<trkpt lat="31.5077431" lon="35.3253039">
<ele>433.690002</ele>
<time>2014-01-03T09:45:00.000Z</time>
</trkpt>
<trkpt lat="31.5079926" lon="35.3255001">
<ele>434.649994</ele>
<time>2014-01-03T09:45:19.000Z</time>
</trkpt>
<trkpt lat="31.5081737" lon="35.3255893">
<ele>435.609985</ele>
<time>2014-01-03T09:45:32.000Z</time>
</trkpt>
<trkpt lat="31.5083491" lon="35.3257238">
<ele>437.059998</ele>
<time>2014-01-03T09:45:44.000Z</time>
</trkpt>
<trkpt lat="31.5086456" lon="35.3260260">
<ele>438.980011</ele>
<time>2014-01-03T09:46:05.000Z</time>
</trkpt>
<trkpt lat="31.5087704" lon="35.3261851">
<ele>439.940002</ele>
<time>2014-01-03T09:46:14.000Z</time>
</trkpt>
<trkpt lat="31.5088972" lon="35.3263742">
<ele>441.380005</ele>
<time>2014-01-03T09:46:26.000Z</time>
</trkpt>
<trkpt lat="31.5089657" lon="35.3264594">
<ele>441.380005</ele>
<time>2014-01-03T09:46:31.000Z</time>
</trkpt>
<trkpt lat="31.5090194" lon="35.3265568">
<ele>441.380005</ele>
<time>2014-01-03T09:46:35.000Z</time>
</trkpt>
<trkpt lat="31.5090864" lon="35.3267791">
<ele>441.859985</ele>
<time>2014-01-03T09:46:45.000Z</time>
</trkpt>
<trkpt lat="31.5091805" lon="35.3270162">
<ele>441.859985</ele>
<time>2014-01-03T09:46:53.000Z</time>
</trkpt>
<trkpt lat="31.5092437" lon="35.3271317">
<ele>440.899994</ele>
<time>2014-01-03T09:46:56.000Z</time>
</trkpt>
<trkpt lat="31.5093813" lon="35.3275251">
<ele>439.940002</ele>
<time>2014-01-03T09:47:04.000Z</time>
</trkpt>
<trkpt lat="31.5094223" lon="35.3276247">
<ele>439.940002</ele>
<time>2014-01-03T09:47:07.000Z</time>
</trkpt>
<trkpt lat="31.5096107" lon="35.3279049">
<ele>441.859985</ele>
<time>2014-01-03T09:47:19.000Z</time>
</trkpt>
<trkpt lat="31.5097052" lon="35.3281059">
<ele>443.309998</ele>
<time>2014-01-03T09:47:28.000Z</time>
</trkpt>
<trkpt lat="31.5097902" lon="35.3283197">
<ele>443.309998</ele>
<time>2014-01-03T09:47:38.000Z</time>
</trkpt>
<trkpt lat="31.5099220" lon="35.3285156">
<ele>444.750000</ele>
<time>2014-01-03T09:47:48.000Z</time>
</trkpt>
<trkpt lat="31.5100485" lon="35.3286823">
<ele>444.750000</ele>
<time>2014-01-03T09:47:59.000Z</time>
</trkpt>
<trkpt lat="31.5101132" lon="35.3287600">
<ele>445.230011</ele>
<time>2014-01-03T09:48:04.000Z</time>
</trkpt>
<trkpt lat="31.5101960" lon="35.3288397">
<ele>446.670013</ele>
<time>2014-01-03T09:48:10.000Z</time>
</trkpt>
<trkpt lat="31.5102845" lon="35.3289158">
<ele>447.149994</ele>
<time>2014-01-03T09:48:16.000Z</time>
</trkpt>
<trkpt lat="31.5103573" lon="35.3290071">
<ele>447.149994</ele>
<time>2014-01-03T09:48:21.000Z</time>
</trkpt>
<trkpt lat="31.5104420" lon="35.3290877">
<ele>447.149994</ele>
<time>2014-01-03T09:48:26.000Z</time>
</trkpt>
<trkpt lat="31.5105227" lon="35.3291783">
<ele>447.149994</ele>
<time>2014-01-03T09:48:31.000Z</time>
</trkpt>
<trkpt lat="31.5108184" lon="35.3295444">
<ele>446.190002</ele>
<time>2014-01-03T09:48:48.000Z</time>
</trkpt>
<trkpt lat="31.5109683" lon="35.3296839">
<ele>445.230011</ele>
<time>2014-01-03T09:48:56.000Z</time>
</trkpt>
<trkpt lat="31.5110220" lon="35.3298664">
<ele>442.339996</ele>
<time>2014-01-03T09:50:43.000Z</time>
</trkpt>
<trkpt lat="31.5112104" lon="35.3301732">
<ele>438.019989</ele>
<time>2014-01-03T09:50:58.000Z</time>
</trkpt>
<trkpt lat="31.5112891" lon="35.3302485">
<ele>435.609985</ele>
<time>2014-01-03T09:51:04.000Z</time>
</trkpt>
<trkpt lat="31.5113890" lon="35.3302830">
<ele>433.209991</ele>
<time>2014-01-03T09:51:11.000Z</time>
</trkpt>
<trkpt lat="31.5114816" lon="35.3303548">
<ele>430.330017</ele>
<time>2014-01-03T09:51:16.000Z</time>
</trkpt>
<trkpt lat="31.5115072" lon="35.3304568">
<ele>428.399994</ele>
<time>2014-01-03T09:51:21.000Z</time>
</trkpt>
<trkpt lat="31.5116848" lon="35.3308642">
<ele>420.709991</ele>
<time>2014-01-03T09:51:37.000Z</time>
</trkpt>
<trkpt lat="31.5117307" lon="35.3309693">
<ele>418.789978</ele>
<time>2014-01-03T09:51:40.000Z</time>
</trkpt>
<trkpt lat="31.5119074" lon="35.3315621">
<ele>409.660004</ele>
<time>2014-01-03T09:51:56.000Z</time>
</trkpt>
<trkpt lat="31.5119749" lon="35.3316752">
<ele>407.260010</ele>
<time>2014-01-03T09:52:00.000Z</time>
</trkpt>
<trkpt lat="31.5120656" lon="35.3317746">
<ele>404.850006</ele>
<time>2014-01-03T09:52:04.000Z</time>
</trkpt>
<trkpt lat="31.5121588" lon="35.3318489">
<ele>401.970001</ele>
<time>2014-01-03T09:52:07.000Z</time>
</trkpt>
<trkpt lat="31.5124720" lon="35.3319614">
<ele>394.279999</ele>
<time>2014-01-03T09:52:18.000Z</time>
</trkpt>
<trkpt lat="31.5125551" lon="35.3320336">
<ele>393.320007</ele>
<time>2014-01-03T09:52:21.000Z</time>
</trkpt>
<trkpt lat="31.5126385" lon="35.3321198">
<ele>392.360016</ele>
<time>2014-01-03T09:52:25.000Z</time>
</trkpt>
<trkpt lat="31.5127066" lon="35.3322116">
<ele>391.869995</ele>
<time>2014-01-03T09:52:29.000Z</time>
</trkpt>
<trkpt lat="31.5129327" lon="35.3327559">
<ele>386.589996</ele>
<time>2014-01-03T09:52:48.000Z</time>
</trkpt>
<trkpt lat="31.5131713" lon="35.3335099">
<ele>376.970001</ele>
<time>2014-01-03T09:53:42.000Z</time>
</trkpt>
<trkpt lat="31.5132907" lon="35.3337710">
<ele>373.130005</ele>
<time>2014-01-03T09:53:46.000Z</time>
</trkpt>
<trkpt lat="31.5134350" lon="35.3340095">
<ele>371.210022</ele>
<time>2014-01-03T09:53:51.000Z</time>
</trkpt>
<trkpt lat="31.5135656" lon="35.3341887">
<ele>369.279999</ele>
<time>2014-01-03T09:53:55.000Z</time>
</trkpt>
<trkpt lat="31.5137794" lon="35.3344313">
<ele>366.399994</ele>
<time>2014-01-03T09:54:01.000Z</time>
</trkpt>
<trkpt lat="31.5138513" lon="35.3345289">
<ele>365.439972</ele>
<time>2014-01-03T09:54:03.000Z</time>
</trkpt>
<trkpt lat="31.5138892" lon="35.3346248">
<ele>364.960022</ele>
<time>2014-01-03T09:54:05.000Z</time>
</trkpt>
<trkpt lat="31.5138886" lon="35.3349915">
<ele>365.439972</ele>
<time>2014-01-03T09:54:18.000Z</time>
</trkpt>
<trkpt lat="31.5139061" lon="35.3351034">
<ele>365.439972</ele>
<time>2014-01-03T09:54:22.000Z</time>
</trkpt>
<trkpt lat="31.5139418" lon="35.3352069">
<ele>365.919983</ele>
<time>2014-01-03T09:54:25.000Z</time>
</trkpt>
<trkpt lat="31.5140549" lon="35.3354096">
<ele>364.480011</ele>
<time>2014-01-03T09:54:31.000Z</time>
</trkpt>
<trkpt lat="31.5141134" lon="35.3355364">
<ele>364.000000</ele>
<time>2014-01-03T09:54:34.000Z</time>
</trkpt>
<trkpt lat="31.5142656" lon="35.3360743">
<ele>361.589996</ele>
<time>2014-01-03T09:54:44.000Z</time>
</trkpt>
<trkpt lat="31.5143556" lon="35.3362659">
<ele>360.630005</ele>
<time>2014-01-03T09:54:48.000Z</time>
</trkpt>
<trkpt lat="31.5144351" lon="35.3363392">
<ele>360.630005</ele>
<time>2014-01-03T09:54:51.000Z</time>
</trkpt>
<trkpt lat="31.5146435" lon="35.3364618">
<ele>361.110016</ele>
<time>2014-01-03T09:54:57.000Z</time>
</trkpt>
<trkpt lat="31.5148081" lon="35.3365762">
<ele>359.669983</ele>
<time>2014-01-03T09:55:01.000Z</time>
</trkpt>
<trkpt lat="31.5149514" lon="35.3367489">
<ele>358.710022</ele>
<time>2014-01-03T09:55:05.000Z</time>
</trkpt>
<trkpt lat="31.5150823" lon="35.3369632">
<ele>358.230011</ele>
<time>2014-01-03T09:55:09.000Z</time>
</trkpt>
<trkpt lat="31.5151331" lon="35.3370833">
<ele>357.269989</ele>
<time>2014-01-03T09:55:11.000Z</time>
</trkpt>
<trkpt lat="31.5152130" lon="35.3374783">
<ele>356.309998</ele>
<time>2014-01-03T09:55:17.000Z</time>
</trkpt>
<trkpt lat="31.5152471" lon="35.3381568">
<ele>352.460022</ele>
<time>2014-01-03T09:55:28.000Z</time>
</trkpt>
<trkpt lat="31.5152700" lon="35.3383018">
<ele>352.939972</ele>
<time>2014-01-03T09:55:31.000Z</time>
</trkpt>
<trkpt lat="31.5153185" lon="35.3384304">
<ele>352.939972</ele>
<time>2014-01-03T09:55:34.000Z</time>
</trkpt>
<trkpt lat="31.5154050" lon="35.3385331">
<ele>352.939972</ele>
<time>2014-01-03T09:55:37.000Z</time>
</trkpt>
<trkpt lat="31.5155904" lon="35.3386848">
<ele>352.939972</ele>
<time>2014-01-03T09:55:43.000Z</time>
</trkpt>
<trkpt lat="31.5159965" lon="35.3389211">
<ele>351.500000</ele>
<time>2014-01-03T09:55:54.000Z</time>
</trkpt>
<trkpt lat="31.5160703" lon="35.3389964">
<ele>350.540009</ele>
<time>2014-01-03T09:55:56.000Z</time>
</trkpt>
<trkpt lat="31.5161394" lon="35.3390930">
<ele>349.579987</ele>
<time>2014-01-03T09:55:58.000Z</time>
</trkpt>
<trkpt lat="31.5162131" lon="35.3391596">
<ele>350.059998</ele>
<time>2014-01-03T09:56:00.000Z</time>
</trkpt>
<trkpt lat="31.5163092" lon="35.3392348">
<ele>349.579987</ele>
<time>2014-01-03T09:56:03.000Z</time>
</trkpt>
<trkpt lat="31.5164679" lon="35.3394424">
<ele>349.100006</ele>
<time>2014-01-03T09:56:08.000Z</time>
</trkpt>
<trkpt lat="31.5165608" lon="35.3396723">
<ele>348.130005</ele>
<time>2014-01-03T09:56:12.000Z</time>
</trkpt>
<trkpt lat="31.5166036" lon="35.3398227">
<ele>346.689972</ele>
<time>2014-01-03T09:56:14.000Z</time>
</trkpt>
<trkpt lat="31.5166542" lon="35.3401417">
<ele>345.730011</ele>
<time>2014-01-03T09:56:18.000Z</time>
</trkpt>
<trkpt lat="31.5167062" lon="35.3406534">
<ele>340.919983</ele>
<time>2014-01-03T09:56:29.000Z</time>
</trkpt>
<trkpt lat="31.5168007" lon="35.3409646">
<ele>345.250000</ele>
<time>2014-01-03T09:56:44.000Z</time>
</trkpt>
<trkpt lat="31.5167713" lon="35.3411897">
<ele>345.250000</ele>
<time>2014-01-03T09:56:55.000Z</time>
</trkpt>
<trkpt lat="31.5168086" lon="35.3415523">
<ele>345.250000</ele>
<time>2014-01-03T09:57:10.000Z</time>
</trkpt>
<trkpt lat="31.5168558" lon="35.3417010">
<ele>343.809998</ele>
<time>2014-01-03T09:57:13.000Z</time>
</trkpt>
<trkpt lat="31.5169718" lon="35.3419187">
<ele>342.850006</ele>
<time>2014-01-03T09:57:17.000Z</time>
</trkpt>
<trkpt lat="31.5170382" lon="35.3420279">
<ele>342.369995</ele>
<time>2014-01-03T09:57:19.000Z</time>
</trkpt>
<trkpt lat="31.5171187" lon="35.3421323">
<ele>341.410004</ele>
<time>2014-01-03T09:57:21.000Z</time>
</trkpt>
<trkpt lat="31.5172925" lon="35.3423118">
<ele>340.919983</ele>
<time>2014-01-03T09:57:25.000Z</time>
</trkpt>
<trkpt lat="31.5174246" lon="35.3424882">
<ele>340.919983</ele>
<time>2014-01-03T09:57:29.000Z</time>
</trkpt>
<trkpt lat="31.5174710" lon="35.3425985">
<ele>340.439972</ele>
<time>2014-01-03T09:57:31.000Z</time>
</trkpt>
<trkpt lat="31.5176291" lon="35.3434740">
<ele>330.830017</ele>
<time>2014-01-03T09:57:46.000Z</time>
</trkpt>
<trkpt lat="31.5176411" lon="35.3438260">
<ele>330.830017</ele>
<time>2014-01-03T09:57:59.000Z</time>
</trkpt>
<trkpt lat="31.5176176" lon="35.3439285">
<ele>331.309998</ele>
<time>2014-01-03T09:58:04.000Z</time>
</trkpt>
<trkpt lat="31.5173860" lon="35.3445531">
<ele>328.429993</ele>
<time>2014-01-03T09:58:20.000Z</time>
</trkpt>
<trkpt lat="31.5173577" lon="35.3446624">
<ele>328.910004</ele>
<time>2014-01-03T09:58:22.000Z</time>
</trkpt>
<trkpt lat="31.5173305" lon="35.3448799">
<ele>327.949982</ele>
<time>2014-01-03T09:58:26.000Z</time>
</trkpt>
<trkpt lat="31.5173192" lon="35.3449911">
<ele>327.949982</ele>
<time>2014-01-03T09:58:28.000Z</time>
</trkpt>
<trkpt lat="31.5173263" lon="35.3452175">
<ele>327.469971</ele>
<time>2014-01-03T09:58:32.000Z</time>
</trkpt>
<trkpt lat="31.5174187" lon="35.3456516">
<ele>326.500000</ele>
<time>2014-01-03T09:58:40.000Z</time>
</trkpt>
<trkpt lat="31.5175488" lon="35.3460046">
<ele>325.540009</ele>
<time>2014-01-03T09:58:46.000Z</time>
</trkpt>
<trkpt lat="31.5177083" lon="35.3463560">
<ele>324.100006</ele>
<time>2014-01-03T09:58:52.000Z</time>
</trkpt>
<trkpt lat="31.5178332" lon="35.3467120">
<ele>322.660004</ele>
<time>2014-01-03T09:58:58.000Z</time>
</trkpt>
<trkpt lat="31.5178935" lon="35.3468047">
<ele>322.660004</ele>
<time>2014-01-03T09:59:00.000Z</time>
</trkpt>
<trkpt lat="31.5179776" lon="35.3468935">
<ele>321.219971</ele>
<time>2014-01-03T09:59:02.000Z</time>
</trkpt>
<trkpt lat="31.5180734" lon="35.3469541">
<ele>319.779999</ele>
<time>2014-01-03T09:59:04.000Z</time>
</trkpt>
<trkpt lat="31.5181518" lon="35.3470154">
<ele>318.809998</ele>
<time>2014-01-03T09:59:06.000Z</time>
</trkpt>
<trkpt lat="31.5182017" lon="35.3471273">
<ele>317.850006</ele>
<time>2014-01-03T09:59:09.000Z</time>
</trkpt>
<trkpt lat="31.5182624" lon="35.3472245">
<ele>318.330017</ele>
<time>2014-01-03T09:59:13.000Z</time>
</trkpt>
<trkpt lat="31.5183329" lon="35.3473020">
<ele>318.330017</ele>
<time>2014-01-03T09:59:17.000Z</time>
</trkpt>
<trkpt lat="31.5184481" lon="35.3474916">
<ele>319.299988</ele>
<time>2014-01-03T09:59:29.000Z</time>
</trkpt>
<trkpt lat="31.5185740" lon="35.3476674">
<ele>319.779999</ele>
<time>2014-01-03T09:59:45.000Z</time>
</trkpt>
<trkpt lat="31.5186575" lon="35.3477440">
<ele>319.299988</ele>
<time>2014-01-03T09:59:50.000Z</time>
</trkpt>
<trkpt lat="31.5188145" lon="35.3479294">
<ele>318.809998</ele>
<time>2014-01-03T09:59:58.000Z</time>
</trkpt>
<trkpt lat="31.5189748" lon="35.3480279">
<ele>316.890015</ele>
<time>2014-01-03T10:00:51.000Z</time>
</trkpt>
<trkpt lat="31.5191490" lon="35.3482166">
<ele>315.929993</ele>
<time>2014-01-03T10:00:56.000Z</time>
</trkpt>
<trkpt lat="31.5192766" lon="35.3483978">
<ele>314.490021</ele>
<time>2014-01-03T10:01:00.000Z</time>
</trkpt>
<trkpt lat="31.5194838" lon="35.3487568">
<ele>313.529999</ele>
<time>2014-01-03T10:01:06.000Z</time>
</trkpt>
<trkpt lat="31.5196104" lon="35.3490209">
<ele>312.569977</ele>
<time>2014-01-03T10:01:10.000Z</time>
</trkpt>
<trkpt lat="31.5198170" lon="35.3498574">
<ele>310.160004</ele>
<time>2014-01-03T10:01:22.000Z</time>
</trkpt>
<trkpt lat="31.5199232" lon="35.3500879">
<ele>306.800018</ele>
<time>2014-01-03T10:01:29.000Z</time>
</trkpt>
<trkpt lat="31.5200776" lon="35.3502199">
<ele>306.800018</ele>
<time>2014-01-03T10:01:38.000Z</time>
</trkpt>
<trkpt lat="31.5203330" lon="35.3503186">
<ele>309.679993</ele>
<time>2014-01-03T10:01:56.000Z</time>
</trkpt>
<trkpt lat="31.5205656" lon="35.3505346">
<ele>309.679993</ele>
<time>2014-01-03T10:02:13.000Z</time>
</trkpt>
<trkpt lat="31.5206143" lon="35.3506397">
<ele>309.679993</ele>
<time>2014-01-03T10:02:18.000Z</time>
</trkpt>
<trkpt lat="31.5206246" lon="35.3507532">
<ele>309.679993</ele>
<time>2014-01-03T10:02:22.000Z</time>
</trkpt>
<trkpt lat="31.5206175" lon="35.3509827">
<ele>309.199982</ele>
<time>2014-01-03T10:02:28.000Z</time>
</trkpt>
<trkpt lat="31.5205764" lon="35.3511303">
<ele>308.720001</ele>
<time>2014-01-03T10:02:31.000Z</time>
</trkpt>
<trkpt lat="31.5203747" lon="35.3515360">
<ele>307.279999</ele>
<time>2014-01-03T10:02:39.000Z</time>
</trkpt>
<trkpt lat="31.5202350" lon="35.3519095">
<ele>305.360016</ele>
<time>2014-01-03T10:02:45.000Z</time>
</trkpt>
<trkpt lat="31.5199851" lon="35.3528190">
<ele>302.470001</ele>
<time>2014-01-03T10:02:57.000Z</time>
</trkpt>
<trkpt lat="31.5199954" lon="35.3531185">
<ele>301.989990</ele>
<time>2014-01-03T10:03:01.000Z</time>
</trkpt>
<trkpt lat="31.5199709" lon="35.3532557">
<ele>301.029999</ele>
<time>2014-01-03T10:03:03.000Z</time>
</trkpt>
<trkpt lat="31.5198497" lon="35.3535250">
<ele>301.029999</ele>
<time>2014-01-03T10:03:07.000Z</time>
</trkpt>
<trkpt lat="31.5197694" lon="35.3538386">
<ele>299.589996</ele>
<time>2014-01-03T10:03:11.000Z</time>
</trkpt>
<trkpt lat="31.5197534" lon="35.3540031">
<ele>299.110016</ele>
<time>2014-01-03T10:03:13.000Z</time>
</trkpt>
<trkpt lat="31.5197567" lon="35.3546370">
<ele>297.669983</ele>
<time>2014-01-03T10:03:21.000Z</time>
</trkpt>
<trkpt lat="31.5197267" lon="35.3552007">
<ele>296.220001</ele>
<time>2014-01-03T10:03:29.000Z</time>
</trkpt>
<trkpt lat="31.5197559" lon="35.3553325">
<ele>296.699982</ele>
<time>2014-01-03T10:03:32.000Z</time>
</trkpt>
<trkpt lat="31.5198391" lon="35.3554053">
<ele>298.630005</ele>
<time>2014-01-03T10:03:36.000Z</time>
</trkpt>
<trkpt lat="31.5199479" lon="35.3554309">
<ele>300.070007</ele>
<time>2014-01-03T10:03:41.000Z</time>
</trkpt>
<trkpt lat="31.5202246" lon="35.3554526">
<ele>300.550018</ele>
<time>2014-01-03T10:03:53.000Z</time>
</trkpt>
<trkpt lat="31.5203268" lon="35.3554650">
<ele>300.550018</ele>
<time>2014-01-03T10:03:57.000Z</time>
</trkpt>
<trkpt lat="31.5204223" lon="35.3555147">
<ele>301.510010</ele>
<time>2014-01-03T10:04:02.000Z</time>
</trkpt>
<trkpt lat="31.5205797" lon="35.3559690">
<ele>303.429993</ele>
<time>2014-01-03T10:04:25.000Z</time>
</trkpt>
<trkpt lat="31.5205781" lon="35.3561137">
<ele>301.510010</ele>
<time>2014-01-03T10:04:29.000Z</time>
</trkpt>
<trkpt lat="31.5205391" lon="35.3562568">
<ele>300.070007</ele>
<time>2014-01-03T10:04:32.000Z</time>
</trkpt>
<trkpt lat="31.5204837" lon="35.3563558">
<ele>298.630005</ele>
<time>2014-01-03T10:04:34.000Z</time>
</trkpt>
<trkpt lat="31.5204008" lon="35.3564468">
<ele>297.669983</ele>
<time>2014-01-03T10:04:36.000Z</time>
</trkpt>
<trkpt lat="31.5203233" lon="35.3565089">
<ele>298.149994</ele>
<time>2014-01-03T10:04:38.000Z</time>
</trkpt>
<trkpt lat="31.5201991" lon="35.3565497">
<ele>297.669983</ele>
<time>2014-01-03T10:04:41.000Z</time>
</trkpt>
<trkpt lat="31.5199833" lon="35.3565348">
<ele>295.739990</ele>
<time>2014-01-03T10:04:45.000Z</time>
</trkpt>
<trkpt lat="31.5199045" lon="35.3565885">
<ele>295.739990</ele>
<time>2014-01-03T10:04:47.000Z</time>
</trkpt>
<trkpt lat="31.5197319" lon="35.3572429">
<ele>293.339996</ele>
<time>2014-01-03T10:04:58.000Z</time>
</trkpt>
<trkpt lat="31.5196593" lon="35.3577421">
<ele>291.419983</ele>
<time>2014-01-03T10:05:04.000Z</time>
</trkpt>
<trkpt lat="31.5196838" lon="35.3581022">
<ele>289.489990</ele>
<time>2014-01-03T10:05:08.000Z</time>
</trkpt>
<trkpt lat="31.5197859" lon="35.3585353">
<ele>288.050018</ele>
<time>2014-01-03T10:05:14.000Z</time>
</trkpt>
<trkpt lat="31.5199559" lon="35.3588458">
<ele>288.050018</ele>
<time>2014-01-03T10:05:21.000Z</time>
</trkpt>
<trkpt lat="31.5200189" lon="35.3589243">
<ele>287.570007</ele>
<time>2014-01-03T10:05:25.000Z</time>
</trkpt>
<trkpt lat="31.5200836" lon="35.3589294">
<ele>287.089996</ele>
<time>2014-01-03T10:07:03.000Z</time>
</trkpt>
<trkpt lat="31.5202491" lon="35.3590689">
<ele>287.570007</ele>
<time>2014-01-03T10:07:11.000Z</time>
</trkpt>
<trkpt lat="31.5203319" lon="35.3591544">
<ele>287.570007</ele>
<time>2014-01-03T10:07:14.000Z</time>
</trkpt>
<trkpt lat="31.5203870" lon="35.3592630">
<ele>289.489990</ele>
<time>2014-01-03T10:07:19.000Z</time>
</trkpt>
<trkpt lat="31.5204603" lon="35.3593512">
<ele>289.970001</ele>
<time>2014-01-03T10:07:24.000Z</time>
</trkpt>
<trkpt lat="31.5206178" lon="35.3595094">
<ele>289.970001</ele>
<time>2014-01-03T10:07:32.000Z</time>
</trkpt>
<trkpt lat="31.5207007" lon="35.3596044">
<ele>290.459991</ele>
<time>2014-01-03T10:07:36.000Z</time>
</trkpt>
<trkpt lat="31.5208482" lon="35.3597449">
<ele>292.380005</ele>
<time>2014-01-03T10:07:47.000Z</time>
</trkpt>
<trkpt lat="31.5211032" lon="35.3598648">
<ele>296.699982</ele>
<time>2014-01-03T10:08:08.000Z</time>
</trkpt>
<trkpt lat="31.5211991" lon="35.3598957">
<ele>297.669983</ele>
<time>2014-01-03T10:08:15.000Z</time>
</trkpt>
<trkpt lat="31.5214718" lon="35.3600562">
<ele>299.110016</ele>
<time>2014-01-03T10:09:18.000Z</time>
</trkpt>
<trkpt lat="31.5215464" lon="35.3601351">
<ele>297.669983</ele>
<time>2014-01-03T10:09:20.000Z</time>
</trkpt>
<trkpt lat="31.5216792" lon="35.3603086">
<ele>297.669983</ele>
<time>2014-01-03T10:09:25.000Z</time>
</trkpt>
<trkpt lat="31.5219043" lon="35.3606762">
<ele>300.070007</ele>
<time>2014-01-03T10:09:47.000Z</time>
</trkpt>
<trkpt lat="31.5220756" lon="35.3610263">
<ele>299.589996</ele>
<time>2014-01-03T10:09:56.000Z</time>
</trkpt>
<trkpt lat="31.5221460" lon="35.3611146">
<ele>299.589996</ele>
<time>2014-01-03T10:09:59.000Z</time>
</trkpt>
<trkpt lat="31.5222126" lon="35.3612047">
<ele>299.110016</ele>
<time>2014-01-03T10:10:02.000Z</time>
</trkpt>
<trkpt lat="31.5224892" lon="35.3615224">
<ele>294.300018</ele>
<time>2014-01-03T10:10:08.000Z</time>
</trkpt>
<trkpt lat="31.5226169" lon="35.3616457">
<ele>292.860016</ele>
<time>2014-01-03T10:10:10.000Z</time>
</trkpt>
<trkpt lat="31.5227221" lon="35.3617586">
<ele>292.380005</ele>
<time>2014-01-03T10:10:12.000Z</time>
</trkpt>
<trkpt lat="31.5229121" lon="35.3619209">
<ele>290.459991</ele>
<time>2014-01-03T10:10:17.000Z</time>
</trkpt>
<trkpt lat="31.5230095" lon="35.3619991">
<ele>287.570007</ele>
<time>2014-01-03T10:10:19.000Z</time>
</trkpt>
<trkpt lat="31.5230960" lon="35.3620883">
<ele>286.610016</ele>
<time>2014-01-03T10:10:21.000Z</time>
</trkpt>
<trkpt lat="31.5231645" lon="35.3623480">
<ele>286.130005</ele>
<time>2014-01-03T10:10:26.000Z</time>
</trkpt>
<trkpt lat="31.5231707" lon="35.3624687">
<ele>288.529999</ele>
<time>2014-01-03T10:10:31.000Z</time>
</trkpt>
<trkpt lat="31.5232898" lon="35.3626855">
<ele>289.010010</ele>
<time>2014-01-03T10:10:40.000Z</time>
</trkpt>
<trkpt lat="31.5233456" lon="35.3627768">
<ele>288.050018</ele>
<time>2014-01-03T10:10:43.000Z</time>
</trkpt>
<trkpt lat="31.5235393" lon="35.3633201">
<ele>291.899994</ele>
<time>2014-01-03T10:11:11.000Z</time>
</trkpt>
<trkpt lat="31.5235783" lon="35.3634315">
<ele>293.820007</ele>
<time>2014-01-03T10:11:16.000Z</time>
</trkpt>
<trkpt lat="31.5236431" lon="35.3635321">
<ele>294.300018</ele>
<time>2014-01-03T10:11:22.000Z</time>
</trkpt>
<trkpt lat="31.5237201" lon="35.3635949">
<ele>294.300018</ele>
<time>2014-01-03T10:11:58.000Z</time>
</trkpt>
<trkpt lat="31.5241347" lon="35.3638562">
<ele>291.899994</ele>
<time>2014-01-03T10:12:07.000Z</time>
</trkpt>
<trkpt lat="31.5243998" lon="35.3640788">
<ele>291.899994</ele>
<time>2014-01-03T10:12:14.000Z</time>
</trkpt>
<trkpt lat="31.5244441" lon="35.3642116">
<ele>292.860016</ele>
<time>2014-01-03T10:12:17.000Z</time>
</trkpt>
<trkpt lat="31.5244508" lon="35.3644286">
<ele>292.380005</ele>
<time>2014-01-03T10:12:21.000Z</time>
</trkpt>
<trkpt lat="31.5245193" lon="35.3645552">
<ele>292.860016</ele>
<time>2014-01-03T10:12:24.000Z</time>
</trkpt>
<trkpt lat="31.5247577" lon="35.3647763">
<ele>293.820007</ele>
<time>2014-01-03T10:12:33.000Z</time>
</trkpt>
<trkpt lat="31.5248116" lon="35.3648714">
<ele>294.300018</ele>
<time>2014-01-03T10:12:37.000Z</time>
</trkpt>
<trkpt lat="31.5248435" lon="35.3649824">
<ele>294.300018</ele>
<time>2014-01-03T10:12:41.000Z</time>
</trkpt>
<trkpt lat="31.5248981" lon="35.3650785">
<ele>295.260010</ele>
<time>2014-01-03T10:12:46.000Z</time>
</trkpt>
<trkpt lat="31.5250235" lon="35.3652456">
<ele>297.179993</ele>
<time>2014-01-03T10:12:57.000Z</time>
</trkpt>
<trkpt lat="31.5254145" lon="35.3656197">
<ele>299.110016</ele>
<time>2014-01-03T10:13:20.000Z</time>
</trkpt>
<trkpt lat="31.5255805" lon="35.3657346">
<ele>299.110016</ele>
<time>2014-01-03T10:13:28.000Z</time>
</trkpt>
<trkpt lat="31.5260418" lon="35.3659534">
<ele>300.550018</ele>
<time>2014-01-03T10:13:48.000Z</time>
</trkpt>
<trkpt lat="31.5261311" lon="35.3660101">
<ele>300.550018</ele>
<time>2014-01-03T10:13:52.000Z</time>
</trkpt>
<trkpt lat="31.5262853" lon="35.3661586">
<ele>301.989990</ele>
<time>2014-01-03T10:14:01.000Z</time>
</trkpt>
<trkpt lat="31.5263515" lon="35.3662456">
<ele>301.029999</ele>
<time>2014-01-03T10:14:05.000Z</time>
</trkpt>
<trkpt lat="31.5265670" lon="35.3665655">
<ele>295.260010</ele>
<time>2014-01-03T10:14:15.000Z</time>
</trkpt>
<trkpt lat="31.5266169" lon="35.3666649">
<ele>294.779999</ele>
<time>2014-01-03T10:14:17.000Z</time>
</trkpt>
<trkpt lat="31.5266553" lon="35.3668689">
<ele>298.149994</ele>
<time>2014-01-03T10:14:29.000Z</time>
</trkpt>
<trkpt lat="31.5266449" lon="35.3669737">
<ele>299.589996</ele>
<time>2014-01-03T10:14:37.000Z</time>
</trkpt>
<trkpt lat="31.5266537" lon="35.3670855">
<ele>301.029999</ele>
<time>2014-01-03T10:14:44.000Z</time>
</trkpt>
<trkpt lat="31.5267189" lon="35.3671801">
<ele>301.989990</ele>
<time>2014-01-03T10:14:52.000Z</time>
</trkpt>
<trkpt lat="31.5267777" lon="35.3672723">
<ele>302.470001</ele>
<time>2014-01-03T10:14:59.000Z</time>
</trkpt>
<trkpt lat="31.5269910" lon="35.3673812">
<ele>301.029999</ele>
<time>2014-01-03T10:15:06.000Z</time>
</trkpt>
<trkpt lat="31.5271197" lon="35.3674081">
<ele>300.070007</ele>
<time>2014-01-03T10:15:09.000Z</time>
</trkpt>
<trkpt lat="31.5273328" lon="35.3673756">
<ele>298.149994</ele>
<time>2014-01-03T10:15:15.000Z</time>
</trkpt>
<trkpt lat="31.5274021" lon="35.3674441">
<ele>296.699982</ele>
<time>2014-01-03T10:15:17.000Z</time>
</trkpt>
<trkpt lat="31.5274203" lon="35.3675521">
<ele>297.669983</ele>
<time>2014-01-03T10:15:21.000Z</time>
</trkpt>
<trkpt lat="31.5274065" lon="35.3677867">
<ele>300.070007</ele>
<time>2014-01-03T10:15:37.000Z</time>
</trkpt>
<trkpt lat="31.5274411" lon="35.3679002">
<ele>301.029999</ele>
<time>2014-01-03T10:15:45.000Z</time>
</trkpt>
<trkpt lat="31.5275162" lon="35.3679620">
<ele>301.510010</ele>
<time>2014-01-03T10:15:52.000Z</time>
</trkpt>
<trkpt lat="31.5278075" lon="35.3680265">
<ele>296.699982</ele>
<time>2014-01-03T10:16:42.000Z</time>
</trkpt>
<trkpt lat="31.5279117" lon="35.3680759">
<ele>295.260010</ele>
<time>2014-01-03T10:16:45.000Z</time>
</trkpt>
<trkpt lat="31.5282106" lon="35.3680452">
<ele>290.940002</ele>
<time>2014-01-03T10:16:53.000Z</time>
</trkpt>
<trkpt lat="31.5283044" lon="35.3680966">
<ele>289.010010</ele>
<time>2014-01-03T10:16:55.000Z</time>
</trkpt>
<trkpt lat="31.5283565" lon="35.3682221">
<ele>289.010010</ele>
<time>2014-01-03T10:16:58.000Z</time>
</trkpt>
<trkpt lat="31.5283675" lon="35.3683455">
<ele>289.010010</ele>
<time>2014-01-03T10:17:01.000Z</time>
</trkpt>
<trkpt lat="31.5283418" lon="35.3684551">
<ele>288.050018</ele>
<time>2014-01-03T10:17:03.000Z</time>
</trkpt>
<trkpt lat="31.5282868" lon="35.3685698">
<ele>286.130005</ele>
<time>2014-01-03T10:17:05.000Z</time>
</trkpt>
<trkpt lat="31.5281228" lon="35.3687612">
<ele>284.209991</ele>
<time>2014-01-03T10:17:09.000Z</time>
</trkpt>
<trkpt lat="31.5280561" lon="35.3688752">
<ele>283.729980</ele>
<time>2014-01-03T10:17:11.000Z</time>
</trkpt>
<trkpt lat="31.5280290" lon="35.3690198">
<ele>282.769989</ele>
<time>2014-01-03T10:17:13.000Z</time>
</trkpt>
<trkpt lat="31.5280394" lon="35.3691542">
<ele>282.769989</ele>
<time>2014-01-03T10:17:15.000Z</time>
</trkpt>
<trkpt lat="31.5281031" lon="35.3692373">
<ele>283.729980</ele>
<time>2014-01-03T10:17:19.000Z</time>
</trkpt>
<trkpt lat="31.5282037" lon="35.3692706">
<ele>285.170013</ele>
<time>2014-01-03T10:17:26.000Z</time>
</trkpt>
<trkpt lat="31.5288273" lon="35.3692045">
<ele>286.130005</ele>
<time>2014-01-03T10:17:54.000Z</time>
</trkpt>
<trkpt lat="31.5292411" lon="35.3691103">
<ele>287.570007</ele>
<time>2014-01-03T10:18:11.000Z</time>
</trkpt>
<trkpt lat="31.5297822" lon="35.3690622">
<ele>289.970001</ele>
<time>2014-01-03T10:18:34.000Z</time>
</trkpt>
<trkpt lat="31.5298829" lon="35.3690394">
<ele>290.459991</ele>
<time>2014-01-03T10:18:39.000Z</time>
</trkpt>
<trkpt lat="31.5299868" lon="35.3689819">
<ele>290.459991</ele>
<time>2014-01-03T10:18:45.000Z</time>
</trkpt>
<trkpt lat="31.5300690" lon="35.3690572">
<ele>290.940002</ele>
<time>2014-01-03T10:18:50.000Z</time>
</trkpt>
<trkpt lat="31.5302151" lon="35.3692699">
<ele>290.940002</ele>
<time>2014-01-03T10:18:59.000Z</time>
</trkpt>
<trkpt lat="31.5306523" lon="35.3694966">
<ele>292.380005</ele>
<time>2014-01-03T10:19:19.000Z</time>
</trkpt>
<trkpt lat="31.5308393" lon="35.3696341">
<ele>291.419983</ele>
<time>2014-01-03T10:19:25.000Z</time>
</trkpt>
<trkpt lat="31.5315509" lon="35.3699624">
<ele>289.970001</ele>
<time>2014-01-03T10:19:40.000Z</time>
</trkpt>
<trkpt lat="31.5316152" lon="35.3700420">
<ele>291.419983</ele>
<time>2014-01-03T10:19:46.000Z</time>
</trkpt>
<trkpt lat="31.5317222" lon="35.3701418">
<ele>289.970001</ele>
<time>2014-01-03T10:19:50.000Z</time>
</trkpt>
<trkpt lat="31.5322439" lon="35.3703849">
<ele>289.970001</ele>
<time>2014-01-03T10:20:02.000Z</time>
</trkpt>
<trkpt lat="31.5325578" lon="35.3705106">
<ele>289.970001</ele>
<time>2014-01-03T10:20:13.000Z</time>
</trkpt>
<trkpt lat="31.5330122" lon="35.3706575">
<ele>287.570007</ele>
<time>2014-01-03T10:20:25.000Z</time>
</trkpt>
<trkpt lat="31.5330957" lon="35.3707334">
<ele>288.050018</ele>
<time>2014-01-03T10:20:30.000Z</time>
</trkpt>
<trkpt lat="31.5331767" lon="35.3707957">
<ele>289.970001</ele>
<time>2014-01-03T10:20:38.000Z</time>
</trkpt>
<trkpt lat="31.5332527" lon="35.3708744">
<ele>289.970001</ele>
<time>2014-01-03T10:20:44.000Z</time>
</trkpt>
<trkpt lat="31.5333531" lon="35.3709121">
<ele>289.970001</ele>
<time>2014-01-03T10:20:48.000Z</time>
</trkpt>
<trkpt lat="31.5335479" lon="35.3709184">
<ele>290.459991</ele>
<time>2014-01-03T10:20:58.000Z</time>
</trkpt>
<trkpt lat="31.5338426" lon="35.3710067">
<ele>291.419983</ele>
<time>2014-01-03T10:21:14.000Z</time>
</trkpt>
<trkpt lat="31.5340230" lon="35.3709752">
<ele>293.820007</ele>
<time>2014-01-03T10:21:29.000Z</time>
</trkpt>
<trkpt lat="31.5341109" lon="35.3709780">
<ele>296.220001</ele>
<time>2014-01-03T10:21:37.000Z</time>
</trkpt>
<trkpt lat="31.5342954" lon="35.3710923">
<ele>297.179993</ele>
<time>2014-01-03T10:21:51.000Z</time>
</trkpt>
<trkpt lat="31.5343923" lon="35.3711767">
<ele>296.699982</ele>
<time>2014-01-03T10:21:55.000Z</time>
</trkpt>
<trkpt lat="31.5346717" lon="35.3714847">
<ele>295.739990</ele>
<time>2014-01-03T10:22:04.000Z</time>
</trkpt>
<trkpt lat="31.5348870" lon="35.3716643">
<ele>293.339996</ele>
<time>2014-01-03T10:22:08.000Z</time>
</trkpt>
<trkpt lat="31.5352763" lon="35.3718976">
<ele>294.300018</ele>
<time>2014-01-03T10:22:17.000Z</time>
</trkpt>
<trkpt lat="31.5353849" lon="35.3719419">
<ele>293.820007</ele>
<time>2014-01-03T10:22:20.000Z</time>
</trkpt>
<trkpt lat="31.5356147" lon="35.3719941">
<ele>293.820007</ele>
<time>2014-01-03T10:22:26.000Z</time>
</trkpt>
<trkpt lat="31.5358248" lon="35.3721343">
<ele>294.779999</ele>
<time>2014-01-03T10:22:33.000Z</time>
</trkpt>
<trkpt lat="31.5362501" lon="35.3722999">
<ele>293.820007</ele>
<time>2014-01-03T10:22:45.000Z</time>
</trkpt>
<trkpt lat="31.5363384" lon="35.3723685">
<ele>293.820007</ele>
<time>2014-01-03T10:22:50.000Z</time>
</trkpt>
<trkpt lat="31.5364124" lon="35.3724479">
<ele>294.779999</ele>
<time>2014-01-03T10:22:54.000Z</time>
</trkpt>
<trkpt lat="31.5365871" lon="35.3725387">
<ele>296.699982</ele>
<time>2014-01-03T10:23:05.000Z</time>
</trkpt>
<trkpt lat="31.5369990" lon="35.3726296">
<ele>295.739990</ele>
<time>2014-01-03T10:23:22.000Z</time>
</trkpt>
<trkpt lat="31.5372382" lon="35.3725661">
<ele>294.779999</ele>
<time>2014-01-03T10:23:28.000Z</time>
</trkpt>
<trkpt lat="31.5374283" lon="35.3724693">
<ele>293.339996</ele>
<time>2014-01-03T10:23:32.000Z</time>
</trkpt>
<trkpt lat="31.5375159" lon="35.3723973">
<ele>292.380005</ele>
<time>2014-01-03T10:23:34.000Z</time>
</trkpt>
<trkpt lat="31.5376212" lon="35.3723529">
<ele>291.419983</ele>
<time>2014-01-03T10:23:36.000Z</time>
</trkpt>
<trkpt lat="31.5377433" lon="35.3723575">
<ele>290.459991</ele>
<time>2014-01-03T10:23:38.000Z</time>
</trkpt>
<trkpt lat="31.5379944" lon="35.3724249">
<ele>288.529999</ele>
<time>2014-01-03T10:23:42.000Z</time>
</trkpt>
<trkpt lat="31.5381132" lon="35.3725099">
<ele>287.570007</ele>
<time>2014-01-03T10:23:44.000Z</time>
</trkpt>
<trkpt lat="31.5382900" lon="35.3726713">
<ele>288.050018</ele>
<time>2014-01-03T10:23:48.000Z</time>
</trkpt>
<trkpt lat="31.5388527" lon="35.3726174">
<ele>286.130005</ele>
<time>2014-01-03T10:23:59.000Z</time>
</trkpt>
<trkpt lat="31.5393574" lon="35.3725225">
<ele>285.649994</ele>
<time>2014-01-03T10:24:12.000Z</time>
</trkpt>
<trkpt lat="31.5395349" lon="35.3723336">
<ele>284.690002</ele>
<time>2014-01-03T10:24:20.000Z</time>
</trkpt>
<trkpt lat="31.5395896" lon="35.3722418">
<ele>284.690002</ele>
<time>2014-01-03T10:24:24.000Z</time>
</trkpt>
<trkpt lat="31.5397568" lon="35.3720159">
<ele>284.209991</ele>
<time>2014-01-03T10:25:13.000Z</time>
</trkpt>
<trkpt lat="31.5398675" lon="35.3719945">
<ele>284.690002</ele>
<time>2014-01-03T10:25:18.000Z</time>
</trkpt>
<trkpt lat="31.5399500" lon="35.3720673">
<ele>285.649994</ele>
<time>2014-01-03T10:25:24.000Z</time>
</trkpt>
<trkpt lat="31.5400109" lon="35.3721588">
<ele>285.649994</ele>
<time>2014-01-03T10:25:28.000Z</time>
</trkpt>
<trkpt lat="31.5402063" lon="35.3726051">
<ele>287.089996</ele>
<time>2014-01-03T10:25:45.000Z</time>
</trkpt>
<trkpt lat="31.5403475" lon="35.3727524">
<ele>289.010010</ele>
<time>2014-01-03T10:25:56.000Z</time>
</trkpt>
<trkpt lat="31.5405166" lon="35.3728867">
<ele>289.489990</ele>
<time>2014-01-03T10:26:08.000Z</time>
</trkpt>
<trkpt lat="31.5405960" lon="35.3729290">
<ele>289.970001</ele>
<time>2014-01-03T10:26:14.000Z</time>
</trkpt>
<trkpt lat="31.5407602" lon="35.3730683">
<ele>291.899994</ele>
<time>2014-01-03T10:26:28.000Z</time>
</trkpt>
<trkpt lat="31.5407896" lon="35.3731803">
<ele>292.380005</ele>
<time>2014-01-03T10:26:34.000Z</time>
</trkpt>
<trkpt lat="31.5407392" lon="35.3732697">
<ele>291.899994</ele>
<time>2014-01-03T10:26:39.000Z</time>
</trkpt>
<trkpt lat="31.5406573" lon="35.3733332">
<ele>291.899994</ele>
<time>2014-01-03T10:26:43.000Z</time>
</trkpt>
<trkpt lat="31.5404204" lon="35.3735824">
<ele>290.459991</ele>
<time>2014-01-03T10:26:52.000Z</time>
</trkpt>
<trkpt lat="31.5403518" lon="35.3736945">
<ele>289.489990</ele>
<time>2014-01-03T10:26:54.000Z</time>
</trkpt>
<trkpt lat="31.5402320" lon="35.3739520">
<ele>287.570007</ele>
<time>2014-01-03T10:26:58.000Z</time>
</trkpt>
<trkpt lat="31.5401883" lon="35.3740958">
<ele>287.089996</ele>
<time>2014-01-03T10:27:00.000Z</time>
</trkpt>
<trkpt lat="31.5401374" lon="35.3745700">
<ele>283.729980</ele>
<time>2014-01-03T10:27:06.000Z</time>
</trkpt>
<trkpt lat="31.5401297" lon="35.3748081">
<ele>284.690002</ele>
<time>2014-01-03T10:27:11.000Z</time>
</trkpt>
<trkpt lat="31.5399922" lon="35.3754442">
<ele>286.130005</ele>
<time>2014-01-03T10:27:26.000Z</time>
</trkpt>
<trkpt lat="31.5398881" lon="35.3756506">
<ele>286.610016</ele>
<time>2014-01-03T10:27:33.000Z</time>
</trkpt>
<trkpt lat="31.5397496" lon="35.3758408">
<ele>286.130005</ele>
<time>2014-01-03T10:27:38.000Z</time>
</trkpt>
<trkpt lat="31.5394298" lon="35.3763326">
<ele>282.769989</ele>
<time>2014-01-03T10:27:46.000Z</time>
</trkpt>
<trkpt lat="31.5392551" lon="35.3767088">
<ele>282.769989</ele>
<time>2014-01-03T10:27:52.000Z</time>
</trkpt>
<trkpt lat="31.5391870" lon="35.3769764">
<ele>279.880005</ele>
<time>2014-01-03T10:27:58.000Z</time>
</trkpt>
<trkpt lat="31.5392023" lon="35.3770928">
<ele>278.440002</ele>
<time>2014-01-03T10:28:00.000Z</time>
</trkpt>
<trkpt lat="31.5392543" lon="35.3772249">
<ele>276.519989</ele>
<time>2014-01-03T10:28:02.000Z</time>
</trkpt>
<trkpt lat="31.5393231" lon="35.3773323">
<ele>276.519989</ele>
<time>2014-01-03T10:28:04.000Z</time>
</trkpt>
<trkpt lat="31.5395496" lon="35.3775482">
<ele>278.440002</ele>
<time>2014-01-03T10:28:12.000Z</time>
</trkpt>
<trkpt lat="31.5397255" lon="35.3776718">
<ele>279.880005</ele>
<time>2014-01-03T10:28:20.000Z</time>
</trkpt>
<trkpt lat="31.5399072" lon="35.3778146">
<ele>280.839996</ele>
<time>2014-01-03T10:28:30.000Z</time>
</trkpt>
<trkpt lat="31.5400547" lon="35.3779779">
<ele>282.279999</ele>
<time>2014-01-03T10:28:39.000Z</time>
</trkpt>
<trkpt lat="31.5401171" lon="35.3780671">
<ele>283.250000</ele>
<time>2014-01-03T10:28:45.000Z</time>
</trkpt>
<trkpt lat="31.5403837" lon="35.3785467">
<ele>287.089996</ele>
<time>2014-01-03T10:29:15.000Z</time>
</trkpt>
<trkpt lat="31.5404685" lon="35.3787604">
<ele>286.130005</ele>
<time>2014-01-03T10:29:22.000Z</time>
</trkpt>
<trkpt lat="31.5404523" lon="35.3788923">
<ele>286.130005</ele>
<time>2014-01-03T10:29:25.000Z</time>
</trkpt>
<trkpt lat="31.5403771" lon="35.3790011">
<ele>285.649994</ele>
<time>2014-01-03T10:29:29.000Z</time>
</trkpt>
<trkpt lat="31.5401557" lon="35.3790949">
<ele>285.649994</ele>
<time>2014-01-03T10:29:37.000Z</time>
</trkpt>
<trkpt lat="31.5400482" lon="35.3791549">
<ele>285.649994</ele>
<time>2014-01-03T10:29:41.000Z</time>
</trkpt>
<trkpt lat="31.5399804" lon="35.3792291">
<ele>286.610016</ele>
<time>2014-01-03T10:29:44.000Z</time>
</trkpt>
<trkpt lat="31.5399169" lon="35.3793204">
<ele>287.089996</ele>
<time>2014-01-03T10:29:49.000Z</time>
</trkpt>
<trkpt lat="31.5397514" lon="35.3796781">
<ele>286.130005</ele>
<time>2014-01-03T10:29:59.000Z</time>
</trkpt>
<trkpt lat="31.5395301" lon="35.3799966">
<ele>286.130005</ele>
<time>2014-01-03T10:30:08.000Z</time>
</trkpt>
<trkpt lat="31.5394008" lon="35.3804173">
<ele>285.170013</ele>
<time>2014-01-03T10:30:16.000Z</time>
</trkpt>
<trkpt lat="31.5392235" lon="35.3808880">
<ele>284.209991</ele>
<time>2014-01-03T10:30:25.000Z</time>
</trkpt>
<trkpt lat="31.5391736" lon="35.3810358">
<ele>282.279999</ele>
<time>2014-01-03T10:30:27.000Z</time>
</trkpt>
<trkpt lat="31.5390868" lon="35.3813676">
<ele>279.880005</ele>
<time>2014-01-03T10:30:31.000Z</time>
</trkpt>
<trkpt lat="31.5390658" lon="35.3817256">
<ele>278.920013</ele>
<time>2014-01-03T10:30:38.000Z</time>
</trkpt>
<trkpt lat="31.5389891" lon="35.3819610">
<ele>278.920013</ele>
<time>2014-01-03T10:30:47.000Z</time>
</trkpt>
<trkpt lat="31.5387985" lon="35.3822874">
<ele>277.479980</ele>
<time>2014-01-03T10:30:56.000Z</time>
</trkpt>
<trkpt lat="31.5387558" lon="35.3823965">
<ele>277.479980</ele>
<time>2014-01-03T10:30:58.000Z</time>
</trkpt>
<trkpt lat="31.5387367" lon="35.3825126">
<ele>277.000000</ele>
<time>2014-01-03T10:31:00.000Z</time>
</trkpt>
<trkpt lat="31.5387729" lon="35.3828936">
<ele>277.959991</ele>
<time>2014-01-03T10:31:09.000Z</time>
</trkpt>
<trkpt lat="31.5387634" lon="35.3830287">
<ele>277.959991</ele>
<time>2014-01-03T10:31:13.000Z</time>
</trkpt>
<trkpt lat="31.5387415" lon="35.3831382">
<ele>277.959991</ele>
<time>2014-01-03T10:31:16.000Z</time>
</trkpt>
<trkpt lat="31.5386636" lon="35.3832247">
<ele>277.959991</ele>
<time>2014-01-03T10:31:20.000Z</time>
</trkpt>
<trkpt lat="31.5386423" lon="35.3832650">
<ele>279.880005</ele>
<time>2014-01-03T10:35:47.000Z</time>
</trkpt>
<trkpt lat="31.5386534" lon="35.3833928">
<ele>278.440002</ele>
<time>2014-01-03T10:35:59.000Z</time>
</trkpt>
<trkpt lat="31.5389519" lon="35.3832519">
<ele>280.839996</ele>
<time>2014-01-03T10:54:59.000Z</time>
</trkpt>
<trkpt lat="31.5390336" lon="35.3831619">
<ele>281.320007</ele>
<time>2014-01-03T10:55:04.000Z</time>
</trkpt>
<trkpt lat="31.5393882" lon="35.3829096">
<ele>282.279999</ele>
<time>2014-01-03T10:55:23.000Z</time>
</trkpt>
<trkpt lat="31.5398583" lon="35.3826360">
<ele>279.399994</ele>
<time>2014-01-03T10:55:36.000Z</time>
</trkpt>
<trkpt lat="31.5399556" lon="35.3826002">
<ele>277.959991</ele>
<time>2014-01-03T10:55:38.000Z</time>
</trkpt>
<trkpt lat="31.5400592" lon="35.3826013">
<ele>278.440002</ele>
<time>2014-01-03T10:55:41.000Z</time>
</trkpt>
<trkpt lat="31.5401476" lon="35.3826476">
<ele>277.959991</ele>
<time>2014-01-03T10:55:46.000Z</time>
</trkpt>
<trkpt lat="31.5401225" lon="35.3825129">
<ele>277.959991</ele>
<time>2014-01-03T10:56:34.000Z</time>
</trkpt>
<trkpt lat="31.5401828" lon="35.3824073">
<ele>278.920013</ele>
<time>2014-01-03T10:56:39.000Z</time>
</trkpt>
<trkpt lat="31.5402504" lon="35.3823383">
<ele>279.880005</ele>
<time>2014-01-03T10:56:45.000Z</time>
</trkpt>
<trkpt lat="31.5403072" lon="35.3822515">
<ele>281.800018</ele>
<time>2014-01-03T10:56:53.000Z</time>
</trkpt>
<trkpt lat="31.5404732" lon="35.3821354">
<ele>283.250000</ele>
<time>2014-01-03T10:57:07.000Z</time>
</trkpt>
<trkpt lat="31.5405579" lon="35.3820470">
<ele>282.769989</ele>
<time>2014-01-03T10:57:11.000Z</time>
</trkpt>
<trkpt lat="31.5406503" lon="35.3818462">
<ele>281.800018</ele>
<time>2014-01-03T10:57:17.000Z</time>
</trkpt>
<trkpt lat="31.5409187" lon="35.3816384">
<ele>281.320007</ele>
<time>2014-01-03T10:57:30.000Z</time>
</trkpt>
<trkpt lat="31.5410165" lon="35.3816019">
<ele>281.800018</ele>
<time>2014-01-03T10:57:34.000Z</time>
</trkpt>
<trkpt lat="31.5411170" lon="35.3816021">
<ele>281.800018</ele>
<time>2014-01-03T10:57:38.000Z</time>
</trkpt>
<trkpt lat="31.5412114" lon="35.3816352">
<ele>281.800018</ele>
<time>2014-01-03T10:57:42.000Z</time>
</trkpt>
<trkpt lat="31.5413088" lon="35.3817198">
<ele>281.800018</ele>
<time>2014-01-03T10:57:46.000Z</time>
</trkpt>
<trkpt lat="31.5413858" lon="35.3818068">
<ele>281.320007</ele>
<time>2014-01-03T10:57:49.000Z</time>
</trkpt>
<trkpt lat="31.5416266" lon="35.3821289">
<ele>278.920013</ele>
<time>2014-01-03T10:57:56.000Z</time>
</trkpt>
<trkpt lat="31.5417126" lon="35.3822123">
<ele>277.000000</ele>
<time>2014-01-03T10:57:58.000Z</time>
</trkpt>
<trkpt lat="31.5418268" lon="35.3822803">
<ele>275.070007</ele>
<time>2014-01-03T10:58:00.000Z</time>
</trkpt>
<trkpt lat="31.5422241" lon="35.3824221">
<ele>276.519989</ele>
<time>2014-01-03T10:58:13.000Z</time>
</trkpt>
<trkpt lat="31.5423220" lon="35.3824573">
<ele>277.000000</ele>
<time>2014-01-03T10:58:17.000Z</time>
</trkpt>
<trkpt lat="31.5425325" lon="35.3825041">
<ele>277.000000</ele>
<time>2014-01-03T10:58:25.000Z</time>
</trkpt>
<trkpt lat="31.5426228" lon="35.3824999">
<ele>277.959991</ele>
<time>2014-01-03T10:58:29.000Z</time>
</trkpt>
<trkpt lat="31.5430565" lon="35.3824289">
<ele>275.070007</ele>
<time>2014-01-03T10:58:41.000Z</time>
</trkpt>
<trkpt lat="31.5434223" lon="35.3822872">
<ele>273.149994</ele>
<time>2014-01-03T10:58:47.000Z</time>
</trkpt>
<trkpt lat="31.5435097" lon="35.3822974">
<ele>274.110016</ele>
<time>2014-01-03T10:58:50.000Z</time>
</trkpt>
<trkpt lat="31.5436816" lon="35.3823678">
<ele>273.630005</ele>
<time>2014-01-03T10:59:41.000Z</time>
</trkpt>
<trkpt lat="31.5437568" lon="35.3824290">
<ele>272.670013</ele>
<time>2014-01-03T10:59:44.000Z</time>
</trkpt>
<trkpt lat="31.5438512" lon="35.3825294">
<ele>272.190002</ele>
<time>2014-01-03T10:59:47.000Z</time>
</trkpt>
<trkpt lat="31.5440371" lon="35.3827894">
<ele>270.750000</ele>
<time>2014-01-03T10:59:53.000Z</time>
</trkpt>
<trkpt lat="31.5441096" lon="35.3828774">
<ele>269.309998</ele>
<time>2014-01-03T10:59:55.000Z</time>
</trkpt>
<trkpt lat="31.5441990" lon="35.3829701">
<ele>268.350006</ele>
<time>2014-01-03T10:59:57.000Z</time>
</trkpt>
<trkpt lat="31.5443027" lon="35.3830569">
<ele>267.380005</ele>
<time>2014-01-03T10:59:59.000Z</time>
</trkpt>
<trkpt lat="31.5446814" lon="35.3832595">
<ele>263.059998</ele>
<time>2014-01-03T11:00:05.000Z</time>
</trkpt>
<trkpt lat="31.5448724" lon="35.3834511">
<ele>262.100006</ele>
<time>2014-01-03T11:00:09.000Z</time>
</trkpt>
<trkpt lat="31.5449672" lon="35.3835207">
<ele>261.619995</ele>
<time>2014-01-03T11:00:11.000Z</time>
</trkpt>
<trkpt lat="31.5453727" lon="35.3837432">
<ele>257.769989</ele>
<time>2014-01-03T11:00:20.000Z</time>
</trkpt>
<trkpt lat="31.5454813" lon="35.3837651">
<ele>258.250000</ele>
<time>2014-01-03T11:00:23.000Z</time>
</trkpt>
<trkpt lat="31.5455709" lon="35.3837204">
<ele>260.170013</ele>
<time>2014-01-03T11:00:27.000Z</time>
</trkpt>
<trkpt lat="31.5456395" lon="35.3836353">
<ele>261.140015</ele>
<time>2014-01-03T11:00:33.000Z</time>
</trkpt>
<trkpt lat="31.5456889" lon="35.3834313">
<ele>261.619995</ele>
<time>2014-01-03T11:00:55.000Z</time>
</trkpt>
<trkpt lat="31.5457685" lon="35.3831989">
<ele>264.019989</ele>
<time>2014-01-03T11:01:08.000Z</time>
</trkpt>
<trkpt lat="31.5458119" lon="35.3829724">
<ele>265.940002</ele>
<time>2014-01-03T11:01:21.000Z</time>
</trkpt>
<trkpt lat="31.5458129" lon="35.3827073">
<ele>266.420013</ele>
<time>2014-01-03T11:01:34.000Z</time>
</trkpt>
<trkpt lat="31.5457812" lon="35.3824479">
<ele>266.420013</ele>
<time>2014-01-03T11:01:41.000Z</time>
</trkpt>
<trkpt lat="31.5457236" lon="35.3822005">
<ele>266.899994</ele>
<time>2014-01-03T11:01:48.000Z</time>
</trkpt>
<trkpt lat="31.5456722" lon="35.3820886">
<ele>266.899994</ele>
<time>2014-01-03T11:01:51.000Z</time>
</trkpt>
<trkpt lat="31.5456136" lon="35.3819907">
<ele>267.380005</ele>
<time>2014-01-03T11:01:54.000Z</time>
</trkpt>
<trkpt lat="31.5454421" lon="35.3817908">
<ele>267.860016</ele>
<time>2014-01-03T11:02:03.000Z</time>
</trkpt>
<trkpt lat="31.5453899" lon="35.3816682">
<ele>267.860016</ele>
<time>2014-01-03T11:02:07.000Z</time>
</trkpt>
<trkpt lat="31.5453466" lon="35.3813063">
<ele>267.860016</ele>
<time>2014-01-03T11:02:17.000Z</time>
</trkpt>
<trkpt lat="31.5452700" lon="35.3809575">
<ele>269.790009</ele>
<time>2014-01-03T11:02:30.000Z</time>
</trkpt>
<trkpt lat="31.5450765" lon="35.3803172">
<ele>267.860016</ele>
<time>2014-01-03T11:02:47.000Z</time>
</trkpt>
<trkpt lat="31.5449821" lon="35.3799565">
<ele>266.420013</ele>
<time>2014-01-03T11:02:53.000Z</time>
</trkpt>
<trkpt lat="31.5449884" lon="35.3798281">
<ele>265.940002</ele>
<time>2014-01-03T11:02:55.000Z</time>
</trkpt>
<trkpt lat="31.5450426" lon="35.3797231">
<ele>265.940002</ele>
<time>2014-01-03T11:02:57.000Z</time>
</trkpt>
<trkpt lat="31.5452582" lon="35.3794622">
<ele>264.019989</ele>
<time>2014-01-03T11:03:04.000Z</time>
</trkpt>
<trkpt lat="31.5453204" lon="35.3793629">
<ele>262.100006</ele>
<time>2014-01-03T11:03:06.000Z</time>
</trkpt>
<trkpt lat="31.5454358" lon="35.3791191">
<ele>258.729980</ele>
<time>2014-01-03T11:03:10.000Z</time>
</trkpt>
<trkpt lat="31.5455275" lon="35.3790363">
<ele>259.690002</ele>
<time>2014-01-03T11:03:13.000Z</time>
</trkpt>
<trkpt lat="31.5457149" lon="35.3789860">
<ele>259.209991</ele>
<time>2014-01-03T11:03:19.000Z</time>
</trkpt>
<trkpt lat="31.5458146" lon="35.3790299">
<ele>258.729980</ele>
<time>2014-01-03T11:03:22.000Z</time>
</trkpt>
<trkpt lat="31.5458385" lon="35.3791581">
<ele>258.250000</ele>
<time>2014-01-03T11:03:25.000Z</time>
</trkpt>
<trkpt lat="31.5458158" lon="35.3792685">
<ele>257.290009</ele>
<time>2014-01-03T11:03:59.000Z</time>
</trkpt>
<trkpt lat="31.5458874" lon="35.3791545">
<ele>257.290009</ele>
<time>2014-01-03T11:04:15.000Z</time>
</trkpt>
<trkpt lat="31.5459806" lon="35.3790837">
<ele>257.769989</ele>
<time>2014-01-03T11:04:19.000Z</time>
</trkpt>
<trkpt lat="31.5460993" lon="35.3790242">
<ele>257.290009</ele>
<time>2014-01-03T11:04:23.000Z</time>
</trkpt>
<trkpt lat="31.5466010" lon="35.3788664">
<ele>257.769989</ele>
<time>2014-01-03T11:04:40.000Z</time>
</trkpt>
<trkpt lat="31.5467132" lon="35.3788617">
<ele>257.769989</ele>
<time>2014-01-03T11:04:44.000Z</time>
</trkpt>
<trkpt lat="31.5471749" lon="35.3789275">
<ele>257.290009</ele>
<time>2014-01-03T11:04:56.000Z</time>
</trkpt>
<trkpt lat="31.5472763" lon="35.3788930">
<ele>257.290009</ele>
<time>2014-01-03T11:05:00.000Z</time>
</trkpt>
<trkpt lat="31.5474881" lon="35.3788960">
<ele>254.410004</ele>
<time>2014-01-03T11:05:05.000Z</time>
</trkpt>
<trkpt lat="31.5477381" lon="35.3788572">
<ele>252.960007</ele>
<time>2014-01-03T11:05:09.000Z</time>
</trkpt>
<trkpt lat="31.5478360" lon="35.3788099">
<ele>254.889999</ele>
<time>2014-01-03T11:05:13.000Z</time>
</trkpt>
<trkpt lat="31.5479196" lon="35.3787371">
<ele>255.369995</ele>
<time>2014-01-03T11:05:18.000Z</time>
</trkpt>
<trkpt lat="31.5480564" lon="35.3785633">
<ele>256.329987</ele>
<time>2014-01-03T11:05:27.000Z</time>
</trkpt>
<trkpt lat="31.5481624" lon="35.3784828">
<ele>255.850006</ele>
<time>2014-01-03T11:05:31.000Z</time>
</trkpt>
<trkpt lat="31.5482941" lon="35.3784104">
<ele>254.889999</ele>
<time>2014-01-03T11:05:34.000Z</time>
</trkpt>
<trkpt lat="31.5484899" lon="35.3783815">
<ele>255.850006</ele>
<time>2014-01-03T11:05:41.000Z</time>
</trkpt>
<trkpt lat="31.5486572" lon="35.3784341">
<ele>258.250000</ele>
<time>2014-01-03T11:05:55.000Z</time>
</trkpt>
<trkpt lat="31.5487478" lon="35.3784240">
<ele>259.690002</ele>
<time>2014-01-03T11:06:02.000Z</time>
</trkpt>
<trkpt lat="31.5488412" lon="35.3783812">
<ele>261.140015</ele>
<time>2014-01-03T11:06:11.000Z</time>
</trkpt>
<trkpt lat="31.5492676" lon="35.3781046">
<ele>265.940002</ele>
<time>2014-01-03T11:06:46.000Z</time>
</trkpt>
<trkpt lat="31.5493604" lon="35.3780917">
<ele>267.380005</ele>
<time>2014-01-03T11:06:54.000Z</time>
</trkpt>
<trkpt lat="31.5495409" lon="35.3781642">
<ele>267.860016</ele>
<time>2014-01-03T11:07:08.000Z</time>
</trkpt>
<trkpt lat="31.5498272" lon="35.3785880">
<ele>264.500000</ele>
<time>2014-01-03T11:07:18.000Z</time>
</trkpt>
<trkpt lat="31.5499639" lon="35.3788521">
<ele>262.100006</ele>
<time>2014-01-03T11:07:22.000Z</time>
</trkpt>
<trkpt lat="31.5500691" lon="35.3791217">
<ele>260.649994</ele>
<time>2014-01-03T11:07:26.000Z</time>
</trkpt>
<trkpt lat="31.5502475" lon="35.3795171">
<ele>258.250000</ele>
<time>2014-01-03T11:07:32.000Z</time>
</trkpt>
<trkpt lat="31.5503358" lon="35.3798529">
<ele>259.690002</ele>
<time>2014-01-03T11:07:42.000Z</time>
</trkpt>
<trkpt lat="31.5503630" lon="35.3799573">
<ele>260.170013</ele>
<time>2014-01-03T11:07:46.000Z</time>
</trkpt>
<trkpt lat="31.5504238" lon="35.3800539">
<ele>260.649994</ele>
<time>2014-01-03T11:07:50.000Z</time>
</trkpt>
<trkpt lat="31.5506741" lon="35.3802225">
<ele>261.140015</ele>
<time>2014-01-03T11:08:03.000Z</time>
</trkpt>
<trkpt lat="31.5507438" lon="35.3803120">
<ele>260.649994</ele>
<time>2014-01-03T11:08:06.000Z</time>
</trkpt>
<trkpt lat="31.5509409" lon="35.3806872">
<ele>257.290009</ele>
<time>2014-01-03T11:08:12.000Z</time>
</trkpt>
<trkpt lat="31.5510356" lon="35.3808170">
<ele>256.329987</ele>
<time>2014-01-03T11:08:14.000Z</time>
</trkpt>
<trkpt lat="31.5511429" lon="35.3809103">
<ele>255.369995</ele>
<time>2014-01-03T11:08:16.000Z</time>
</trkpt>
<trkpt lat="31.5512685" lon="35.3809317">
<ele>254.889999</ele>
<time>2014-01-03T11:08:18.000Z</time>
</trkpt>
<trkpt lat="31.5517560" lon="35.3807786">
<ele>252.960007</ele>
<time>2014-01-03T11:08:27.000Z</time>
</trkpt>
<trkpt lat="31.5518551" lon="35.3807117">
<ele>251.519989</ele>
<time>2014-01-03T11:08:29.000Z</time>
</trkpt>
<trkpt lat="31.5520740" lon="35.3805215">
<ele>248.160004</ele>
<time>2014-01-03T11:08:33.000Z</time>
</trkpt>
<trkpt lat="31.5525006" lon="35.3803565">
<ele>244.309998</ele>
<time>2014-01-03T11:08:39.000Z</time>
</trkpt>
<trkpt lat="31.5526433" lon="35.3803611">
<ele>243.350006</ele>
<time>2014-01-03T11:08:41.000Z</time>
</trkpt>
<trkpt lat="31.5527618" lon="35.3804155">
<ele>242.869995</ele>
<time>2014-01-03T11:08:43.000Z</time>
</trkpt>
<trkpt lat="31.5528416" lon="35.3804899">
<ele>242.869995</ele>
<time>2014-01-03T11:08:45.000Z</time>
</trkpt>
<trkpt lat="31.5529345" lon="35.3805919">
<ele>243.350006</ele>
<time>2014-01-03T11:08:48.000Z</time>
</trkpt>
<trkpt lat="31.5530661" lon="35.3808044">
<ele>244.790009</ele>
<time>2014-01-03T11:08:56.000Z</time>
</trkpt>
<trkpt lat="31.5531856" lon="35.3810536">
<ele>242.389999</ele>
<time>2014-01-03T11:09:01.000Z</time>
</trkpt>
<trkpt lat="31.5534345" lon="35.3819066">
<ele>237.100006</ele>
<time>2014-01-03T11:09:11.000Z</time>
</trkpt>
<trkpt lat="31.5534727" lon="35.3822277">
<ele>236.139999</ele>
<time>2014-01-03T11:09:15.000Z</time>
</trkpt>
<trkpt lat="31.5535162" lon="35.3823751">
<ele>236.139999</ele>
<time>2014-01-03T11:09:17.000Z</time>
</trkpt>
<trkpt lat="31.5538243" lon="35.3830107">
<ele>237.579987</ele>
<time>2014-01-03T11:09:27.000Z</time>
</trkpt>
<trkpt lat="31.5538787" lon="35.3831091">
<ele>238.059998</ele>
<time>2014-01-03T11:09:30.000Z</time>
</trkpt>
<trkpt lat="31.5539961" lon="35.3832878">
<ele>239.990005</ele>
<time>2014-01-03T11:09:40.000Z</time>
</trkpt>
<trkpt lat="31.5542150" lon="35.3836873">
<ele>239.509995</ele>
<time>2014-01-03T11:09:56.000Z</time>
</trkpt>
<trkpt lat="31.5542735" lon="35.3837685">
<ele>238.059998</ele>
<time>2014-01-03T11:09:58.000Z</time>
</trkpt>
<trkpt lat="31.5544222" lon="35.3840247">
<ele>232.779999</ele>
<time>2014-01-03T11:10:02.000Z</time>
</trkpt>
<trkpt lat="31.5545066" lon="35.3841384">
<ele>233.259995</ele>
<time>2014-01-03T11:10:04.000Z</time>
</trkpt>
<trkpt lat="31.5545911" lon="35.3842089">
<ele>233.740005</ele>
<time>2014-01-03T11:10:06.000Z</time>
</trkpt>
<trkpt lat="31.5550335" lon="35.3844402">
<ele>238.540009</ele>
<time>2014-01-03T11:10:29.000Z</time>
</trkpt>
<trkpt lat="31.5551317" lon="35.3845226">
<ele>237.579987</ele>
<time>2014-01-03T11:10:32.000Z</time>
</trkpt>
<trkpt lat="31.5557627" lon="35.3851271">
<ele>236.619995</ele>
<time>2014-01-03T11:10:49.000Z</time>
</trkpt>
<trkpt lat="31.5558239" lon="35.3852071">
<ele>236.619995</ele>
<time>2014-01-03T11:10:53.000Z</time>
</trkpt>
<trkpt lat="31.5560637" lon="35.3857616">
<ele>236.619995</ele>
<time>2014-01-03T11:11:11.000Z</time>
</trkpt>
<trkpt lat="31.5562555" lon="35.3860868">
<ele>233.740005</ele>
<time>2014-01-03T11:11:18.000Z</time>
</trkpt>
<trkpt lat="31.5563209" lon="35.3861794">
<ele>233.740005</ele>
<time>2014-01-03T11:11:20.000Z</time>
</trkpt>
<trkpt lat="31.5563970" lon="35.3862579">
<ele>232.779999</ele>
<time>2014-01-03T11:11:22.000Z</time>
</trkpt>
<trkpt lat="31.5564812" lon="35.3863303">
<ele>232.300003</ele>
<time>2014-01-03T11:11:24.000Z</time>
</trkpt>
<trkpt lat="31.5566880" lon="35.3864286">
<ele>231.809998</ele>
<time>2014-01-03T11:11:28.000Z</time>
</trkpt>
<trkpt lat="31.5567963" lon="35.3864356">
<ele>230.850006</ele>
<time>2014-01-03T11:11:30.000Z</time>
</trkpt>
<trkpt lat="31.5568907" lon="35.3864094">
<ele>230.369995</ele>
<time>2014-01-03T11:11:32.000Z</time>
</trkpt>
<trkpt lat="31.5570615" lon="35.3862363">
<ele>230.369995</ele>
<time>2014-01-03T11:11:38.000Z</time>
</trkpt>
<trkpt lat="31.5571215" lon="35.3861310">
<ele>230.369995</ele>
<time>2014-01-03T11:11:41.000Z</time>
</trkpt>
<trkpt lat="31.5572901" lon="35.3857965">
<ele>230.850006</ele>
<time>2014-01-03T11:11:52.000Z</time>
</trkpt>
<trkpt lat="31.5574063" lon="35.3854192">
<ele>231.329987</ele>
<time>2014-01-03T11:12:03.000Z</time>
</trkpt>
<trkpt lat="31.5574355" lon="35.3851746">
<ele>229.889999</ele>
<time>2014-01-03T11:12:10.000Z</time>
</trkpt>
<trkpt lat="31.5574226" lon="35.3850482">
<ele>228.930008</ele>
<time>2014-01-03T11:12:13.000Z</time>
</trkpt>
<trkpt lat="31.5573860" lon="35.3849168">
<ele>227.969986</ele>
<time>2014-01-03T11:12:16.000Z</time>
</trkpt>
<trkpt lat="31.5572206" lon="35.3846580">
<ele>225.089996</ele>
<time>2014-01-03T11:12:22.000Z</time>
</trkpt>
<trkpt lat="31.5571411" lon="35.3843149">
<ele>222.680008</ele>
<time>2014-01-03T11:12:28.000Z</time>
</trkpt>
<trkpt lat="31.5571129" lon="35.3839483">
<ele>223.639999</ele>
<time>2014-01-03T11:12:36.000Z</time>
</trkpt>
<trkpt lat="31.5570776" lon="35.3838220">
<ele>224.119995</ele>
<time>2014-01-03T11:12:40.000Z</time>
</trkpt>
<trkpt lat="31.5570265" lon="35.3837275">
<ele>225.089996</ele>
<time>2014-01-03T11:12:45.000Z</time>
</trkpt>
<trkpt lat="31.5569641" lon="35.3836544">
<ele>226.529999</ele>
<time>2014-01-03T11:12:50.000Z</time>
</trkpt>
<trkpt lat="31.5568725" lon="35.3836111">
<ele>227.969986</ele>
<time>2014-01-03T11:12:56.000Z</time>
</trkpt>
<trkpt lat="31.5565855" lon="35.3836030">
<ele>228.930008</ele>
<time>2014-01-03T11:13:14.000Z</time>
</trkpt>
<trkpt lat="31.5560793" lon="35.3836542">
<ele>232.779999</ele>
<time>2014-01-03T11:13:46.000Z</time>
</trkpt>
<trkpt lat="31.5559850" lon="35.3836420">
<ele>233.259995</ele>
<time>2014-01-03T11:13:51.000Z</time>
</trkpt>
<trkpt lat="31.5558943" lon="35.3836006">
<ele>232.300003</ele>
<time>2014-01-03T11:13:54.000Z</time>
</trkpt>
<trkpt lat="31.5558002" lon="35.3834759">
<ele>231.329987</ele>
<time>2014-01-03T11:13:57.000Z</time>
</trkpt>
<trkpt lat="31.5557460" lon="35.3833370">
<ele>230.369995</ele>
<time>2014-01-03T11:13:59.000Z</time>
</trkpt>
<trkpt lat="31.5556281" lon="35.3828211">
<ele>228.930008</ele>
<time>2014-01-03T11:14:07.000Z</time>
</trkpt>
<trkpt lat="31.5555107" lon="35.3824346">
<ele>228.449997</ele>
<time>2014-01-03T11:14:13.000Z</time>
</trkpt>
<trkpt lat="31.5555076" lon="35.3823186">
<ele>228.930008</ele>
<time>2014-01-03T11:14:16.000Z</time>
</trkpt>
<trkpt lat="31.5555400" lon="35.3821972">
<ele>228.449997</ele>
<time>2014-01-03T11:14:20.000Z</time>
</trkpt>
<trkpt lat="31.5556519" lon="35.3819665">
<ele>227.969986</ele>
<time>2014-01-03T11:14:26.000Z</time>
</trkpt>
<trkpt lat="31.5556756" lon="35.3818576">
<ele>229.410004</ele>
<time>2014-01-03T11:14:30.000Z</time>
</trkpt>
<trkpt lat="31.5556689" lon="35.3813684">
<ele>231.809998</ele>
<time>2014-01-03T11:14:47.000Z</time>
</trkpt>
<trkpt lat="31.5557023" lon="35.3810057">
<ele>231.809998</ele>
<time>2014-01-03T11:15:00.000Z</time>
</trkpt>
<trkpt lat="31.5557854" lon="35.3806469">
<ele>232.300003</ele>
<time>2014-01-03T11:15:12.000Z</time>
</trkpt>
<trkpt lat="31.5557965" lon="35.3802782">
<ele>234.699997</ele>
<time>2014-01-03T11:15:26.000Z</time>
</trkpt>
<trkpt lat="31.5557771" lon="35.3800404">
<ele>236.139999</ele>
<time>2014-01-03T11:15:39.000Z</time>
</trkpt>
<trkpt lat="31.5557622" lon="35.3799262">
<ele>238.059998</ele>
<time>2014-01-03T11:15:46.000Z</time>
</trkpt>
<trkpt lat="31.5557347" lon="35.3797066">
<ele>237.100006</ele>
<time>2014-01-03T11:25:58.000Z</time>
</trkpt>
<trkpt lat="31.5557127" lon="35.3794376">
<ele>236.619995</ele>
<time>2014-01-03T11:26:13.000Z</time>
</trkpt>
<trkpt lat="31.5556710" lon="35.3792899">
<ele>236.139999</ele>
<time>2014-01-03T11:26:16.000Z</time>
</trkpt>
<trkpt lat="31.5555385" lon="35.3789457">
<ele>237.100006</ele>
<time>2014-01-03T11:26:29.000Z</time>
</trkpt>
<trkpt lat="31.5554763" lon="35.3785765">
<ele>236.619995</ele>
<time>2014-01-03T11:26:42.000Z</time>
</trkpt>
<trkpt lat="31.5555186" lon="35.3784573">
<ele>236.619995</ele>
<time>2014-01-03T11:26:45.000Z</time>
</trkpt>
<trkpt lat="31.5555858" lon="35.3783470">
<ele>238.059998</ele>
<time>2014-01-03T11:26:52.000Z</time>
</trkpt>
<trkpt lat="31.5556365" lon="35.3782296">
<ele>239.509995</ele>
<time>2014-01-03T11:26:59.000Z</time>
</trkpt>
<trkpt lat="31.5556663" lon="35.3779840">
<ele>241.910004</ele>
<time>2014-01-03T11:27:11.000Z</time>
</trkpt>
<trkpt lat="31.5556349" lon="35.3777268">
<ele>242.869995</ele>
<time>2014-01-03T11:27:24.000Z</time>
</trkpt>
<trkpt lat="31.5555706" lon="35.3775061">
<ele>242.389999</ele>
<time>2014-01-03T11:27:31.000Z</time>
</trkpt>
<trkpt lat="31.5553302" lon="35.3768335">
<ele>243.350006</ele>
<time>2014-01-03T11:27:55.000Z</time>
</trkpt>
<trkpt lat="31.5552715" lon="35.3764706">
<ele>241.910004</ele>
<time>2014-01-03T11:28:02.000Z</time>
</trkpt>
<trkpt lat="31.5551773" lon="35.3761911">
<ele>241.910004</ele>
<time>2014-01-03T11:28:08.000Z</time>
</trkpt>
<trkpt lat="31.5550849" lon="35.3758600">
<ele>242.389999</ele>
<time>2014-01-03T11:28:14.000Z</time>
</trkpt>
<trkpt lat="31.5550630" lon="35.3756481">
<ele>244.309998</ele>
<time>2014-01-03T11:28:22.000Z</time>
</trkpt>
<trkpt lat="31.5550151" lon="35.3755649">
<ele>244.790009</ele>
<time>2014-01-03T11:28:27.000Z</time>
</trkpt>
<trkpt lat="31.5549730" lon="35.3754564">
<ele>244.309998</ele>
<time>2014-01-03T11:28:31.000Z</time>
</trkpt>
<trkpt lat="31.5548643" lon="35.3752276">
<ele>242.869995</ele>
<time>2014-01-03T11:28:37.000Z</time>
</trkpt>
<trkpt lat="31.5547199" lon="35.3750264">
<ele>244.309998</ele>
<time>2014-01-03T11:28:44.000Z</time>
</trkpt>
<trkpt lat="31.5546822" lon="35.3749350">
<ele>244.309998</ele>
<time>2014-01-03T11:29:11.000Z</time>
</trkpt>
<trkpt lat="31.5544693" lon="35.3747949">
<ele>242.389999</ele>
<time>2014-01-03T11:29:19.000Z</time>
</trkpt>
<trkpt lat="31.5542519" lon="35.3747128">
<ele>241.430008</ele>
<time>2014-01-03T11:29:24.000Z</time>
</trkpt>
<trkpt lat="31.5541687" lon="35.3746569">
<ele>242.389999</ele>
<time>2014-01-03T11:29:28.000Z</time>
</trkpt>
<trkpt lat="31.5541020" lon="35.3745858">
<ele>243.829987</ele>
<time>2014-01-03T11:29:35.000Z</time>
</trkpt>
<trkpt lat="31.5540330" lon="35.3744717">
<ele>244.790009</ele>
<time>2014-01-03T11:29:41.000Z</time>
</trkpt>
<trkpt lat="31.5538893" lon="35.3743064">
<ele>248.639999</ele>
<time>2014-01-03T11:29:55.000Z</time>
</trkpt>
<trkpt lat="31.5538278" lon="35.3741170">
<ele>252.000000</ele>
<time>2014-01-03T11:30:12.000Z</time>
</trkpt>
<trkpt lat="31.5532234" lon="35.3740799">
<ele>254.410004</ele>
<time>2014-01-03T11:30:54.000Z</time>
</trkpt>
<trkpt lat="31.5528209" lon="35.3741349">
<ele>257.769989</ele>
<time>2014-01-03T11:31:22.000Z</time>
</trkpt>
<trkpt lat="31.5525339" lon="35.3741328">
<ele>259.690002</ele>
<time>2014-01-03T11:31:40.000Z</time>
</trkpt>
<trkpt lat="31.5523434" lon="35.3740930">
<ele>261.619995</ele>
<time>2014-01-03T11:31:53.000Z</time>
</trkpt>
<trkpt lat="31.5518722" lon="35.3739045">
<ele>262.579987</ele>
<time>2014-01-03T11:32:20.000Z</time>
</trkpt>
<trkpt lat="31.5516203" lon="35.3738431">
<ele>261.140015</ele>
<time>2014-01-03T11:32:27.000Z</time>
</trkpt>
<trkpt lat="31.5515106" lon="35.3737942">
<ele>259.690002</ele>
<time>2014-01-03T11:32:29.000Z</time>
</trkpt>
<trkpt lat="31.5513925" lon="35.3737151">
<ele>258.729980</ele>
<time>2014-01-03T11:32:31.000Z</time>
</trkpt>
<trkpt lat="31.5512954" lon="35.3735974">
<ele>257.290009</ele>
<time>2014-01-03T11:32:33.000Z</time>
</trkpt>
<trkpt lat="31.5511672" lon="35.3733322">
<ele>256.329987</ele>
<time>2014-01-03T11:32:37.000Z</time>
</trkpt>
<trkpt lat="31.5510591" lon="35.3729806">
<ele>259.690002</ele>
<time>2014-01-03T11:32:50.000Z</time>
</trkpt>
<trkpt lat="31.5510188" lon="35.3727692">
<ele>262.579987</ele>
<time>2014-01-03T11:33:05.000Z</time>
</trkpt>
<trkpt lat="31.5508661" lon="35.3723383">
<ele>265.459991</ele>
<time>2014-01-03T11:33:32.000Z</time>
</trkpt>
<trkpt lat="31.5508181" lon="35.3722208">
<ele>265.940002</ele>
<time>2014-01-03T11:33:40.000Z</time>
</trkpt>
<trkpt lat="31.5507533" lon="35.3721004">
<ele>265.940002</ele>
<time>2014-01-03T11:33:46.000Z</time>
</trkpt>
<trkpt lat="31.5506700" lon="35.3717855">
<ele>263.059998</ele>
<time>2014-01-03T11:33:53.000Z</time>
</trkpt>
<trkpt lat="31.5505765" lon="35.3715328">
<ele>263.059998</ele>
<time>2014-01-03T11:33:58.000Z</time>
</trkpt>
<trkpt lat="31.5505153" lon="35.3714549">
<ele>264.979980</ele>
<time>2014-01-03T11:34:05.000Z</time>
</trkpt>
<trkpt lat="31.5504668" lon="35.3713660">
<ele>267.380005</ele>
<time>2014-01-03T11:34:12.000Z</time>
</trkpt>
<trkpt lat="31.5504011" lon="35.3711475">
<ele>268.829987</ele>
<time>2014-01-03T11:34:27.000Z</time>
</trkpt>
<trkpt lat="31.5504123" lon="35.3710292">
<ele>268.350006</ele>
<time>2014-01-03T11:34:33.000Z</time>
</trkpt>
<trkpt lat="31.5504792" lon="35.3709190">
<ele>267.380005</ele>
<time>2014-01-03T11:34:36.000Z</time>
</trkpt>
<trkpt lat="31.5506272" lon="35.3707307">
<ele>264.500000</ele>
<time>2014-01-03T11:34:40.000Z</time>
</trkpt>
<trkpt lat="31.5506891" lon="35.3706141">
<ele>263.540009</ele>
<time>2014-01-03T11:34:42.000Z</time>
</trkpt>
<trkpt lat="31.5507194" lon="35.3704807">
<ele>264.500000</ele>
<time>2014-01-03T11:34:45.000Z</time>
</trkpt>
<trkpt lat="31.5507414" lon="35.3701424">
<ele>263.540009</ele>
<time>2014-01-03T11:34:53.000Z</time>
</trkpt>
<trkpt lat="31.5507633" lon="35.3700390">
<ele>265.940002</ele>
<time>2014-01-03T11:35:00.000Z</time>
</trkpt>
<trkpt lat="31.5509705" lon="35.3696730">
<ele>270.269989</ele>
<time>2014-01-03T11:35:31.000Z</time>
</trkpt>
<trkpt lat="31.5511209" lon="35.3693602">
<ele>268.829987</ele>
<time>2014-01-03T11:37:01.000Z</time>
</trkpt>
<trkpt lat="31.5511852" lon="35.3692529">
<ele>268.350006</ele>
<time>2014-01-03T11:37:05.000Z</time>
</trkpt>
<trkpt lat="31.5512299" lon="35.3690255">
<ele>267.860016</ele>
<time>2014-01-03T11:37:11.000Z</time>
</trkpt>
<trkpt lat="31.5511872" lon="35.3689055">
<ele>267.860016</ele>
<time>2014-01-03T11:37:16.000Z</time>
</trkpt>
<trkpt lat="31.5510975" lon="35.3688113">
<ele>268.829987</ele>
<time>2014-01-03T11:37:22.000Z</time>
</trkpt>
<trkpt lat="31.5510082" lon="35.3687550">
<ele>269.790009</ele>
<time>2014-01-03T11:37:28.000Z</time>
</trkpt>
<trkpt lat="31.5509094" lon="35.3687180">
<ele>271.709991</ele>
<time>2014-01-03T11:37:35.000Z</time>
</trkpt>
<trkpt lat="31.5506075" lon="35.3686730">
<ele>274.589996</ele>
<time>2014-01-03T11:37:58.000Z</time>
</trkpt>
<trkpt lat="31.5505128" lon="35.3686858">
<ele>276.519989</ele>
<time>2014-01-03T11:38:05.000Z</time>
</trkpt>
<trkpt lat="31.5503095" lon="35.3687527">
<ele>278.440002</ele>
<time>2014-01-03T11:38:21.000Z</time>
</trkpt>
<trkpt lat="31.5500041" lon="35.3688228">
<ele>276.519989</ele>
<time>2014-01-03T11:38:32.000Z</time>
</trkpt>
<trkpt lat="31.5497676" lon="35.3688007">
<ele>275.070007</ele>
<time>2014-01-03T11:38:36.000Z</time>
</trkpt>
<trkpt lat="31.5496585" lon="35.3687344">
<ele>275.070007</ele>
<time>2014-01-03T11:38:38.000Z</time>
</trkpt>
<trkpt lat="31.5495682" lon="35.3686368">
<ele>275.070007</ele>
<time>2014-01-03T11:38:40.000Z</time>
</trkpt>
<trkpt lat="31.5494833" lon="35.3685124">
<ele>273.630005</ele>
<time>2014-01-03T11:38:42.000Z</time>
</trkpt>
<trkpt lat="31.5493664" lon="35.3683963">
<ele>272.190002</ele>
<time>2014-01-03T11:38:44.000Z</time>
</trkpt>
<trkpt lat="31.5490269" lon="35.3681901">
<ele>273.149994</ele>
<time>2014-01-03T11:38:51.000Z</time>
</trkpt>
<trkpt lat="31.5488444" lon="35.3681371">
<ele>274.589996</ele>
<time>2014-01-03T11:39:23.000Z</time>
</trkpt>
<trkpt lat="31.5484253" lon="35.3680761">
<ele>271.229980</ele>
<time>2014-01-03T11:39:33.000Z</time>
</trkpt>
<trkpt lat="31.5482142" lon="35.3679982">
<ele>270.750000</ele>
<time>2014-01-03T11:39:37.000Z</time>
</trkpt>
<trkpt lat="31.5481428" lon="35.3679266">
<ele>272.190002</ele>
<time>2014-01-03T11:39:41.000Z</time>
</trkpt>
<trkpt lat="31.5480807" lon="35.3678168">
<ele>273.149994</ele>
<time>2014-01-03T11:39:47.000Z</time>
</trkpt>
<trkpt lat="31.5480529" lon="35.3676968">
<ele>273.149994</ele>
<time>2014-01-03T11:39:51.000Z</time>
</trkpt>
<trkpt lat="31.5480738" lon="35.3675093">
<ele>272.190002</ele>
<time>2014-01-03T11:39:54.000Z</time>
</trkpt>
<trkpt lat="31.5480674" lon="35.3671382">
<ele>271.709991</ele>
<time>2014-01-03T11:40:05.000Z</time>
</trkpt>
<trkpt lat="31.5481185" lon="35.3670267">
<ele>271.229980</ele>
<time>2014-01-03T11:40:09.000Z</time>
</trkpt>
<trkpt lat="31.5481874" lon="35.3669173">
<ele>270.750000</ele>
<time>2014-01-03T11:40:13.000Z</time>
</trkpt>
<trkpt lat="31.5482241" lon="35.3668164">
<ele>269.309998</ele>
<time>2014-01-03T11:40:16.000Z</time>
</trkpt>
<trkpt lat="31.5483067" lon="35.3664158">
<ele>264.019989</ele>
<time>2014-01-03T11:40:24.000Z</time>
</trkpt>
<trkpt lat="31.5484039" lon="35.3656996">
<ele>266.899994</ele>
<time>2014-01-03T11:40:48.000Z</time>
</trkpt>
<trkpt lat="31.5484105" lon="35.3655905">
<ele>268.350006</ele>
<time>2014-01-03T11:40:55.000Z</time>
</trkpt>
<trkpt lat="31.5484909" lon="35.3653887">
<ele>271.229980</ele>
<time>2014-01-03T11:41:09.000Z</time>
</trkpt>
<trkpt lat="31.5485664" lon="35.3653025">
<ele>273.149994</ele>
<time>2014-01-03T11:41:17.000Z</time>
</trkpt>
<trkpt lat="31.5486467" lon="35.3652510">
<ele>274.589996</ele>
<time>2014-01-03T11:41:26.000Z</time>
</trkpt>
<trkpt lat="31.5490111" lon="35.3650921">
<ele>270.750000</ele>
<time>2014-01-03T11:41:46.000Z</time>
</trkpt>
<trkpt lat="31.5491051" lon="35.3649995">
<ele>269.309998</ele>
<time>2014-01-03T11:42:46.000Z</time>
</trkpt>
<trkpt lat="31.5492043" lon="35.3649301">
<ele>268.350006</ele>
<time>2014-01-03T11:42:49.000Z</time>
</trkpt>
<trkpt lat="31.5493214" lon="35.3649184">
<ele>267.860016</ele>
<time>2014-01-03T11:42:52.000Z</time>
</trkpt>
<trkpt lat="31.5494571" lon="35.3649313">
<ele>266.420013</ele>
<time>2014-01-03T11:42:55.000Z</time>
</trkpt>
<trkpt lat="31.5496538" lon="35.3650095">
<ele>263.540009</ele>
<time>2014-01-03T11:42:59.000Z</time>
</trkpt>
<trkpt lat="31.5497744" lon="35.3650272">
<ele>262.100006</ele>
<time>2014-01-03T11:43:01.000Z</time>
</trkpt>
<trkpt lat="31.5502160" lon="35.3650229">
<ele>257.769989</ele>
<time>2014-01-03T11:43:09.000Z</time>
</trkpt>
<trkpt lat="31.5505978" lon="35.3649321">
<ele>252.960007</ele>
<time>2014-01-03T11:43:18.000Z</time>
</trkpt>
<trkpt lat="31.5506922" lon="35.3648989">
<ele>251.519989</ele>
<time>2014-01-03T11:43:20.000Z</time>
</trkpt>
<trkpt lat="31.5510212" lon="35.3647065">
<ele>245.750000</ele>
<time>2014-01-03T11:43:28.000Z</time>
</trkpt>
<trkpt lat="31.5511218" lon="35.3646151">
<ele>243.829987</ele>
<time>2014-01-03T11:43:31.000Z</time>
</trkpt>
<trkpt lat="31.5511766" lon="35.3644986">
<ele>241.910004</ele>
<time>2014-01-03T11:43:34.000Z</time>
</trkpt>
<trkpt lat="31.5512149" lon="35.3643459">
<ele>239.019989</ele>
<time>2014-01-03T11:43:37.000Z</time>
</trkpt>
<trkpt lat="31.5512160" lon="35.3642192">
<ele>238.059998</ele>
<time>2014-01-03T11:43:39.000Z</time>
</trkpt>
<trkpt lat="31.5512378" lon="35.3641150">
<ele>238.540009</ele>
<time>2014-01-03T11:43:41.000Z</time>
</trkpt>
<trkpt lat="31.5513377" lon="35.3638831">
<ele>236.619995</ele>
<time>2014-01-03T11:43:45.000Z</time>
</trkpt>
<trkpt lat="31.5513837" lon="35.3636195">
<ele>236.139999</ele>
<time>2014-01-03T11:43:49.000Z</time>
</trkpt>
<trkpt lat="31.5514440" lon="35.3634944">
<ele>236.139999</ele>
<time>2014-01-03T11:43:52.000Z</time>
</trkpt>
<trkpt lat="31.5514699" lon="35.3632608">
<ele>235.660004</ele>
<time>2014-01-03T11:43:58.000Z</time>
</trkpt>
<trkpt lat="31.5515540" lon="35.3629464">
<ele>242.389999</ele>
<time>2014-01-03T11:44:29.000Z</time>
</trkpt>
<trkpt lat="31.5515713" lon="35.3626242">
<ele>244.790009</ele>
<time>2014-01-03T11:45:49.000Z</time>
</trkpt>
<trkpt lat="31.5516192" lon="35.3625607">
<ele>246.229996</ele>
<time>2014-01-03T11:45:56.000Z</time>
</trkpt>
<trkpt lat="31.5517990" lon="35.3625355">
<ele>250.079987</ele>
<time>2014-01-03T11:46:11.000Z</time>
</trkpt>
<trkpt lat="31.5520977" lon="35.3626285">
<ele>249.600006</ele>
<time>2014-01-03T11:46:26.000Z</time>
</trkpt>
<trkpt lat="31.5522324" lon="35.3625923">
<ele>248.160004</ele>
<time>2014-01-03T11:46:29.000Z</time>
</trkpt>
<trkpt lat="31.5524216" lon="35.3624764">
<ele>247.199997</ele>
<time>2014-01-03T11:46:33.000Z</time>
</trkpt>
<trkpt lat="31.5524962" lon="35.3623515">
<ele>246.719986</ele>
<time>2014-01-03T11:46:36.000Z</time>
</trkpt>
<trkpt lat="31.5526043" lon="35.3619988">
<ele>242.869995</ele>
<time>2014-01-03T11:46:42.000Z</time>
</trkpt>
<trkpt lat="31.5526874" lon="35.3619139">
<ele>241.910004</ele>
<time>2014-01-03T11:46:44.000Z</time>
</trkpt>
<trkpt lat="31.5528661" lon="35.3618296">
<ele>242.869995</ele>
<time>2014-01-03T11:46:50.000Z</time>
</trkpt>
<trkpt lat="31.5530267" lon="35.3616849">
<ele>242.869995</ele>
<time>2014-01-03T11:46:59.000Z</time>
</trkpt>
<trkpt lat="31.5531810" lon="35.3614708">
<ele>239.990005</ele>
<time>2014-01-03T11:47:04.000Z</time>
</trkpt>
<trkpt lat="31.5532885" lon="35.3612086">
<ele>237.100006</ele>
<time>2014-01-03T11:47:08.000Z</time>
</trkpt>
<trkpt lat="31.5533641" lon="35.3611268">
<ele>236.139999</ele>
<time>2014-01-03T11:47:10.000Z</time>
</trkpt>
<trkpt lat="31.5534478" lon="35.3610903">
<ele>235.180008</ele>
<time>2014-01-03T11:47:12.000Z</time>
</trkpt>
<trkpt lat="31.5537635" lon="35.3609054">
<ele>232.300003</ele>
<time>2014-01-03T11:47:18.000Z</time>
</trkpt>
<trkpt lat="31.5538696" lon="35.3608865">
<ele>231.329987</ele>
<time>2014-01-03T11:47:20.000Z</time>
</trkpt>
<trkpt lat="31.5541905" lon="35.3609525">
<ele>228.930008</ele>
<time>2014-01-03T11:47:26.000Z</time>
</trkpt>
<trkpt lat="31.5543732" lon="35.3611148">
<ele>227.490005</ele>
<time>2014-01-03T11:47:30.000Z</time>
</trkpt>
<trkpt lat="31.5544480" lon="35.3612156">
<ele>227.969986</ele>
<time>2014-01-03T11:47:32.000Z</time>
</trkpt>
<trkpt lat="31.5545203" lon="35.3612923">
<ele>227.490005</ele>
<time>2014-01-03T11:47:34.000Z</time>
</trkpt>
<trkpt lat="31.5546188" lon="35.3613615">
<ele>227.969986</ele>
<time>2014-01-03T11:47:37.000Z</time>
</trkpt>
<trkpt lat="31.5549825" lon="35.3615298">
<ele>225.570007</ele>
<time>2014-01-03T11:47:44.000Z</time>
</trkpt>
<trkpt lat="31.5553236" lon="35.3617718">
<ele>223.639999</ele>
<time>2014-01-03T11:47:50.000Z</time>
</trkpt>
<trkpt lat="31.5555133" lon="35.3619223">
<ele>223.639999</ele>
<time>2014-01-03T11:47:54.000Z</time>
</trkpt>
<trkpt lat="31.5557465" lon="35.3620195">
<ele>222.199997</ele>
<time>2014-01-03T11:47:58.000Z</time>
</trkpt>
<trkpt lat="31.5558817" lon="35.3620347">
<ele>221.719986</ele>
<time>2014-01-03T11:48:00.000Z</time>
</trkpt>
<trkpt lat="31.5560034" lon="35.3620690">
<ele>219.800003</ele>
<time>2014-01-03T11:48:02.000Z</time>
</trkpt>
<trkpt lat="31.5561983" lon="35.3622161">
<ele>219.800003</ele>
<time>2014-01-03T11:48:06.000Z</time>
</trkpt>
<trkpt lat="31.5562914" lon="35.3622784">
<ele>219.800003</ele>
<time>2014-01-03T11:48:08.000Z</time>
</trkpt>
<trkpt lat="31.5567160" lon="35.3624264">
<ele>217.880005</ele>
<time>2014-01-03T11:48:16.000Z</time>
</trkpt>
<trkpt lat="31.5569150" lon="35.3625307">
<ele>216.910004</ele>
<time>2014-01-03T11:48:20.000Z</time>
</trkpt>
<trkpt lat="31.5571050" lon="35.3626527">
<ele>216.430008</ele>
<time>2014-01-03T11:48:24.000Z</time>
</trkpt>
<trkpt lat="31.5572547" lon="35.3628269">
<ele>216.430008</ele>
<time>2014-01-03T11:48:30.000Z</time>
</trkpt>
<trkpt lat="31.5574482" lon="35.3629816">
<ele>216.430008</ele>
<time>2014-01-03T11:48:39.000Z</time>
</trkpt>
<trkpt lat="31.5575190" lon="35.3630551">
<ele>217.399994</ele>
<time>2014-01-03T11:48:42.000Z</time>
</trkpt>
<trkpt lat="31.5576792" lon="35.3632073">
<ele>217.880005</ele>
<time>2014-01-03T11:48:51.000Z</time>
</trkpt>
<trkpt lat="31.5577570" lon="35.3632555">
<ele>217.880005</ele>
<time>2014-01-03T11:48:56.000Z</time>
</trkpt>
<trkpt lat="31.5578245" lon="35.3633444">
<ele>218.359985</ele>
<time>2014-01-03T11:49:02.000Z</time>
</trkpt>
<trkpt lat="31.5579002" lon="35.3634131">
<ele>218.359985</ele>
<time>2014-01-03T11:49:07.000Z</time>
</trkpt>
<trkpt lat="31.5581376" lon="35.3636425">
<ele>217.399994</ele>
<time>2014-01-03T11:49:17.000Z</time>
</trkpt>
<trkpt lat="31.5582317" lon="35.3637374">
<ele>216.430008</ele>
<time>2014-01-03T11:49:20.000Z</time>
</trkpt>
<trkpt lat="31.5583067" lon="35.3638370">
<ele>216.910004</ele>
<time>2014-01-03T11:49:23.000Z</time>
</trkpt>
<trkpt lat="31.5584046" lon="35.3639108">
<ele>216.430008</ele>
<time>2014-01-03T11:49:27.000Z</time>
</trkpt>
<trkpt lat="31.5585554" lon="35.3640698">
<ele>216.430008</ele>
<time>2014-01-03T11:49:35.000Z</time>
</trkpt>
<trkpt lat="31.5586375" lon="35.3641479">
<ele>216.910004</ele>
<time>2014-01-03T11:49:39.000Z</time>
</trkpt>
<trkpt lat="31.5587202" lon="35.3642016">
<ele>216.430008</ele>
<time>2014-01-03T11:49:42.000Z</time>
</trkpt>
<trkpt lat="31.5588166" lon="35.3642976">
<ele>214.990005</ele>
<time>2014-01-03T11:49:45.000Z</time>
</trkpt>
<trkpt lat="31.5588898" lon="35.3643604">
<ele>216.430008</ele>
<time>2014-01-03T11:49:49.000Z</time>
</trkpt>
<trkpt lat="31.5590742" lon="35.3644488">
<ele>216.910004</ele>
<time>2014-01-03T11:50:00.000Z</time>
</trkpt>
<trkpt lat="31.5592561" lon="35.3645819">
<ele>214.990005</ele>
<time>2014-01-03T11:50:09.000Z</time>
</trkpt>
<trkpt lat="31.5594454" lon="35.3646650">
<ele>213.550003</ele>
<time>2014-01-03T11:50:14.000Z</time>
</trkpt>
<trkpt lat="31.5599537" lon="35.3649777">
<ele>211.149994</ele>
<time>2014-01-03T11:50:29.000Z</time>
</trkpt>
<trkpt lat="31.5600604" lon="35.3649931">
<ele>210.190002</ele>
<time>2014-01-03T11:50:32.000Z</time>
</trkpt>
<trkpt lat="31.5603575" lon="35.3648814">
<ele>205.380005</ele>
<time>2014-01-03T11:50:40.000Z</time>
</trkpt>
<trkpt lat="31.5604780" lon="35.3648645">
<ele>202.490005</ele>
<time>2014-01-03T11:50:42.000Z</time>
</trkpt>
<trkpt lat="31.5608463" lon="35.3648971">
<ele>201.529999</ele>
<time>2014-01-03T11:50:48.000Z</time>
</trkpt>
<trkpt lat="31.5609591" lon="35.3649140">
<ele>200.570007</ele>
<time>2014-01-03T11:50:50.000Z</time>
</trkpt>
<trkpt lat="31.5611408" lon="35.3650066">
<ele>200.089996</ele>
<time>2014-01-03T11:50:54.000Z</time>
</trkpt>
<trkpt lat="31.5612685" lon="35.3650006">
<ele>200.089996</ele>
<time>2014-01-03T11:50:57.000Z</time>
</trkpt>
<trkpt lat="31.5613797" lon="35.3649643">
<ele>199.609985</ele>
<time>2014-01-03T11:51:00.000Z</time>
</trkpt>
<trkpt lat="31.5614630" lon="35.3649104">
<ele>200.089996</ele>
<time>2014-01-03T11:51:04.000Z</time>
</trkpt>
<trkpt lat="31.5615398" lon="35.3648327">
<ele>200.089996</ele>
<time>2014-01-03T11:51:10.000Z</time>
</trkpt>
<trkpt lat="31.5615765" lon="35.3647105">
<ele>199.609985</ele>
<time>2014-01-03T11:53:48.000Z</time>
</trkpt>
<trkpt lat="31.5615780" lon="35.3646017">
<ele>199.130005</ele>
<time>2014-01-03T11:55:35.000Z</time>
</trkpt>
<trkpt lat="31.5615324" lon="35.3643608">
<ele>199.130005</ele>
<time>2014-01-03T11:55:45.000Z</time>
</trkpt>
<trkpt lat="31.5613526" lon="35.3638775">
<ele>199.130005</ele>
<time>2014-01-03T11:56:01.000Z</time>
</trkpt>
<trkpt lat="31.5612970" lon="35.3636116">
<ele>198.649994</ele>
<time>2014-01-03T11:56:09.000Z</time>
</trkpt>
<trkpt lat="31.5613360" lon="35.3635040">
<ele>198.170013</ele>
<time>2014-01-03T11:56:11.000Z</time>
</trkpt>
<trkpt lat="31.5615200" lon="35.3633600">
<ele>196.250000</ele>
<time>2014-01-03T11:56:15.000Z</time>
</trkpt>
<trkpt lat="31.5616037" lon="35.3632513">
<ele>195.770004</ele>
<time>2014-01-03T11:56:18.000Z</time>
</trkpt>
<trkpt lat="31.5616629" lon="35.3631674">
<ele>195.279999</ele>
<time>2014-01-03T11:56:20.000Z</time>
</trkpt>
<trkpt lat="31.5617243" lon="35.3630585">
<ele>195.770004</ele>
<time>2014-01-03T11:56:23.000Z</time>
</trkpt>
<trkpt lat="31.5617712" lon="35.3625688">
<ele>195.770004</ele>
<time>2014-01-03T11:56:35.000Z</time>
</trkpt>
<trkpt lat="31.5617605" lon="35.3624363">
<ele>196.250000</ele>
<time>2014-01-03T11:56:39.000Z</time>
</trkpt>
<trkpt lat="31.5618179" lon="35.3623957">
<ele>196.729996</ele>
<time>2014-01-03T11:56:46.000Z</time>
</trkpt>
<trkpt lat="31.5619245" lon="35.3624685">
<ele>196.250000</ele>
<time>2014-01-03T11:56:50.000Z</time>
</trkpt>
<trkpt lat="31.5621063" lon="35.3625728">
<ele>195.279999</ele>
<time>2014-01-03T11:56:56.000Z</time>
</trkpt>
<trkpt lat="31.5622789" lon="35.3627377">
<ele>194.800003</ele>
<time>2014-01-03T11:57:03.000Z</time>
</trkpt>
<trkpt lat="31.5623610" lon="35.3628158">
<ele>195.770004</ele>
<time>2014-01-03T11:57:08.000Z</time>
</trkpt>
<trkpt lat="31.5625099" lon="35.3629714">
<ele>196.250000</ele>
<time>2014-01-03T11:57:16.000Z</time>
</trkpt>
<trkpt lat="31.5625836" lon="35.3630691">
<ele>196.250000</ele>
<time>2014-01-03T11:57:20.000Z</time>
</trkpt>
<trkpt lat="31.5629308" lon="35.3633574">
<ele>195.279999</ele>
<time>2014-01-03T11:57:32.000Z</time>
</trkpt>
<trkpt lat="31.5631205" lon="35.3635274">
<ele>194.320007</ele>
<time>2014-01-03T11:57:38.000Z</time>
</trkpt>
<trkpt lat="31.5632118" lon="35.3636237">
<ele>194.320007</ele>
<time>2014-01-03T11:57:41.000Z</time>
</trkpt>
<trkpt lat="31.5633120" lon="35.3636998">
<ele>194.320007</ele>
<time>2014-01-03T11:57:44.000Z</time>
</trkpt>
<trkpt lat="31.5634214" lon="35.3637563">
<ele>193.839996</ele>
<time>2014-01-03T11:57:47.000Z</time>
</trkpt>
<trkpt lat="31.5636648" lon="35.3638460">
<ele>193.359985</ele>
<time>2014-01-03T11:57:53.000Z</time>
</trkpt>
<trkpt lat="31.5638383" lon="35.3640386">
<ele>193.359985</ele>
<time>2014-01-03T11:57:59.000Z</time>
</trkpt>
<trkpt lat="31.5639515" lon="35.3640811">
<ele>193.839996</ele>
<time>2014-01-03T11:58:02.000Z</time>
</trkpt>
<trkpt lat="31.5640710" lon="35.3640933">
<ele>193.359985</ele>
<time>2014-01-03T11:58:05.000Z</time>
</trkpt>
<trkpt lat="31.5643105" lon="35.3640018">
<ele>192.880005</ele>
<time>2014-01-03T11:58:11.000Z</time>
</trkpt>
<trkpt lat="31.5644346" lon="35.3640166">
<ele>192.399994</ele>
<time>2014-01-03T11:58:14.000Z</time>
</trkpt>
<trkpt lat="31.5645285" lon="35.3640684">
<ele>192.880005</ele>
<time>2014-01-03T11:58:17.000Z</time>
</trkpt>
<trkpt lat="31.5646114" lon="35.3640881">
<ele>192.880005</ele>
<time>2014-01-03T11:58:20.000Z</time>
</trkpt>
<trkpt lat="31.5649937" lon="35.3640298">
<ele>194.320007</ele>
<time>2014-01-03T11:58:33.000Z</time>
</trkpt>
<trkpt lat="31.5653149" lon="35.3640727">
<ele>194.800003</ele>
<time>2014-01-03T11:58:45.000Z</time>
</trkpt>
<trkpt lat="31.5656424" lon="35.3640788">
<ele>195.770004</ele>
<time>2014-01-03T11:58:56.000Z</time>
</trkpt>
<trkpt lat="31.5658417" lon="35.3641017">
<ele>195.770004</ele>
<time>2014-01-03T11:59:02.000Z</time>
</trkpt>
<trkpt lat="31.5660196" lon="35.3641825">
<ele>195.770004</ele>
<time>2014-01-03T11:59:08.000Z</time>
</trkpt>
<trkpt lat="31.5665467" lon="35.3642419">
<ele>197.690002</ele>
<time>2014-01-03T11:59:28.000Z</time>
</trkpt>
<trkpt lat="31.5667432" lon="35.3641228">
<ele>198.170013</ele>
<time>2014-01-03T11:59:36.000Z</time>
</trkpt>
<trkpt lat="31.5670373" lon="35.3639988">
<ele>198.170013</ele>
<time>2014-01-03T11:59:49.000Z</time>
</trkpt>
<trkpt lat="31.5673551" lon="35.3638163">
<ele>195.279999</ele>
<time>2014-01-03T12:00:10.000Z</time>
</trkpt>
<trkpt lat="31.5674670" lon="35.3637910">
<ele>190.960007</ele>
<time>2014-01-03T12:24:41.000Z</time>
</trkpt>
<trkpt lat="31.5675739" lon="35.3637257">
<ele>190.000000</ele>
<time>2014-01-03T12:24:45.000Z</time>
</trkpt>
<trkpt lat="31.5678050" lon="35.3636731">
<ele>186.149994</ele>
<time>2014-01-03T12:24:51.000Z</time>
</trkpt>
<trkpt lat="31.5680375" lon="35.3636297">
<ele>183.750000</ele>
<time>2014-01-03T12:24:57.000Z</time>
</trkpt>
<trkpt lat="31.5683416" lon="35.3635142">
<ele>179.420013</ele>
<time>2014-01-03T12:25:05.000Z</time>
</trkpt>
<trkpt lat="31.5686476" lon="35.3632488">
<ele>174.619995</ele>
<time>2014-01-03T12:25:11.000Z</time>
</trkpt>
<trkpt lat="31.5688928" lon="35.3630742">
<ele>171.729996</ele>
<time>2014-01-03T12:25:15.000Z</time>
</trkpt>
<trkpt lat="31.5691654" lon="35.3628522">
<ele>168.369995</ele>
<time>2014-01-03T12:25:23.000Z</time>
</trkpt>
<trkpt lat="31.5693457" lon="35.3627341">
<ele>167.410004</ele>
<time>2014-01-03T12:25:27.000Z</time>
</trkpt>
<trkpt lat="31.5695434" lon="35.3625703">
<ele>165.959991</ele>
<time>2014-01-03T12:25:31.000Z</time>
</trkpt>
<trkpt lat="31.5696407" lon="35.3624690">
<ele>165.479996</ele>
<time>2014-01-03T12:25:33.000Z</time>
</trkpt>
<trkpt lat="31.5697184" lon="35.3623486">
<ele>165.000000</ele>
<time>2014-01-03T12:25:35.000Z</time>
</trkpt>
<trkpt lat="31.5698127" lon="35.3622553">
<ele>164.520004</ele>
<time>2014-01-03T12:25:37.000Z</time>
</trkpt>
<trkpt lat="31.5701555" lon="35.3620406">
<ele>162.119995</ele>
<time>2014-01-03T12:25:43.000Z</time>
</trkpt>
<trkpt lat="31.5703567" lon="35.3618943">
<ele>161.160004</ele>
<time>2014-01-03T12:25:47.000Z</time>
</trkpt>
<trkpt lat="31.5704392" lon="35.3617988">
<ele>160.200012</ele>
<time>2014-01-03T12:25:49.000Z</time>
</trkpt>
<trkpt lat="31.5708139" lon="35.3613112">
<ele>155.389999</ele>
<time>2014-01-03T12:25:56.000Z</time>
</trkpt>
<trkpt lat="31.5709515" lon="35.3611672">
<ele>153.949997</ele>
<time>2014-01-03T12:25:58.000Z</time>
</trkpt>
<trkpt lat="31.5713601" lon="35.3607993">
<ele>152.990005</ele>
<time>2014-01-03T12:26:04.000Z</time>
</trkpt>
<trkpt lat="31.5714563" lon="35.3606974">
<ele>153.470001</ele>
<time>2014-01-03T12:26:06.000Z</time>
</trkpt>
<trkpt lat="31.5715240" lon="35.3605967">
<ele>153.470001</ele>
<time>2014-01-03T12:26:08.000Z</time>
</trkpt>
<trkpt lat="31.5716395" lon="35.3603851">
<ele>153.470001</ele>
<time>2014-01-03T12:26:12.000Z</time>
</trkpt>
<trkpt lat="31.5717004" lon="35.3602680">
<ele>152.510010</ele>
<time>2014-01-03T12:26:14.000Z</time>
</trkpt>
<trkpt lat="31.5718781" lon="35.3598384">
<ele>149.139999</ele>
<time>2014-01-03T12:26:20.000Z</time>
</trkpt>
<trkpt lat="31.5719800" lon="35.3597105">
<ele>147.699997</ele>
<time>2014-01-03T12:26:22.000Z</time>
</trkpt>
<trkpt lat="31.5722246" lon="35.3594798">
<ele>146.260010</ele>
<time>2014-01-03T12:26:26.000Z</time>
</trkpt>
<trkpt lat="31.5724840" lon="35.3593011">
<ele>144.339996</ele>
<time>2014-01-03T12:26:30.000Z</time>
</trkpt>
<trkpt lat="31.5725909" lon="35.3591765">
<ele>143.369995</ele>
<time>2014-01-03T12:26:32.000Z</time>
</trkpt>
<trkpt lat="31.5726836" lon="35.3590351">
<ele>142.409988</ele>
<time>2014-01-03T12:26:34.000Z</time>
</trkpt>
<trkpt lat="31.5729245" lon="35.3586006">
<ele>139.050003</ele>
<time>2014-01-03T12:26:40.000Z</time>
</trkpt>
<trkpt lat="31.5730842" lon="35.3583526">
<ele>137.610001</ele>
<time>2014-01-03T12:26:44.000Z</time>
</trkpt>
<trkpt lat="31.5731923" lon="35.3581233">
<ele>136.159988</ele>
<time>2014-01-03T12:26:48.000Z</time>
</trkpt>
<trkpt lat="31.5735321" lon="35.3575230">
<ele>132.800003</ele>
<time>2014-01-03T12:26:58.000Z</time>
</trkpt>
<trkpt lat="31.5737663" lon="35.3569608">
<ele>129.919998</ele>
<time>2014-01-03T12:27:06.000Z</time>
</trkpt>
<trkpt lat="31.5739122" lon="35.3566987">
<ele>127.989998</ele>
<time>2014-01-03T12:27:10.000Z</time>
</trkpt>
<trkpt lat="31.5739455" lon="35.3565705">
<ele>127.510002</ele>
<time>2014-01-03T12:27:12.000Z</time>
</trkpt>
<trkpt lat="31.5740257" lon="35.3563580">
<ele>126.070000</ele>
<time>2014-01-03T12:27:17.000Z</time>
</trkpt>
<trkpt lat="31.5740330" lon="35.3561433">
<ele>125.589996</ele>
<time>2014-01-03T12:27:25.000Z</time>
</trkpt>
<trkpt lat="31.5742119" lon="35.3559221">
<ele>125.110001</ele>
<time>2014-01-03T12:27:40.000Z</time>
</trkpt>
<trkpt lat="31.5742608" lon="35.3558125">
<ele>125.110001</ele>
<time>2014-01-03T12:27:44.000Z</time>
</trkpt>
<trkpt lat="31.5743912" lon="35.3555890">
<ele>123.189995</ele>
<time>2014-01-03T12:27:50.000Z</time>
</trkpt>
<trkpt lat="31.5744467" lon="35.3553657">
<ele>121.740005</ele>
<time>2014-01-03T12:27:54.000Z</time>
</trkpt>
<trkpt lat="31.5745053" lon="35.3552548">
<ele>122.220001</ele>
<time>2014-01-03T12:27:57.000Z</time>
</trkpt>
<trkpt lat="31.5745842" lon="35.3551604">
<ele>122.709999</ele>
<time>2014-01-03T12:28:02.000Z</time>
</trkpt>
<trkpt lat="31.5746997" lon="35.3549580">
<ele>123.669998</ele>
<time>2014-01-03T12:28:12.000Z</time>
</trkpt>
<trkpt lat="31.5748467" lon="35.3547568">
<ele>123.189995</ele>
<time>2014-01-03T12:28:20.000Z</time>
</trkpt>
<trkpt lat="31.5750060" lon="35.3545988">
<ele>123.189995</ele>
<time>2014-01-03T12:28:27.000Z</time>
</trkpt>
<trkpt lat="31.5751084" lon="35.3545275">
<ele>122.709999</ele>
<time>2014-01-03T12:28:31.000Z</time>
</trkpt>
<trkpt lat="31.5752748" lon="35.3543938">
<ele>123.189995</ele>
<time>2014-01-03T12:28:37.000Z</time>
</trkpt>
<trkpt lat="31.5754654" lon="35.3542655">
<ele>122.709999</ele>
<time>2014-01-03T12:28:43.000Z</time>
</trkpt>
<trkpt lat="31.5760154" lon="35.3540083">
<ele>119.820000</ele>
<time>2014-01-03T12:28:56.000Z</time>
</trkpt>
<trkpt lat="31.5764009" lon="35.3537881">
<ele>116.939995</ele>
<time>2014-01-03T12:29:02.000Z</time>
</trkpt>
<trkpt lat="31.5774806" lon="35.3533468">
<ele>110.209999</ele>
<time>2014-01-03T12:29:22.000Z</time>
</trkpt>
<trkpt lat="31.5785642" lon="35.3528605">
<ele>108.290001</ele>
<time>2014-01-03T12:29:41.000Z</time>
</trkpt>
<trkpt lat="31.5786681" lon="35.3528357">
<ele>109.250000</ele>
<time>2014-01-03T12:29:44.000Z</time>
</trkpt>
<trkpt lat="31.5789971" lon="35.3528672">
<ele>108.290001</ele>
<time>2014-01-03T12:29:53.000Z</time>
</trkpt>
<trkpt lat="31.5790947" lon="35.3529170">
<ele>108.290001</ele>
<time>2014-01-03T12:29:56.000Z</time>
</trkpt>
<trkpt lat="31.5793587" lon="35.3533763">
<ele>108.290001</ele>
<time>2014-01-03T12:30:08.000Z</time>
</trkpt>
<trkpt lat="31.5794248" lon="35.3534585">
<ele>108.770004</ele>
<time>2014-01-03T12:30:11.000Z</time>
</trkpt>
<trkpt lat="31.5794782" lon="35.3535472">
<ele>109.250000</ele>
<time>2014-01-03T12:30:14.000Z</time>
</trkpt>
<trkpt lat="31.5795493" lon="35.3536214">
<ele>109.250000</ele>
<time>2014-01-03T12:30:17.000Z</time>
</trkpt>
<trkpt lat="31.5796341" lon="35.3536781">
<ele>109.250000</ele>
<time>2014-01-03T12:30:20.000Z</time>
</trkpt>
<trkpt lat="31.5797508" lon="35.3536907">
<ele>108.770004</ele>
<time>2014-01-03T12:30:24.000Z</time>
</trkpt>
<trkpt lat="31.5799996" lon="35.3536659">
<ele>107.809998</ele>
<time>2014-01-03T12:30:30.000Z</time>
</trkpt>
<trkpt lat="31.5804636" lon="35.3535237">
<ele>103.480003</ele>
<time>2014-01-03T12:30:38.000Z</time>
</trkpt>
<trkpt lat="31.5807185" lon="35.3534761">
<ele>100.599998</ele>
<time>2014-01-03T12:30:42.000Z</time>
</trkpt>
<trkpt lat="31.5808313" lon="35.3534817">
<ele>99.630005</ele>
<time>2014-01-03T12:30:44.000Z</time>
</trkpt>
<trkpt lat="31.5813583" lon="35.3536224">
<ele>94.349998</ele>
<time>2014-01-03T12:30:52.000Z</time>
</trkpt>
<trkpt lat="31.5817687" lon="35.3537823">
<ele>90.980003</ele>
<time>2014-01-03T12:30:58.000Z</time>
</trkpt>
<trkpt lat="31.5818671" lon="35.3538642">
<ele>89.540001</ele>
<time>2014-01-03T12:31:00.000Z</time>
</trkpt>
<trkpt lat="31.5819390" lon="35.3539474">
<ele>88.579994</ele>
<time>2014-01-03T12:31:02.000Z</time>
</trkpt>
<trkpt lat="31.5820824" lon="35.3541545">
<ele>87.139999</ele>
<time>2014-01-03T12:31:08.000Z</time>
</trkpt>
<trkpt lat="31.5821502" lon="35.3542334">
<ele>86.179993</ele>
<time>2014-01-03T12:31:10.000Z</time>
</trkpt>
<trkpt lat="31.5822135" lon="35.3543298">
<ele>85.209999</ele>
<time>2014-01-03T12:31:12.000Z</time>
</trkpt>
<trkpt lat="31.5823530" lon="35.3545291">
<ele>83.770004</ele>
<time>2014-01-03T12:31:16.000Z</time>
</trkpt>
<trkpt lat="31.5824343" lon="35.3546325">
<ele>82.329994</ele>
<time>2014-01-03T12:31:18.000Z</time>
</trkpt>
<trkpt lat="31.5826724" lon="35.3549700">
<ele>78.480003</ele>
<time>2014-01-03T12:31:25.000Z</time>
</trkpt>
<trkpt lat="31.5827808" lon="35.3551389">
<ele>73.200005</ele>
<time>2014-01-03T12:42:29.000Z</time>
</trkpt>
<trkpt lat="31.5830091" lon="35.3555940">
<ele>67.909996</ele>
<time>2014-01-03T12:42:39.000Z</time>
</trkpt>
<trkpt lat="31.5831009" lon="35.3557979">
<ele>64.550003</ele>
<time>2014-01-03T12:42:43.000Z</time>
</trkpt>
<trkpt lat="31.5831138" lon="35.3559364">
<ele>63.099998</ele>
<time>2014-01-03T12:42:47.000Z</time>
</trkpt>
<trkpt lat="31.5831611" lon="35.3560374">
<ele>61.660000</ele>
<time>2014-01-03T12:42:49.000Z</time>
</trkpt>
<trkpt lat="31.5832432" lon="35.3561287">
<ele>60.700001</ele>
<time>2014-01-03T12:42:51.000Z</time>
</trkpt>
<trkpt lat="31.5833430" lon="35.3561756">
<ele>59.740002</ele>
<time>2014-01-03T12:42:53.000Z</time>
</trkpt>
<trkpt lat="31.5834422" lon="35.3561631">
<ele>58.299999</ele>
<time>2014-01-03T12:42:55.000Z</time>
</trkpt>
<trkpt lat="31.5835530" lon="35.3560946">
<ele>56.370003</ele>
<time>2014-01-03T12:42:58.000Z</time>
</trkpt>
<trkpt lat="31.5836013" lon="35.3560094">
<ele>55.410000</ele>
<time>2014-01-03T12:43:01.000Z</time>
</trkpt>
<trkpt lat="31.5836961" lon="35.3557701">
<ele>53.490002</ele>
<time>2014-01-03T12:43:07.000Z</time>
</trkpt>
<trkpt lat="31.5837623" lon="35.3556761">
<ele>52.529999</ele>
<time>2014-01-03T12:43:09.000Z</time>
</trkpt>
<trkpt lat="31.5838540" lon="35.3555828">
<ele>50.130001</ele>
<time>2014-01-03T12:43:12.000Z</time>
</trkpt>
<trkpt lat="31.5839203" lon="35.3554684">
<ele>48.200001</ele>
<time>2014-01-03T12:43:15.000Z</time>
</trkpt>
<trkpt lat="31.5840006" lon="35.3553505">
<ele>46.279999</ele>
<time>2014-01-03T12:43:18.000Z</time>
</trkpt>
<trkpt lat="31.5841813" lon="35.3551666">
<ele>43.400002</ele>
<time>2014-01-03T12:43:24.000Z</time>
</trkpt>
<trkpt lat="31.5842321" lon="35.3550785">
<ele>41.950001</ele>
<time>2014-01-03T12:43:26.000Z</time>
</trkpt>
<trkpt lat="31.5842900" lon="35.3548132">
<ele>39.549999</ele>
<time>2014-01-03T12:43:32.000Z</time>
</trkpt>
<trkpt lat="31.5844673" lon="35.3546331">
<ele>37.150002</ele>
<time>2014-01-03T12:43:38.000Z</time>
</trkpt>
<trkpt lat="31.5845580" lon="35.3545232">
<ele>35.709999</ele>
<time>2014-01-03T12:43:41.000Z</time>
</trkpt>
<trkpt lat="31.5846085" lon="35.3543936">
<ele>34.740002</ele>
<time>2014-01-03T12:43:44.000Z</time>
</trkpt>
<trkpt lat="31.5846701" lon="35.3542935">
<ele>33.780003</ele>
<time>2014-01-03T12:43:47.000Z</time>
</trkpt>
<trkpt lat="31.5847695" lon="35.3543025">
<ele>32.820000</ele>
<time>2014-01-03T12:43:50.000Z</time>
</trkpt>
<trkpt lat="31.5848251" lon="35.3544259">
<ele>32.340000</ele>
<time>2014-01-03T12:43:53.000Z</time>
</trkpt>
<trkpt lat="31.5847754" lon="35.3545559">
<ele>31.380001</ele>
<time>2014-01-03T12:43:56.000Z</time>
</trkpt>
<trkpt lat="31.5846869" lon="35.3546554">
<ele>30.419998</ele>
<time>2014-01-03T12:43:59.000Z</time>
</trkpt>
<trkpt lat="31.5846029" lon="35.3548467">
<ele>28.980001</ele>
<time>2014-01-03T12:44:05.000Z</time>
</trkpt>
<trkpt lat="31.5845680" lon="35.3549537">
<ele>28.019999</ele>
<time>2014-01-03T12:44:10.000Z</time>
</trkpt>
<trkpt lat="31.5846203" lon="35.3551987">
<ele>26.570000</ele>
<time>2014-01-03T12:44:17.000Z</time>
</trkpt>
<trkpt lat="31.5846627" lon="35.3553220">
<ele>25.609999</ele>
<time>2014-01-03T12:44:20.000Z</time>
</trkpt>
<trkpt lat="31.5847191" lon="35.3554268">
<ele>24.650000</ele>
<time>2014-01-03T12:44:23.000Z</time>
</trkpt>
<trkpt lat="31.5848729" lon="35.3555841">
<ele>22.730001</ele>
<time>2014-01-03T12:44:29.000Z</time>
</trkpt>
<trkpt lat="31.5849820" lon="35.3556042">
<ele>21.769999</ele>
<time>2014-01-03T12:44:33.000Z</time>
</trkpt>
<trkpt lat="31.5850868" lon="35.3555447">
<ele>20.320000</ele>
<time>2014-01-03T12:44:36.000Z</time>
</trkpt>
<trkpt lat="31.5851581" lon="35.3554411">
<ele>18.879999</ele>
<time>2014-01-03T12:44:39.000Z</time>
</trkpt>
<trkpt lat="31.5852636" lon="35.3550605">
<ele>14.559999</ele>
<time>2014-01-03T12:44:48.000Z</time>
</trkpt>
<trkpt lat="31.5852818" lon="35.3549298">
<ele>12.630000</ele>
<time>2014-01-03T12:44:51.000Z</time>
</trkpt>
<trkpt lat="31.5852849" lon="35.3546781">
<ele>11.190000</ele>
<time>2014-01-03T12:44:57.000Z</time>
</trkpt>
<trkpt lat="31.5852778" lon="35.3545678">
<ele>10.230000</ele>
<time>2014-01-03T12:45:00.000Z</time>
</trkpt>
<trkpt lat="31.5852167" lon="35.3543090">
<ele>8.309999</ele>
<time>2014-01-03T12:45:08.000Z</time>
</trkpt>
<trkpt lat="31.5852172" lon="35.3541957">
<ele>6.870000</ele>
<time>2014-01-03T12:45:11.000Z</time>
</trkpt>
<trkpt lat="31.5852519" lon="35.3540877">
<ele>5.910000</ele>
<time>2014-01-03T12:45:14.000Z</time>
</trkpt>
<trkpt lat="31.5853043" lon="35.3539890">
<ele>4.460000</ele>
<time>2014-01-03T12:45:17.000Z</time>
</trkpt>
<trkpt lat="31.5853831" lon="35.3539053">
<ele>3.500000</ele>
<time>2014-01-03T12:45:26.000Z</time>
</trkpt>
<trkpt lat="31.5856371" lon="35.3536809">
<ele>0.620000</ele>
<time>2014-01-03T12:45:36.000Z</time>
</trkpt>
<trkpt lat="31.5858060" lon="35.3535092">
<ele>-1.300000</ele>
<time>2014-01-03T12:45:41.000Z</time>
</trkpt>
<trkpt lat="31.5859762" lon="35.3533303">
<ele>-3.230000</ele>
<time>2014-01-03T12:45:46.000Z</time>
</trkpt>
<trkpt lat="31.5860380" lon="35.3532505">
<ele>-3.710000</ele>
<time>2014-01-03T12:45:48.000Z</time>
</trkpt>
<trkpt lat="31.5861995" lon="35.3531094">
<ele>-5.630000</ele>
<time>2014-01-03T12:45:52.000Z</time>
</trkpt>
<trkpt lat="31.5862791" lon="35.3530495">
<ele>-6.110000</ele>
<time>2014-01-03T12:45:54.000Z</time>
</trkpt>
<trkpt lat="31.5864466" lon="35.3529173">
<ele>-8.509999</ele>
<time>2014-01-03T12:45:59.000Z</time>
</trkpt>
<trkpt lat="31.5866289" lon="35.3528659">
<ele>-10.440000</ele>
<time>2014-01-03T12:46:05.000Z</time>
</trkpt>
<trkpt lat="31.5867260" lon="35.3529097">
<ele>-12.360002</ele>
<time>2014-01-03T12:46:09.000Z</time>
</trkpt>
<trkpt lat="31.5867537" lon="35.3530172">
<ele>-13.799999</ele>
<time>2014-01-03T12:46:14.000Z</time>
</trkpt>
<trkpt lat="31.5866750" lon="35.3531155">
<ele>-15.240000</ele>
<time>2014-01-03T12:46:28.000Z</time>
</trkpt>
<trkpt lat="31.5866062" lon="35.3531978">
<ele>-14.760000</ele>
<time>2014-01-03T12:46:38.000Z</time>
</trkpt>
<trkpt lat="31.5865246" lon="35.3532718">
<ele>-12.840000</ele>
<time>2014-01-03T12:46:51.000Z</time>
</trkpt>
<trkpt lat="31.5864665" lon="35.3533573">
<ele>-11.400000</ele>
<time>2014-01-03T12:47:01.000Z</time>
</trkpt>
<trkpt lat="31.5863262" lon="35.3535025">
<ele>-9.480000</ele>
<time>2014-01-03T12:47:24.000Z</time>
</trkpt>
<trkpt lat="31.5863338" lon="35.3536022">
<ele>-9.000000</ele>
<time>2014-01-03T12:47:31.000Z</time>
</trkpt>
<trkpt lat="31.5862679" lon="35.3538333">
<ele>-8.030000</ele>
<time>2014-01-03T12:47:41.000Z</time>
</trkpt>
<trkpt lat="31.5861568" lon="35.3540068">
<ele>-6.590000</ele>
<time>2014-01-03T12:47:51.000Z</time>
</trkpt>
<trkpt lat="31.5859613" lon="35.3542673">
<ele>-4.670000</ele>
<time>2014-01-03T12:48:06.000Z</time>
</trkpt>
<trkpt lat="31.5859309" lon="35.3543760">
<ele>-4.190000</ele>
<time>2014-01-03T12:48:12.000Z</time>
</trkpt>
<trkpt lat="31.5859372" lon="35.3544885">
<ele>-3.710000</ele>
<time>2014-01-03T12:48:19.000Z</time>
</trkpt>
<trkpt lat="31.5860073" lon="35.3545700">
<ele>-3.230000</ele>
<time>2014-01-03T12:48:26.000Z</time>
</trkpt>
<trkpt lat="31.5860949" lon="35.3546037">
<ele>-1.790000</ele>
<time>2014-01-03T12:48:33.000Z</time>
</trkpt>
<trkpt lat="31.5861671" lon="35.3545191">
<ele>-1.300000</ele>
<time>2014-01-03T12:48:40.000Z</time>
</trkpt>
<trkpt lat="31.5862851" lon="35.3543389">
<ele>0.140000</ele>
<time>2014-01-03T12:48:53.000Z</time>
</trkpt>
<trkpt lat="31.5863626" lon="35.3542608">
<ele>0.620000</ele>
<time>2014-01-03T12:49:00.000Z</time>
</trkpt>
<trkpt lat="31.5864212" lon="35.3541767">
<ele>1.100000</ele>
<time>2014-01-03T12:49:06.000Z</time>
</trkpt>
<trkpt lat="31.5865341" lon="35.3539806">
<ele>2.540000</ele>
<time>2014-01-03T12:49:19.000Z</time>
</trkpt>
<trkpt lat="31.5865753" lon="35.3538867">
<ele>3.020000</ele>
<time>2014-01-03T12:49:25.000Z</time>
</trkpt>
<trkpt lat="31.5867274" lon="35.3537324">
<ele>4.460000</ele>
<time>2014-01-03T12:49:39.000Z</time>
</trkpt>
<trkpt lat="31.5868317" lon="35.3537643">
<ele>4.940000</ele>
<time>2014-01-03T12:49:45.000Z</time>
</trkpt>
<trkpt lat="31.5868710" lon="35.3538696">
<ele>6.870000</ele>
<time>2014-01-03T12:49:52.000Z</time>
</trkpt>
<trkpt lat="31.5868154" lon="35.3540637">
<ele>9.750000</ele>
<time>2014-01-03T12:50:08.000Z</time>
</trkpt>
<trkpt lat="31.5867180" lon="35.3542441">
<ele>11.670000</ele>
<time>2014-01-03T12:50:25.000Z</time>
</trkpt>
<trkpt lat="31.5866749" lon="35.3544596">
<ele>14.080000</ele>
<time>2014-01-03T12:50:41.000Z</time>
</trkpt>
<trkpt lat="31.5866538" lon="35.3546719">
<ele>16.000000</ele>
<time>2014-01-03T12:50:55.000Z</time>
</trkpt>
<trkpt lat="31.5866557" lon="35.3547797">
<ele>17.920000</ele>
<time>2014-01-03T12:51:03.000Z</time>
</trkpt>
<trkpt lat="31.5865877" lon="35.3549884">
<ele>20.320000</ele>
<time>2014-01-03T12:51:20.000Z</time>
</trkpt>
<trkpt lat="31.5865483" lon="35.3552018">
<ele>22.730001</ele>
<time>2014-01-03T12:51:37.000Z</time>
</trkpt>
<trkpt lat="31.5865077" lon="35.3552979">
<ele>23.209999</ele>
<time>2014-01-03T12:51:45.000Z</time>
</trkpt>
<trkpt lat="31.5865583" lon="35.3555318">
<ele>25.130001</ele>
<time>2014-01-03T12:52:01.000Z</time>
</trkpt>
<trkpt lat="31.5866080" lon="35.3556276">
<ele>25.609999</ele>
<time>2014-01-03T12:52:08.000Z</time>
</trkpt>
<trkpt lat="31.5866701" lon="35.3557092">
<ele>25.609999</ele>
<time>2014-01-03T12:52:15.000Z</time>
</trkpt>
<trkpt lat="31.5869368" lon="35.3558100">
<ele>26.090000</ele>
<time>2014-01-03T12:52:36.000Z</time>
</trkpt>
<trkpt lat="31.5871350" lon="35.3558502">
<ele>27.530001</ele>
<time>2014-01-03T12:52:51.000Z</time>
</trkpt>
<trkpt lat="31.5874234" lon="35.3558372">
<ele>29.459999</ele>
<time>2014-01-03T12:53:11.000Z</time>
</trkpt>
<trkpt lat="31.5882448" lon="35.3554392">
<ele>32.820000</ele>
<time>2014-01-03T12:53:58.000Z</time>
</trkpt>
<trkpt lat="31.5884401" lon="35.3554026">
<ele>33.780003</ele>
<time>2014-01-03T12:54:08.000Z</time>
</trkpt>
<trkpt lat="31.5885471" lon="35.3554045">
<ele>34.259998</ele>
<time>2014-01-03T12:54:14.000Z</time>
</trkpt>
<trkpt lat="31.5887303" lon="35.3554585">
<ele>35.230000</ele>
<time>2014-01-03T12:54:24.000Z</time>
</trkpt>
<trkpt lat="31.5891029" lon="35.3556491">
<ele>35.709999</ele>
<time>2014-01-03T12:54:42.000Z</time>
</trkpt>
<trkpt lat="31.5894534" lon="35.3558695">
<ele>37.630001</ele>
<time>2014-01-03T12:55:02.000Z</time>
</trkpt>
<trkpt lat="31.5895391" lon="35.3559626">
<ele>37.630001</ele>
<time>2014-01-03T12:55:07.000Z</time>
</trkpt>
<trkpt lat="31.5896012" lon="35.3560429">
<ele>38.110001</ele>
<time>2014-01-03T12:55:11.000Z</time>
</trkpt>
<trkpt lat="31.5896614" lon="35.3561581">
<ele>37.150002</ele>
<time>2014-01-03T12:55:15.000Z</time>
</trkpt>
<trkpt lat="31.5897468" lon="35.3563603">
<ele>37.150002</ele>
<time>2014-01-03T12:55:22.000Z</time>
</trkpt>
<trkpt lat="31.5898504" lon="35.3565739">
<ele>37.630001</ele>
<time>2014-01-03T12:55:30.000Z</time>
</trkpt>
<trkpt lat="31.5899010" lon="35.3567699">
<ele>39.549999</ele>
<time>2014-01-03T12:55:42.000Z</time>
</trkpt>
<trkpt lat="31.5899496" lon="35.3568674">
<ele>40.510002</ele>
<time>2014-01-03T12:55:48.000Z</time>
</trkpt>
<trkpt lat="31.5900218" lon="35.3569569">
<ele>40.990002</ele>
<time>2014-01-03T12:55:54.000Z</time>
</trkpt>
<trkpt lat="31.5901031" lon="35.3570405">
<ele>40.990002</ele>
<time>2014-01-03T12:55:59.000Z</time>
</trkpt>
<trkpt lat="31.5902473" lon="35.3572091">
<ele>42.439999</ele>
<time>2014-01-03T12:56:10.000Z</time>
</trkpt>
<trkpt lat="31.5903168" lon="35.3572734">
<ele>43.400002</ele>
<time>2014-01-03T12:56:15.000Z</time>
</trkpt>
<trkpt lat="31.5904881" lon="35.3573915">
<ele>43.400002</ele>
<time>2014-01-03T12:56:25.000Z</time>
</trkpt>
<trkpt lat="31.5905632" lon="35.3574730">
<ele>44.360001</ele>
<time>2014-01-03T12:56:31.000Z</time>
</trkpt>
<trkpt lat="31.5907329" lon="35.3576066">
<ele>45.799999</ele>
<time>2014-01-03T12:56:43.000Z</time>
</trkpt>
<trkpt lat="31.5909243" lon="35.3577002">
<ele>47.240002</ele>
<time>2014-01-03T12:56:55.000Z</time>
</trkpt>
<trkpt lat="31.5912010" lon="35.3577781">
<ele>49.160000</ele>
<time>2014-01-03T12:57:14.000Z</time>
</trkpt>
<trkpt lat="31.5913727" lon="35.3578696">
<ele>51.089996</ele>
<time>2014-01-03T12:57:29.000Z</time>
</trkpt>
<trkpt lat="31.5915325" lon="35.3579788">
<ele>51.570000</ele>
<time>2014-01-03T13:00:27.000Z</time>
</trkpt>
<trkpt lat="31.5916219" lon="35.3580749">
<ele>50.130001</ele>
<time>2014-01-03T13:00:31.000Z</time>
</trkpt>
<trkpt lat="31.5917277" lon="35.3581585">
<ele>49.160000</ele>
<time>2014-01-03T13:00:34.000Z</time>
</trkpt>
<trkpt lat="31.5918942" lon="35.3583462">
<ele>45.799999</ele>
<time>2014-01-03T13:00:38.000Z</time>
</trkpt>
<trkpt lat="31.5920432" lon="35.3585793">
<ele>41.950001</ele>
<time>2014-01-03T13:00:42.000Z</time>
</trkpt>
<trkpt lat="31.5921074" lon="35.3586813">
<ele>40.510002</ele>
<time>2014-01-03T13:00:44.000Z</time>
</trkpt>
<trkpt lat="31.5922043" lon="35.3587853">
<ele>39.070000</ele>
<time>2014-01-03T13:00:47.000Z</time>
</trkpt>
<trkpt lat="31.5928727" lon="35.3593962">
<ele>28.980001</ele>
<time>2014-01-03T13:00:59.000Z</time>
</trkpt>
<trkpt lat="31.5932970" lon="35.3597532">
<ele>28.500000</ele>
<time>2014-01-03T13:01:07.000Z</time>
</trkpt>
<trkpt lat="31.5934525" lon="35.3598990">
<ele>26.570000</ele>
<time>2014-01-03T13:01:11.000Z</time>
</trkpt>
<trkpt lat="31.5936392" lon="35.3600921">
<ele>25.130001</ele>
<time>2014-01-03T13:01:15.000Z</time>
</trkpt>
<trkpt lat="31.5938174" lon="35.3602457">
<ele>24.650000</ele>
<time>2014-01-03T13:01:19.000Z</time>
</trkpt>
<trkpt lat="31.5940007" lon="35.3605135">
<ele>23.690001</ele>
<time>2014-01-03T13:01:25.000Z</time>
</trkpt>
<trkpt lat="31.5941844" lon="35.3606934">
<ele>21.769999</ele>
<time>2014-01-03T13:01:30.000Z</time>
</trkpt>
<trkpt lat="31.5943380" lon="35.3608760">
<ele>20.320000</ele>
<time>2014-01-03T13:01:34.000Z</time>
</trkpt>
<trkpt lat="31.5943913" lon="35.3609931">
<ele>19.360001</ele>
<time>2014-01-03T13:01:36.000Z</time>
</trkpt>
<trkpt lat="31.5944416" lon="35.3612145">
<ele>16.959999</ele>
<time>2014-01-03T13:01:40.000Z</time>
</trkpt>
<trkpt lat="31.5944815" lon="35.3614352">
<ele>16.000000</ele>
<time>2014-01-03T13:01:44.000Z</time>
</trkpt>
<trkpt lat="31.5944923" lon="35.3617975">
<ele>16.959999</ele>
<time>2014-01-03T13:01:55.000Z</time>
</trkpt>
<trkpt lat="31.5945353" lon="35.3619177">
<ele>17.439999</ele>
<time>2014-01-03T13:01:59.000Z</time>
</trkpt>
<trkpt lat="31.5946221" lon="35.3619872">
<ele>18.400000</ele>
<time>2014-01-03T13:02:03.000Z</time>
</trkpt>
<trkpt lat="31.5950230" lon="35.3621218">
<ele>18.879999</ele>
<time>2014-01-03T13:02:19.000Z</time>
</trkpt>
<trkpt lat="31.5951191" lon="35.3621960">
<ele>19.360001</ele>
<time>2014-01-03T13:02:24.000Z</time>
</trkpt>
<trkpt lat="31.5951881" lon="35.3622904">
<ele>20.320000</ele>
<time>2014-01-03T13:02:29.000Z</time>
</trkpt>
<trkpt lat="31.5954227" lon="35.3626772">
<ele>20.809999</ele>
<time>2014-01-03T13:02:46.000Z</time>
</trkpt>
<trkpt lat="31.5955954" lon="35.3628040">
<ele>17.920000</ele>
<time>2014-01-03T13:02:56.000Z</time>
</trkpt>
<trkpt lat="31.5960987" lon="35.3629749">
<ele>12.150002</ele>
<time>2014-01-03T13:03:12.000Z</time>
</trkpt>
<trkpt lat="31.5963005" lon="35.3630012">
<ele>10.710000</ele>
<time>2014-01-03T13:03:16.000Z</time>
</trkpt>
<trkpt lat="31.5965271" lon="35.3629974">
<ele>8.790000</ele>
<time>2014-01-03T13:03:20.000Z</time>
</trkpt>
<trkpt lat="31.5968910" lon="35.3629423">
<ele>6.870000</ele>
<time>2014-01-03T13:03:27.000Z</time>
</trkpt>
<trkpt lat="31.5970109" lon="35.3629641">
<ele>6.390000</ele>
<time>2014-01-03T13:03:30.000Z</time>
</trkpt>
<trkpt lat="31.5971129" lon="35.3630329">
<ele>5.910000</ele>
<time>2014-01-03T13:03:33.000Z</time>
</trkpt>
<trkpt lat="31.5971741" lon="35.3631523">
<ele>4.940000</ele>
<time>2014-01-03T13:03:36.000Z</time>
</trkpt>
<trkpt lat="31.5971946" lon="35.3632592">
<ele>4.460000</ele>
<time>2014-01-03T13:03:38.000Z</time>
</trkpt>
<trkpt lat="31.5973339" lon="35.3634638">
<ele>3.980000</ele>
<time>2014-01-03T13:03:43.000Z</time>
</trkpt>
<trkpt lat="31.5975350" lon="35.3636825">
<ele>3.980000</ele>
<time>2014-01-03T13:03:49.000Z</time>
</trkpt>
<trkpt lat="31.5977035" lon="35.3638008">
<ele>3.020000</ele>
<time>2014-01-03T13:03:53.000Z</time>
</trkpt>
<trkpt lat="31.5978868" lon="35.3639628">
<ele>2.540000</ele>
<time>2014-01-03T13:03:58.000Z</time>
</trkpt>
<trkpt lat="31.5981047" lon="35.3642486">
<ele>2.540000</ele>
<time>2014-01-03T13:04:08.000Z</time>
</trkpt>
<trkpt lat="31.5981824" lon="35.3643092">
<ele>2.060000</ele>
<time>2014-01-03T13:04:11.000Z</time>
</trkpt>
<trkpt lat="31.5982822" lon="35.3643574">
<ele>0.620000</ele>
<time>2014-01-03T13:04:14.000Z</time>
</trkpt>
<trkpt lat="31.5983742" lon="35.3643818">
<ele>-0.820000</ele>
<time>2014-01-03T13:04:16.000Z</time>
</trkpt>
<trkpt lat="31.5986623" lon="35.3644100">
<ele>-4.670000</ele>
<time>2014-01-03T13:04:24.000Z</time>
</trkpt>
<trkpt lat="31.5987607" lon="35.3644618">
<ele>-3.230000</ele>
<time>2014-01-03T13:04:29.000Z</time>
</trkpt>
<trkpt lat="31.5989561" lon="35.3644913">
<ele>-0.340000</ele>
<time>2014-01-03T13:04:41.000Z</time>
</trkpt>
<trkpt lat="31.5990724" lon="35.3644599">
<ele>-0.340000</ele>
<time>2014-01-03T13:04:46.000Z</time>
</trkpt>
<trkpt lat="31.5992635" lon="35.3643079">
<ele>-1.300000</ele>
<time>2014-01-03T13:04:52.000Z</time>
</trkpt>
<trkpt lat="31.5996433" lon="35.3640992">
<ele>-0.340000</ele>
<time>2014-01-03T13:05:06.000Z</time>
</trkpt>
<trkpt lat="31.5999135" lon="35.3639676">
<ele>2.060000</ele>
<time>2014-01-03T13:05:19.000Z</time>
</trkpt>
<trkpt lat="31.6000967" lon="35.3639066">
<ele>3.020000</ele>
<time>2014-01-03T13:05:29.000Z</time>
</trkpt>
<trkpt lat="31.6001895" lon="35.3639060">
<ele>3.500000</ele>
<time>2014-01-03T13:05:34.000Z</time>
</trkpt>
<trkpt lat="31.6002864" lon="35.3639571">
<ele>2.540000</ele>
<time>2014-01-03T13:05:39.000Z</time>
</trkpt>
<trkpt lat="31.6003602" lon="35.3640458">
<ele>1.100000</ele>
<time>2014-01-03T13:05:43.000Z</time>
</trkpt>
<trkpt lat="31.6004023" lon="35.3641614">
<ele>-0.340000</ele>
<time>2014-01-03T13:05:47.000Z</time>
</trkpt>
<trkpt lat="31.6004162" lon="35.3642800">
<ele>-2.270000</ele>
<time>2014-01-03T13:05:51.000Z</time>
</trkpt>
<trkpt lat="31.6004232" lon="35.3644204">
<ele>-3.710000</ele>
<time>2014-01-03T13:05:55.000Z</time>
</trkpt>
<trkpt lat="31.6003679" lon="35.3646325">
<ele>-6.110000</ele>
<time>2014-01-03T13:06:04.000Z</time>
</trkpt>
<trkpt lat="31.6003662" lon="35.3647509">
<ele>-8.509999</ele>
<time>2014-01-03T13:06:09.000Z</time>
</trkpt>
<trkpt lat="31.6003976" lon="35.3648697">
<ele>-9.960000</ele>
<time>2014-01-03T13:06:14.000Z</time>
</trkpt>
<trkpt lat="31.6005448" lon="35.3650337">
<ele>-10.440000</ele>
<time>2014-01-03T13:06:24.000Z</time>
</trkpt>
<trkpt lat="31.6004860" lon="35.3653740">
<ele>-7.550000</ele>
<time>2014-01-03T13:06:46.000Z</time>
</trkpt>
<trkpt lat="31.6004069" lon="35.3655711">
<ele>-7.070000</ele>
<time>2014-01-03T13:06:57.000Z</time>
</trkpt>
<trkpt lat="31.6003023" lon="35.3657507">
<ele>-7.070000</ele>
<time>2014-01-03T13:07:07.000Z</time>
</trkpt>
<trkpt lat="31.6002235" lon="35.3658224">
<ele>-8.030000</ele>
<time>2014-01-03T13:07:11.000Z</time>
</trkpt>
<trkpt lat="31.6000440" lon="35.3659477">
<ele>-8.030000</ele>
<time>2014-01-03T13:07:18.000Z</time>
</trkpt>
<trkpt lat="31.5999340" lon="35.3659561">
<ele>-8.509999</ele>
<time>2014-01-03T13:07:23.000Z</time>
</trkpt>
<trkpt lat="31.5998404" lon="35.3659231">
<ele>-7.070000</ele>
<time>2014-01-03T13:07:27.000Z</time>
</trkpt>
<trkpt lat="31.5997616" lon="35.3658366">
<ele>-5.630000</ele>
<time>2014-01-03T13:07:32.000Z</time>
</trkpt>
<trkpt lat="31.5997168" lon="35.3657315">
<ele>-5.150000</ele>
<time>2014-01-03T13:07:37.000Z</time>
</trkpt>
<trkpt lat="31.5995625" lon="35.3655960">
<ele>-2.750000</ele>
<time>2014-01-03T13:07:49.000Z</time>
</trkpt>
<trkpt lat="31.5994653" lon="35.3655905">
<ele>-2.750000</ele>
<time>2014-01-03T13:07:54.000Z</time>
</trkpt>
<trkpt lat="31.5993708" lon="35.3656203">
<ele>-2.750000</ele>
<time>2014-01-03T13:07:59.000Z</time>
</trkpt>
<trkpt lat="31.5991697" lon="35.3657382">
<ele>-1.300000</ele>
<time>2014-01-03T13:08:11.000Z</time>
</trkpt>
<trkpt lat="31.5987080" lon="35.3658836">
<ele>6.390000</ele>
<time>2014-01-03T13:08:49.000Z</time>
</trkpt>
<trkpt lat="31.5985242" lon="35.3661360">
<ele>8.790000</ele>
<time>2014-01-03T13:09:14.000Z</time>
</trkpt>
<trkpt lat="31.5984571" lon="35.3662242">
<ele>7.350000</ele>
<time>2014-01-03T13:09:17.000Z</time>
</trkpt>
<trkpt lat="31.5983821" lon="35.3663054">
<ele>6.870000</ele>
<time>2014-01-03T13:09:19.000Z</time>
</trkpt>
<trkpt lat="31.5982981" lon="35.3664115">
<ele>6.390000</ele>
<time>2014-01-03T13:09:22.000Z</time>
</trkpt>
<trkpt lat="31.5982330" lon="35.3664983">
<ele>6.870000</ele>
<time>2014-01-03T13:09:25.000Z</time>
</trkpt>
<trkpt lat="31.5980834" lon="35.3667965">
<ele>5.910000</ele>
<time>2014-01-03T13:09:34.000Z</time>
</trkpt>
<trkpt lat="31.5980104" lon="35.3668826">
<ele>6.390000</ele>
<time>2014-01-03T13:09:40.000Z</time>
</trkpt>
<trkpt lat="31.5979362" lon="35.3669444">
<ele>6.870000</ele>
<time>2014-01-03T13:09:46.000Z</time>
</trkpt>
<trkpt lat="31.5977480" lon="35.3670289">
<ele>7.350000</ele>
<time>2014-01-03T13:09:58.000Z</time>
</trkpt>
<trkpt lat="31.5976600" lon="35.3670824">
<ele>7.830000</ele>
<time>2014-01-03T13:10:05.000Z</time>
</trkpt>
<trkpt lat="31.5971787" lon="35.3671989">
<ele>15.040001</ele>
<time>2014-01-03T13:10:46.000Z</time>
</trkpt>
<trkpt lat="31.5970932" lon="35.3672706">
<ele>16.480000</ele>
<time>2014-01-03T13:10:54.000Z</time>
</trkpt>
<trkpt lat="31.5969459" lon="35.3674395">
<ele>18.400000</ele>
<time>2014-01-03T13:11:10.000Z</time>
</trkpt>
<trkpt lat="31.5967984" lon="35.3677392">
<ele>16.480000</ele>
<time>2014-01-03T13:11:23.000Z</time>
</trkpt>
<trkpt lat="31.5965355" lon="35.3681299">
<ele>15.040001</ele>
<time>2014-01-03T13:11:34.000Z</time>
</trkpt>
<trkpt lat="31.5964416" lon="35.3683417">
<ele>14.559999</ele>
<time>2014-01-03T13:11:41.000Z</time>
</trkpt>
<trkpt lat="31.5961308" lon="35.3688369">
<ele>19.840000</ele>
<time>2014-01-03T13:12:22.000Z</time>
</trkpt>
<trkpt lat="31.5959684" lon="35.3691074">
<ele>23.209999</ele>
<time>2014-01-03T13:12:45.000Z</time>
</trkpt>
<trkpt lat="31.5958811" lon="35.3693166">
<ele>23.690001</ele>
<time>2014-01-03T13:12:58.000Z</time>
</trkpt>
<trkpt lat="31.5958022" lon="35.3695801">
<ele>22.730001</ele>
<time>2014-01-03T13:13:07.000Z</time>
</trkpt>
<trkpt lat="31.5956494" lon="35.3696969">
<ele>22.730001</ele>
<time>2014-01-03T13:13:19.000Z</time>
</trkpt>
<trkpt lat="31.5954957" lon="35.3698541">
<ele>23.209999</ele>
<time>2014-01-03T13:13:34.000Z</time>
</trkpt>
<trkpt lat="31.5950833" lon="35.3702180">
<ele>24.650000</ele>
<time>2014-01-03T13:16:35.000Z</time>
</trkpt>
<trkpt lat="31.5949892" lon="35.3702697">
<ele>25.609999</ele>
<time>2014-01-03T13:16:41.000Z</time>
</trkpt>
<trkpt lat="31.5948356" lon="35.3703925">
<ele>28.980001</ele>
<time>2014-01-03T13:16:56.000Z</time>
</trkpt>
<trkpt lat="31.5946789" lon="35.3704806">
<ele>32.340000</ele>
<time>2014-01-03T13:17:12.000Z</time>
</trkpt>
<trkpt lat="31.5945243" lon="35.3705836">
<ele>34.259998</ele>
<time>2014-01-03T13:17:27.000Z</time>
</trkpt>
<trkpt lat="31.5942390" lon="35.3708192">
<ele>31.380001</ele>
<time>2014-01-03T13:17:37.000Z</time>
</trkpt>
<trkpt lat="31.5941313" lon="35.3709424">
<ele>29.459999</ele>
<time>2014-01-03T13:17:39.000Z</time>
</trkpt>
<trkpt lat="31.5938412" lon="35.3713398">
<ele>27.530001</ele>
<time>2014-01-03T13:17:45.000Z</time>
</trkpt>
<trkpt lat="31.5936635" lon="35.3715626">
<ele>26.570000</ele>
<time>2014-01-03T13:17:49.000Z</time>
</trkpt>
<trkpt lat="31.5935729" lon="35.3716924">
<ele>25.130001</ele>
<time>2014-01-03T13:17:51.000Z</time>
</trkpt>
<trkpt lat="31.5933962" lon="35.3719458">
<ele>24.169998</ele>
<time>2014-01-03T13:17:55.000Z</time>
</trkpt>
<trkpt lat="31.5932273" lon="35.3721233">
<ele>24.169998</ele>
<time>2014-01-03T13:18:00.000Z</time>
</trkpt>
<trkpt lat="31.5928803" lon="35.3724274">
<ele>23.209999</ele>
<time>2014-01-03T13:18:10.000Z</time>
</trkpt>
<trkpt lat="31.5927471" lon="35.3726088">
<ele>22.730001</ele>
<time>2014-01-03T13:18:14.000Z</time>
</trkpt>
<trkpt lat="31.5926776" lon="35.3726808">
<ele>22.250000</ele>
<time>2014-01-03T13:18:16.000Z</time>
</trkpt>
<trkpt lat="31.5925861" lon="35.3727567">
<ele>22.730001</ele>
<time>2014-01-03T13:18:19.000Z</time>
</trkpt>
<trkpt lat="31.5924503" lon="35.3729116">
<ele>23.209999</ele>
<time>2014-01-03T13:18:25.000Z</time>
</trkpt>
<trkpt lat="31.5921527" lon="35.3736012">
<ele>28.019999</ele>
<time>2014-01-03T13:18:59.000Z</time>
</trkpt>
<trkpt lat="31.5920473" lon="35.3738061">
<ele>29.459999</ele>
<time>2014-01-03T13:19:12.000Z</time>
</trkpt>
<trkpt lat="31.5920097" lon="35.3739037">
<ele>30.900000</ele>
<time>2014-01-03T13:19:19.000Z</time>
</trkpt>
<trkpt lat="31.5919039" lon="35.3740506">
<ele>33.299999</ele>
<time>2014-01-03T13:19:34.000Z</time>
</trkpt>
<trkpt lat="31.5918075" lon="35.3743673">
<ele>37.630001</ele>
<time>2014-01-03T13:20:00.000Z</time>
</trkpt>
<trkpt lat="31.5916878" lon="35.3746557">
<ele>40.990002</ele>
<time>2014-01-03T13:20:25.000Z</time>
</trkpt>
<trkpt lat="31.5914682" lon="35.3754228">
<ele>44.360001</ele>
<time>2014-01-03T13:21:08.000Z</time>
</trkpt>
<trkpt lat="31.5914445" lon="35.3755359">
<ele>43.880001</ele>
<time>2014-01-03T13:21:14.000Z</time>
</trkpt>
<trkpt lat="31.5914398" lon="35.3759061">
<ele>41.469997</ele>
<time>2014-01-03T13:21:43.000Z</time>
</trkpt>
<trkpt lat="31.5913938" lon="35.3763119">
<ele>38.110001</ele>
<time>2014-01-03T13:21:49.000Z</time>
</trkpt>
<trkpt lat="31.5913045" lon="35.3768562">
<ele>34.740002</ele>
<time>2014-01-03T13:21:58.000Z</time>
</trkpt>
<trkpt lat="31.5911424" lon="35.3771288">
<ele>36.669998</ele>
<time>2014-01-03T13:22:14.000Z</time>
</trkpt>
<trkpt lat="31.5909833" lon="35.3775312">
<ele>40.990002</ele>
<time>2014-01-03T13:22:45.000Z</time>
</trkpt>
<trkpt lat="31.5908544" lon="35.3779715">
<ele>44.839996</ele>
<time>2014-01-03T13:23:17.000Z</time>
</trkpt>
<trkpt lat="31.5907481" lon="35.3784084">
<ele>45.320000</ele>
<time>2014-01-03T13:23:41.000Z</time>
</trkpt>
<trkpt lat="31.5905615" lon="35.3789985">
<ele>41.950001</ele>
<time>2014-01-03T13:23:54.000Z</time>
</trkpt>
<trkpt lat="31.5904550" lon="35.3793763">
<ele>40.029999</ele>
<time>2014-01-03T13:24:00.000Z</time>
</trkpt>
<trkpt lat="31.5903871" lon="35.3797097">
<ele>38.590000</ele>
<time>2014-01-03T13:24:06.000Z</time>
</trkpt>
<trkpt lat="31.5902500" lon="35.3801368">
<ele>39.549999</ele>
<time>2014-01-03T13:24:21.000Z</time>
</trkpt>
<trkpt lat="31.5902049" lon="35.3803661">
<ele>40.029999</ele>
<time>2014-01-03T13:24:31.000Z</time>
</trkpt>
<trkpt lat="31.5901956" lon="35.3806149">
<ele>39.549999</ele>
<time>2014-01-03T13:24:39.000Z</time>
</trkpt>
<trkpt lat="31.5903615" lon="35.3814917">
<ele>37.150002</ele>
<time>2014-01-03T13:24:59.000Z</time>
</trkpt>
<trkpt lat="31.5904186" lon="35.3819558">
<ele>39.549999</ele>
<time>2014-01-03T13:25:20.000Z</time>
</trkpt>
<trkpt lat="31.5904069" lon="35.3820858">
<ele>40.510002</ele>
<time>2014-01-03T13:25:26.000Z</time>
</trkpt>
<trkpt lat="31.5904174" lon="35.3822011">
<ele>40.510002</ele>
<time>2014-01-03T13:25:32.000Z</time>
</trkpt>
<trkpt lat="31.5904451" lon="35.3823202">
<ele>39.549999</ele>
<time>2014-01-03T13:25:37.000Z</time>
</trkpt>
<trkpt lat="31.5907399" lon="35.3831163">
<ele>32.820000</ele>
<time>2014-01-03T13:25:58.000Z</time>
</trkpt>
<trkpt lat="31.5909783" lon="35.3839913">
<ele>25.130001</ele>
<time>2014-01-03T13:26:12.000Z</time>
</trkpt>
<trkpt lat="31.5910508" lon="35.3843627">
<ele>22.250000</ele>
<time>2014-01-03T13:26:19.000Z</time>
</trkpt>
<trkpt lat="31.5911882" lon="35.3848353">
<ele>20.320000</ele>
<time>2014-01-03T13:26:29.000Z</time>
</trkpt>
<trkpt lat="31.5912634" lon="35.3852736">
<ele>18.879999</ele>
<time>2014-01-03T13:26:38.000Z</time>
</trkpt>
<trkpt lat="31.5912858" lon="35.3855706">
<ele>17.920000</ele>
<time>2014-01-03T13:26:44.000Z</time>
</trkpt>
<trkpt lat="31.5913223" lon="35.3856886">
<ele>17.920000</ele>
<time>2014-01-03T13:26:47.000Z</time>
</trkpt>
<trkpt lat="31.5913674" lon="35.3857843">
<ele>17.439999</ele>
<time>2014-01-03T13:26:51.000Z</time>
</trkpt>
<trkpt lat="31.5915050" lon="35.3864169">
<ele>14.080000</ele>
<time>2014-01-03T13:27:05.000Z</time>
</trkpt>
<trkpt lat="31.5915671" lon="35.3866214">
<ele>13.600000</ele>
<time>2014-01-03T13:27:11.000Z</time>
</trkpt>
<trkpt lat="31.5915752" lon="35.3867563">
<ele>13.600000</ele>
<time>2014-01-03T13:27:15.000Z</time>
</trkpt>
<trkpt lat="31.5915102" lon="35.3869599">
<ele>14.080000</ele>
<time>2014-01-03T13:27:21.000Z</time>
</trkpt>
<trkpt lat="31.5913670" lon="35.3872640">
<ele>14.080000</ele>
<time>2014-01-03T13:27:31.000Z</time>
</trkpt>
<trkpt lat="31.5913423" lon="35.3873996">
<ele>13.600000</ele>
<time>2014-01-03T13:27:35.000Z</time>
</trkpt>
<trkpt lat="31.5913493" lon="35.3875365">
<ele>12.630000</ele>
<time>2014-01-03T13:27:39.000Z</time>
</trkpt>
<trkpt lat="31.5914314" lon="35.3877633">
<ele>9.750000</ele>
<time>2014-01-03T13:27:45.000Z</time>
</trkpt>
<trkpt lat="31.5914557" lon="35.3881349">
<ele>5.910000</ele>
<time>2014-01-03T13:27:54.000Z</time>
</trkpt>
<trkpt lat="31.5914528" lon="35.3882422">
<ele>5.420000</ele>
<time>2014-01-03T13:27:56.000Z</time>
</trkpt>
<trkpt lat="31.5913874" lon="35.3885064">
<ele>4.940000</ele>
<time>2014-01-03T13:28:02.000Z</time>
</trkpt>
<trkpt lat="31.5913169" lon="35.3886055">
<ele>4.940000</ele>
<time>2014-01-03T13:28:06.000Z</time>
</trkpt>
<trkpt lat="31.5912598" lon="35.3887070">
<ele>5.910000</ele>
<time>2014-01-03T13:28:10.000Z</time>
</trkpt>
<trkpt lat="31.5911705" lon="35.3889241">
<ele>6.870000</ele>
<time>2014-01-03T13:28:19.000Z</time>
</trkpt>
<trkpt lat="31.5910742" lon="35.3891280">
<ele>8.309999</ele>
<time>2014-01-03T13:28:29.000Z</time>
</trkpt>
<trkpt lat="31.5909593" lon="35.3893047">
<ele>9.750000</ele>
<time>2014-01-03T13:28:42.000Z</time>
</trkpt>
<trkpt lat="31.5908797" lon="35.3893695">
<ele>10.710000</ele>
<time>2014-01-03T13:28:48.000Z</time>
</trkpt>
<trkpt lat="31.5907466" lon="35.3895122">
<ele>12.150002</ele>
<time>2014-01-03T13:29:01.000Z</time>
</trkpt>
<trkpt lat="31.5906994" lon="35.3895919">
<ele>12.150002</ele>
<time>2014-01-03T13:29:07.000Z</time>
</trkpt>
<trkpt lat="31.5906808" lon="35.3904524">
<ele>9.270000</ele>
<time>2014-01-03T13:29:31.000Z</time>
</trkpt>
<trkpt lat="31.5906511" lon="35.3906840">
<ele>8.309999</ele>
<time>2014-01-03T13:29:35.000Z</time>
</trkpt>
<trkpt lat="31.5905484" lon="35.3910426">
<ele>6.390000</ele>
<time>2014-01-03T13:29:41.000Z</time>
</trkpt>
<trkpt lat="31.5903269" lon="35.3915789">
<ele>9.750000</ele>
<time>2014-01-03T13:30:03.000Z</time>
</trkpt>
<trkpt lat="31.5902869" lon="35.3917005">
<ele>9.750000</ele>
<time>2014-01-03T13:30:08.000Z</time>
</trkpt>
<trkpt lat="31.5902341" lon="35.3921773">
<ele>8.309999</ele>
<time>2014-01-03T13:30:25.000Z</time>
</trkpt>
<trkpt lat="31.5901853" lon="35.3923976">
<ele>7.830000</ele>
<time>2014-01-03T13:30:33.000Z</time>
</trkpt>
<trkpt lat="31.5901351" lon="35.3924847">
<ele>7.830000</ele>
<time>2014-01-03T13:30:37.000Z</time>
</trkpt>
</trkseg>
</trk>
</gpx>
